[[{"header":{"parameterUnit":"m.s-1","parameterCategory":1,"la1":30.6,"la2":29.2853,"lo1":-89.7004,"lo2":-87.6739,"dy":0.0162,"dx":0.0183,"nx":112,"ny":82,"refTime":"2025-01-01T18:00:00:Z","depth":0,"parameterNumber":2,"parameterNumberName":"U-component_of_WINDS"},"data":[0.0,0.0,0.0,0.0,0.0,0.0,0.0,0.0,0.0,0.0,0.0,0.0,0.0,0.0,0.0,0.0,0.0,0.0,0.0,0.0,0.0,0.0,0.0,0.0,0.0,0.0,0.0,0.0,0.0,0.0,0.0,0.0,0.0,0.0,0.0,0.0,0.0,0.0,0.0,0.0,0.0,0.0,0.0,0.0,0.0,0.0,0.0,0.0,0.0,0.0,0.0,0.0,0.0,0.0,0.0,0.0,0.0,0.0,0.0,0.0,0.0,0.0,0.0,0.0,0.0,0.0,0.0,0.0,0.0,0.0,0.0,0.0,0.0,0.0,0.0,0.0,0.0,0.0,0.0,0.0,0.0,0.0,0.0,0.0,0.0,0.0,0.0,0.0,0.0,0.0,0.0,2.965,3.0979,3.1697,3.1589,2.9758,2.7457,2.4769,0.0,0.0,0.0,0.0,0.0,0.0,0.0,0.0,0.0,0.0,0.0,0.0,0.0,0.0,0.0,0.0,0.0,0.0,0.0,0.0,0.0,0.0,0.0,0.0,0.0,0.0,0.0,0.0,0.0,0.0,0.0,0.0,0.0,0.0,0.0,0.0,0.0,0.0,0.0,0.0,0.0,0.0,0.0,0.0,0.0,0.0,0.0,0.0,0.0,0.0,0.0,0.0,0.0,0.0,0.0,0.0,0.0,0.0,0.0,0.0,0.0,0.0,0.0,0.0,0.0,0.0,0.0,0.0,0.0,0.0,0.0,0.0,0.0,0.0,0.0,0.0,0.0,0.0,0.0,0.0,0.0,0.0,0.0,0.0,0.0,0.0,0.0,0.0,0.0,0.0,0.0,0.0,0.0,0.0,0.0,0.0,0.0,0.0,0.0,0.0,0.0,0.0,0.0,0.0,2.7046,3.0792,3.1902,3.2119,3.1563,2.9723,2.7457,2.4769,0.0,0.0,0.0,0.0,0.0,0.0,0.0,0.0,0.0,0.0,0.0,0.0,0.0,0.0,0.0,0.0,0.0,0.0,0.0,0.0,0.0,0.0,0.0,0.0,0.0,0.0,0.0,0.0,0.0,0.0,0.0,0.0,0.0,0.0,0.0,0.0,0.0,0.0,0.0,0.0,0.0,0.0,0.0,0.0,0.0,0.0,0.0,0.0,0.0,0.0,0.0,0.0,0.0,0.0,0.0,0.0,0.0,0.0,0.0,0.0,0.0,0.0,0.0,0.0,0.0,0.0,0.0,0.0,0.0,0.0,0.0,0.0,0.0,0.0,0.0,0.0,0.0,0.0,0.0,0.0,0.0,0.0,0.0,0.0,0.0,0.0,0.0,0.0,0.0,0.0,0.0,0.0,0.0,0.0,0.0,0.0,0.0,0.0,0.0,0.0,0.0,0.0,0.0,2.6929,2.8251,3.1671,3.2318,3.2377,3.2078,3.0268,2.7993,2.5319,2.2981,0.0,0.0,0.0,0.0,0.0,0.0,0.0,0.0,0.0,0.0,0.0,0.0,0.0,0.0,0.0,0.0,0.0,0.0,0.0,0.0,0.0,0.0,0.0,0.0,0.0,0.0,0.0,0.0,0.0,0.0,0.0,0.0,0.0,0.0,0.0,0.0,0.0,0.0,0.0,0.0,0.0,0.0,0.0,0.0,0.0,0.0,0.0,0.0,0.0,0.0,0.0,0.0,0.0,0.0,0.0,0.0,0.0,0.0,0.0,0.0,0.0,0.0,0.0,0.0,0.0,0.0,0.0,0.0,0.0,0.0,0.0,0.0,0.0,0.0,0.0,0.0,0.0,0.0,0.0,0.0,0.0,0.0,0.0,0.0,0.0,0.0,0.0,0.0,0.0,0.0,0.0,0.0,0.0,0.0,0.0,0.0,0.0,0.0,0.0,0.0,0.0,0.0,2.9391,3.0383,3.2511,3.2736,3.2736,3.2736,3.0521,2.8126,2.5737,2.2847,0.0,0.0,0.0,0.0,0.0,0.0,0.0,0.0,0.0,0.0,0.0,0.0,0.0,0.0,0.0,0.0,0.0,0.0,0.0,0.0,0.0,0.0,0.0,0.0,0.0,0.0,0.0,0.0,0.0,0.0,0.0,0.0,0.0,0.0,0.0,0.0,0.0,0.0,0.0,0.0,0.0,0.0,0.0,0.0,0.0,0.0,0.0,0.0,0.0,0.0,0.0,0.0,0.0,0.0,0.0,0.0,0.0,0.0,0.0,0.0,0.0,0.0,0.0,0.0,0.0,0.0,0.0,0.0,0.0,0.0,0.0,0.0,0.0,0.0,0.0,0.0,0.0,0.0,0.0,0.0,0.0,0.0,0.0,0.0,0.0,0.0,0.0,0.0,0.0,0.0,0.0,0.0,0.0,0.0,0.0,0.0,0.0,0.0,0.0,0.0,0.0,0.0,3.0578,3.3152,3.3411,3.3425,3.3425,3.3425,2.9922,2.7123,2.5678,2.1989,0.0,0.0,0.0,0.0,0.0,0.0,0.0,0.0,0.0,0.0,0.0,0.0,0.0,0.0,0.0,0.0,0.0,0.0,0.0,0.0,0.0,0.0,0.0,0.0,0.0,0.0,0.0,0.0,0.0,0.0,0.0,0.0,0.0,0.0,0.0,0.0,0.0,0.0,0.0,0.0,0.0,0.0,0.0,0.0,0.0,0.0,0.0,0.0,0.0,0.0,0.0,0.0,0.0,0.0,0.0,0.0,0.0,0.0,0.0,0.0,0.0,0.0,0.0,0.0,0.0,0.0,0.0,0.0,0.0,0.0,0.0,0.0,0.0,0.0,0.0,0.0,0.0,0.0,0.0,0.0,0.0,0.0,0.0,0.0,0.0,0.0,0.0,0.0,0.0,0.0,0.0,0.0,0.0,0.0,0.0,0.0,0.0,0.0,0.0,0.0,0.0,0.0,2.9732,3.2235,0.0,3.3754,3.3499,3.3499,3.0641,2.7916,2.5749,0.0,0.0,0.0,0.0,0.0,0.0,0.0,0.0,0.0,0.0,0.0,0.0,0.0,0.0,0.0,0.0,0.0,0.0,0.0,0.0,0.0,0.0,0.0,0.0,0.0,0.0,0.0,0.0,0.0,0.0,0.0,0.0,0.0,0.0,0.0,0.0,0.0,0.0,0.0,0.0,0.0,0.0,0.0,0.0,0.0,0.0,0.0,0.0,0.0,0.0,0.0,0.0,0.0,0.0,0.0,0.0,0.0,0.0,0.0,0.0,0.0,0.0,0.0,0.0,0.0,0.0,0.0,0.0,0.0,0.0,0.0,0.0,0.0,0.0,0.0,0.0,0.0,0.0,0.0,0.0,0.0,0.0,0.0,0.0,0.0,0.0,0.0,0.0,0.0,0.0,0.0,0.0,0.0,0.0,0.0,0.0,0.0,0.0,0.0,0.0,0.0,0.0,2.6803,2.9694,3.2228,0.0,3.3818,3.3414,3.3499,3.0246,2.747,2.5714,0.0,0.0,0.0,0.0,0.0,0.0,0.0,0.0,0.0,0.0,0.0,0.0,0.0,0.0,0.0,0.0,0.0,0.0,0.0,0.0,0.0,0.0,0.0,0.0,0.0,0.0,0.0,0.0,0.0,0.0,0.0,0.0,0.0,0.0,0.0,0.0,0.0,0.0,0.0,0.0,0.0,0.0,0.0,0.0,0.0,0.0,0.0,0.0,0.0,0.0,0.0,0.0,0.0,0.0,0.0,0.0,0.0,0.0,0.0,0.0,0.0,0.0,0.0,0.0,0.0,0.0,0.0,0.0,0.0,0.0,0.0,0.0,0.0,0.0,0.0,0.0,0.0,0.0,0.0,0.0,0.0,0.0,0.0,0.0,0.0,0.0,0.0,0.0,0.0,0.0,0.0,0.0,0.0,0.0,0.0,0.0,0.0,0.0,0.0,0.0,0.0,0.0,2.6992,3.0889,3.3769,3.4444,3.3657,3.3216,3.3483,2.8426,2.5342,0.0,0.0,0.0,0.0,0.0,0.0,0.0,0.0,0.0,0.0,0.0,0.0,0.0,0.0,0.0,0.0,0.0,0.0,0.0,0.0,0.0,0.0,0.0,0.0,0.0,0.0,0.0,0.0,0.0,0.0,0.0,0.0,0.0,0.0,0.0,0.0,0.0,0.0,0.0,0.0,0.0,0.0,0.0,0.0,0.0,0.0,0.0,0.0,0.0,0.0,0.0,0.0,0.0,0.0,0.0,0.0,0.0,0.0,0.0,0.0,0.0,0.0,0.0,0.0,0.0,0.0,0.0,0.0,0.0,0.0,0.0,0.0,0.0,0.0,0.0,0.0,0.0,0.0,0.0,0.0,0.0,0.0,0.0,0.0,0.0,0.0,0.0,0.0,0.0,0.0,0.0,0.0,0.0,0.0,0.0,0.0,0.0,0.0,0.0,0.0,0.0,0.0,0.0,2.7237,3.101,3.3933,3.507,3.3935,3.3216,3.3483,2.9653,2.6762,2.5678,0.0,0.0,0.0,0.0,0.0,0.0,0.0,0.0,0.0,0.0,0.0,0.0,0.0,0.0,0.0,0.0,0.0,0.0,0.0,0.0,0.0,0.0,0.0,0.0,0.0,0.0,0.0,0.0,0.0,0.0,0.0,0.0,0.0,0.0,0.0,0.0,0.0,0.0,0.0,0.0,0.0,0.0,0.0,0.0,0.0,0.0,0.0,0.0,0.0,0.0,0.0,0.0,0.0,0.0,0.0,0.0,0.0,0.0,0.0,0.0,0.0,0.0,0.0,0.0,0.0,0.0,0.0,0.0,0.0,0.0,0.0,0.0,0.0,0.0,0.0,0.0,0.0,0.0,0.0,0.0,0.0,0.0,0.0,0.0,0.0,0.0,0.0,0.0,0.0,0.0,0.0,0.0,0.0,0.0,0.0,0.0,0.0,0.0,0.0,0.0,0.0,0.0,2.6785,3.0192,3.2921,3.4211,3.3135,3.2354,3.242,2.9418,2.6835,2.5187,0.0,0.0,0.0,0.0,0.0,0.0,0.0,0.0,0.0,0.0,0.0,0.0,0.0,0.0,0.0,0.0,0.0,0.0,0.0,0.0,0.0,0.0,0.0,0.0,0.0,0.0,0.0,0.0,0.0,0.0,0.0,0.0,0.0,0.0,0.0,0.0,0.0,0.0,0.0,0.0,0.0,0.0,0.0,0.0,0.0,0.0,0.0,0.0,0.0,0.0,0.0,0.0,0.0,0.0,0.0,0.0,0.0,0.0,0.0,0.0,0.0,0.0,0.0,0.0,0.0,0.0,0.0,0.0,0.0,0.0,0.0,0.0,0.0,0.0,0.0,0.0,0.0,0.0,0.0,0.0,0.0,0.0,0.0,0.0,0.0,0.0,0.0,0.0,0.0,0.0,0.0,0.0,0.0,0.0,0.0,0.0,0.0,0.0,0.0,0.0,0.0,0.0,2.6014,2.8969,3.1323,3.2483,3.176,3.1118,3.0893,2.8353,2.6129,2.4647,0.0,0.0,0.0,0.0,0.0,0.0,0.0,0.0,0.0,0.0,0.0,0.0,0.0,0.0,0.0,0.0,0.0,0.0,0.0,0.0,0.0,0.0,0.0,0.0,0.0,0.0,0.0,0.0,0.0,0.0,0.0,0.0,0.0,0.0,0.0,0.0,0.0,0.0,0.0,0.0,0.0,0.0,0.0,0.0,0.0,0.0,0.0,0.0,0.0,0.0,0.0,0.0,0.0,0.0,0.0,0.0,0.0,0.0,0.0,0.0,2.0381,0.0,0.0,0.0,0.0,0.0,0.0,0.0,0.0,0.0,0.0,0.0,0.0,0.0,0.0,0.0,0.0,0.0,0.0,0.0,0.0,0.0,0.0,0.0,0.0,0.0,0.0,0.0,0.0,0.0,0.0,0.0,0.0,0.0,0.0,0.0,0.0,0.0,0.0,0.0,0.0,0.0,2.6684,2.9552,3.174,3.2524,3.176,3.126,3.1416,2.8866,2.7044,2.652,2.2573,0.0,0.0,0.0,0.0,0.0,0.0,0.0,0.0,0.0,0.0,0.0,0.0,0.0,0.0,0.0,0.0,0.0,0.0,0.0,0.0,0.0,0.0,0.0,0.0,0.0,0.0,0.0,0.0,0.0,0.0,0.0,0.0,0.0,0.0,0.0,0.0,0.0,0.0,0.0,0.0,0.0,0.0,0.0,0.0,0.0,0.0,0.0,0.0,0.0,0.0,0.0,0.0,0.0,0.0,0.0,0.0,0.0,0.0,0.0,0.0,2.2249,0.0,0.0,0.0,0.0,0.0,0.0,0.0,0.0,0.0,0.0,0.0,0.0,0.0,0.0,0.0,0.0,0.0,0.0,0.0,0.0,0.0,0.0,0.0,0.0,0.0,0.0,0.0,0.0,0.0,0.0,0.0,0.0,0.0,0.0,0.0,0.0,0.0,0.0,0.0,0.0,2.6649,2.8901,3.0547,3.1196,3.0827,3.0462,3.0321,2.9048,2.7897,2.7053,2.4299,0.0,0.0,0.0,0.0,0.0,0.0,0.0,0.0,0.0,0.0,0.0,0.0,0.0,0.0,0.0,0.0,0.0,0.0,0.0,0.0,0.0,0.0,0.0,0.0,0.0,0.0,0.0,0.0,0.0,0.0,0.0,0.0,0.0,0.0,0.0,0.0,0.0,0.0,0.0,0.0,0.0,0.0,0.0,0.0,0.0,0.0,0.0,0.0,0.0,0.0,0.0,0.0,0.0,0.0,2.6668,2.6038,2.66,2.6838,2.6791,2.6895,2.6311,2.5223,0.0,0.0,0.0,0.0,0.0,0.0,0.0,0.0,0.0,0.0,0.0,0.0,0.0,0.0,0.0,0.0,0.0,0.0,0.0,0.0,0.0,0.0,0.0,0.0,0.0,2.8533,2.81,0.0,0.0,0.0,0.0,0.0,0.0,0.0,0.0,0.0,0.0,0.0,0.0,2.6728,2.8226,2.9245,2.9741,2.9792,2.9603,2.9095,2.9113,2.8615,2.7381,2.6175,2.4635,0.0,0.0,0.0,0.0,0.0,0.0,0.0,0.0,0.0,0.0,0.0,0.0,0.0,0.0,0.0,0.0,0.0,0.0,0.0,0.0,0.0,0.0,0.0,0.0,0.0,0.0,0.0,0.0,0.0,0.0,0.0,0.0,1.9393,2.0613,0.0,0.0,0.0,0.0,0.0,0.0,0.0,0.0,0.0,0.0,0.0,0.0,0.0,0.0,2.6184,2.8288,2.9401,2.9577,3.1426,3.1943,3.1293,3.1393,3.129,3.1135,3.1923,0.0,2.562,2.5615,0.0,0.0,0.0,0.0,0.0,0.0,0.0,0.0,0.0,0.0,0.0,0.0,0.0,0.0,0.0,0.0,0.0,0.0,0.0,0.0,0.0,0.0,3.1417,3.1027,3.103,3.0792,0.0,2.7079,2.4719,2.3789,0.0,0.0,0.0,0.0,0.0,0.0,0.0,0.0,2.8091,2.9175,2.9704,2.9779,2.9792,2.9767,2.9691,2.9233,2.8921,2.89,2.7496,2.6578,2.6408,2.3834,0.0,0.0,0.0,0.0,0.0,0.0,0.0,0.0,0.0,0.0,0.0,0.0,0.0,0.0,0.0,0.0,0.0,0.0,0.0,0.0,0.0,0.0,0.0,0.0,0.0,0.0,0.0,0.0,0.0,1.9218,2.0632,2.0521,2.1126,2.1064,0.0,0.0,0.0,0.0,0.0,0.0,0.0,0.0,0.0,2.6879,2.7641,2.8647,2.998,3.0902,3.1539,3.1876,3.2769,3.303,3.2763,3.2763,3.2698,3.2603,3.3005,3.1714,2.9274,2.8329,2.701,2.5564,0.0,0.0,0.0,0.0,0.0,2.7882,2.9872,0.0,0.0,0.0,0.0,0.0,0.0,0.0,0.0,0.0,0.0,0.0,0.0,0.0,0.0,3.308,3.3469,3.3559,3.2901,3.1217,2.9201,0.0,2.6377,2.5314,2.2724,0.0,0.0,0.0,0.0,0.0,2.8688,2.9454,2.9792,2.9792,2.9792,2.9792,2.9792,2.9566,2.951,2.976,2.8771,2.8128,2.8009,2.6182,2.421,0.0,0.0,0.0,0.0,0.0,0.0,0.0,0.0,0.0,0.0,0.0,0.0,0.0,0.0,0.0,0.0,0.0,0.0,0.0,0.0,0.0,0.0,0.0,0.0,0.0,0.0,0.0,0.0,2.0617,2.1658,2.0957,2.2213,2.2378,0.0,0.0,0.0,0.0,0.0,0.0,2.6612,2.7239,2.8314,2.9985,3.0628,3.1597,3.2996,3.2904,3.3068,3.3517,3.3517,3.3517,3.3517,3.3517,3.3517,3.3517,3.3517,3.3169,3.25,3.0715,2.911,2.772,2.7338,2.7194,0.0,2.9349,2.9827,2.9915,3.2547,3.2795,3.2006,3.2281,0.0,2.9714,2.7711,0.0,0.0,0.0,0.0,3.0003,3.0969,0.0,3.3206,3.4206,3.4821,3.4997,3.4371,3.3827,3.2628,0.0,2.937,2.8373,2.491,0.0,0.0,0.0,0.0,2.7311,2.9218,2.966,2.9792,2.9792,2.9792,2.9792,2.9792,2.9792,2.9897,3.0086,2.9683,2.9332,2.9095,2.8062,2.6441,2.4187,0.0,0.0,0.0,0.0,0.0,0.0,0.0,0.0,0.0,0.0,0.0,0.0,0.0,0.0,0.0,0.0,0.0,0.0,0.0,0.0,0.0,0.0,0.0,0.0,0.0,0.0,0.0,0.0,0.0,2.3728,2.4764,0.0,0.0,0.0,0.0,2.6166,2.628,2.7272,2.9558,3.0133,3.0901,3.203,3.312,3.3727,3.3837,3.4346,3.459,3.4615,3.4615,3.4615,3.4615,3.4615,3.4615,3.4615,3.4615,3.4301,3.3671,3.2004,3.1046,3.0639,3.0035,2.994,3.0184,3.0931,3.1593,3.2227,3.3019,3.3271,3.338,3.4394,3.3219,3.1376,3.1241,2.9707,0.0,0.0,3.0556,3.1657,3.2844,3.3666,3.4218,3.4292,3.4333,3.4181,3.3583,3.3417,3.2918,0.0,2.9962,2.8563,2.6848,0.0,2.6064,2.7326,2.7305,2.788,2.9884,2.9946,2.9792,2.9792,2.9792,2.9792,2.9792,2.9792,2.9798,2.9819,3.0032,3.0135,3.0118,2.9157,2.8023,2.6748,2.4329,0.0,0.0,0.0,0.0,0.0,0.0,0.0,0.0,0.0,0.0,0.0,0.0,0.0,0.0,0.0,0.0,0.0,0.0,0.0,0.0,0.0,0.0,0.0,0.0,0.0,0.0,0.0,0.0,2.6067,2.708,0.0,2.5706,2.6502,2.7542,2.8556,2.9559,3.0811,3.2399,3.297,3.3574,3.4292,3.5429,3.6006,3.6006,3.6558,3.6811,3.6811,3.6811,3.6811,3.6811,3.6811,3.6811,3.6798,3.6458,3.5994,3.5426,3.4462,3.3345,3.2345,3.2748,3.2929,3.3121,3.3946,3.4399,3.4602,3.4495,3.4459,3.4594,3.5309,3.423,3.2874,3.3979,3.2989,3.1635,3.249,3.302,3.3408,3.383,3.4123,3.4293,3.4293,3.4293,3.4238,3.4037,3.3982,3.3628,3.2436,3.1395,3.0016,2.7857,2.7813,2.7822,2.7041,2.7715,2.8691,2.9801,2.9865,2.9792,2.9792,2.9792,2.9792,2.9792,2.9792,2.9792,2.9792,2.9885,2.9947,2.9947,2.9425,2.8808,2.807,2.6596,2.4408,0.0,0.0,0.0,0.0,0.0,0.0,0.0,0.0,0.0,0.0,0.0,0.0,0.0,0.0,0.0,0.0,0.0,0.0,0.0,0.0,0.0,0.0,0.0,0.0,0.0,0.0,2.7525,2.8077,2.9428,2.9741,2.8278,2.9628,3.0826,3.1411,3.2608,3.38,3.4951,3.5353,3.5782,3.6334,3.7086,3.7462,3.7462,3.7826,3.8002,3.8002,3.8002,3.8002,3.8002,3.8002,3.8002,3.799,3.7613,3.7286,3.6909,3.6497,3.573,3.4753,3.4615,3.4564,3.4636,3.5265,3.5495,3.5429,3.5084,3.5042,3.5195,3.5374,3.4745,3.4083,3.5071,3.4316,3.3263,3.3929,3.3859,3.3645,3.3839,3.3893,3.3893,3.3893,3.3893,3.3839,3.3645,3.3592,3.3343,3.2488,3.2148,3.1393,2.9423,2.9632,2.9652,2.8363,2.9051,2.9905,3.0281,3.0331,3.0269,3.0093,3.0068,2.9993,2.9817,2.9792,2.9792,2.9792,2.9616,2.9415,2.9227,2.9127,2.8726,2.8047,2.734,2.5774,2.3336,0.0,0.0,0.0,0.0,0.0,0.0,0.0,0.0,0.0,0.0,0.0,0.0,0.0,0.0,0.0,0.0,0.0,0.0,0.0,0.0,0.0,0.0,0.0,2.5845,2.7614,2.9258,2.988,3.1871,3.2751,3.167,3.3043,3.4223,3.4741,3.5257,3.6058,3.7185,3.7248,3.7475,3.8015,3.8052,3.8052,3.8052,3.8052,3.8052,3.8052,3.8052,3.8052,3.8052,3.8052,3.8052,3.8052,3.804,3.804,3.804,3.8015,3.8002,3.7801,3.5619,3.4778,3.4778,3.4753,3.4741,3.4728,3.4728,3.497,3.5193,3.4706,3.4788,3.4999,3.4506,3.3657,3.2975,3.3566,3.3034,3.2416,3.3002,3.3153,3.3153,3.3153,3.3153,3.2989,3.2403,3.229,3.2127,3.1574,3.22,3.2534,3.1569,3.1406,3.1406,3.1406,3.1406,0.0,3.1406,3.1406,3.1198,3.0676,3.06,3.0387,2.9867,2.9804,2.9779,2.9767,2.922,2.8668,2.816,2.8302,2.7895,2.6809,2.6495,2.5792,2.4694,0.0,0.0,0.0,0.0,0.0,0.0,0.0,0.0,0.0,0.0,0.0,0.0,0.0,0.0,0.0,0.0,0.0,0.0,0.0,0.0,0.0,2.7301,2.8337,2.8034,3.0281,3.229,3.3235,3.4226,3.4891,3.5014,3.5793,3.6345,3.6496,3.701,3.7438,3.7764,3.8178,3.8504,3.8655,3.9019,3.9233,3.9233,3.9233,3.9233,3.9233,3.9233,3.9233,3.9233,3.9233,3.9233,3.9207,3.8806,3.8655,3.863,3.8178,3.8002,3.7902,3.6897,3.6508,3.6458,3.608,3.5667,3.527,3.527,3.511,3.4971,3.5596,3.5353,3.4943,3.5545,3.501,3.4203,3.439,3.4221,3.4051,3.4223,3.4274,3.4274,3.4274,3.4274,3.4201,3.4051,3.4013,3.385,3.3319,3.3409,3.3145,3.1661,3.1406,3.1406,3.1406,0.0,0.0,3.1406,3.1406,3.1336,3.1198,3.0834,3.0538,3.0387,3.0018,2.9616,0.0,2.8994,2.8825,2.8693,2.836,2.8417,2.8948,2.7679,2.6934,0.0,0.0,0.0,0.0,0.0,0.0,0.0,0.0,0.0,0.0,0.0,0.0,0.0,0.0,0.0,0.0,0.0,0.0,0.0,0.0,0.0,0.0,2.9985,3.1504,3.1968,3.3222,3.4512,3.5629,3.6221,3.6685,3.7048,3.7575,3.7914,3.7914,3.8404,3.8718,3.8718,3.9032,3.9245,3.9245,3.9534,3.9697,3.9697,3.9697,3.9697,3.9697,3.9697,3.9697,3.9697,3.9697,3.9697,0.0,3.9384,3.9245,3.922,3.8856,3.8718,0.0,0.0,0.0,0.0,0.0,3.6508,3.6183,3.5945,3.568,3.5481,3.5837,3.5548,3.5105,3.55,3.5181,3.4703,3.4703,3.4703,3.4703,3.4703,3.4703,3.4703,3.4703,3.4703,3.4703,3.4703,3.4703,3.4603,3.4311,0.0,0.0,3.2955,3.2403,3.2123,3.2123,3.2123,3.2123,0.0,3.2123,3.2022,3.1763,3.1474,3.109,3.0638,3.0319,0.0,0.0,0.0,2.8842,2.8696,2.8183,0.0,0.0,0.0,0.0,0.0,0.0,0.0,0.0,2.7341,2.7126,0.0,0.0,0.0,0.0,0.0,0.0,0.0,0.0,0.0,0.0,0.0,0.0,0.0,0.0,0.0,0.0,3.2918,3.5305,3.6521,3.6067,3.6081,3.7249,3.7801,3.8128,3.8191,3.8693,3.8982,3.8982,3.9446,3.9697,3.9697,0.0,0.0,0.0,0.0,3.9697,3.9697,3.9697,3.9697,3.9697,3.9697,3.9697,3.9697,3.9697,3.9697,3.9697,3.9697,3.9697,3.9697,3.9697,3.9697,3.9584,3.8517,3.8065,3.7952,3.7487,3.7298,0.0,0.0,0.0,0.0,3.587,3.5646,3.5495,3.5029,3.4879,3.4879,3.4879,3.4879,3.4879,3.4879,3.4879,3.4879,3.4879,3.4879,3.4879,3.4879,3.4879,3.4866,3.4803,3.4791,3.4778,3.4703,3.3909,3.3266,3.3203,3.319,0.0,3.3102,3.3102,3.2901,3.2365,0.0,0.0,3.0851,3.0713,3.0444,2.9829,2.9233,2.8768,2.8465,2.8012,2.8861,3.1224,3.1213,3.2021,3.3724,3.3799,3.4143,3.4623,2.9743,2.8771,0.0,0.0,0.0,0.0,0.0,0.0,0.0,0.0,0.0,0.0,0.0,0.0,0.0,0.0,0.0,3.3345,3.5052,3.662,3.8203,3.7301,3.6985,3.8404,3.8668,3.8906,3.932,3.9471,3.9534,3.9534,3.9634,3.9697,3.9697,3.9697,0.0,3.9697,3.9697,3.9697,3.9697,3.9697,3.9697,3.9697,0.0,0.0,3.9697,3.9697,3.9697,3.9697,3.9697,3.9697,3.9697,3.9697,3.9697,3.9634,3.8994,3.8417,3.799,3.7889,3.7852,3.7839,3.7726,3.74,3.7034,3.6897,3.6595,3.6205,3.6092,3.6067,0.0,3.6067,3.6067,3.6067,3.6067,3.6067,3.6067,3.6067,3.6067,3.6067,3.6067,3.6067,3.5942,3.5443,3.5345,3.5217,3.4778,3.4527,3.4226,3.3809,3.3746,3.3583,3.3153,3.3102,3.3052,3.2939,3.2491,3.2127,3.1905,3.1499,3.0821,2.9854,2.9233,2.8862,2.8816,2.8689,2.9792,3.226,3.189,3.2801,3.5115,3.5654,3.5985,3.6059,3.3949,3.353,0.0,0.0,0.0,0.0,0.0,0.0,0.0,0.0,0.0,0.0,0.0,2.8234,2.9858,0.0,3.313,3.4621,3.5807,3.668,3.7059,3.6464,3.682,3.9028,3.8643,3.8587,3.9608,3.9697,3.9697,3.9697,3.9697,3.9697,3.9697,3.9697,3.9697,3.9697,3.9697,3.9697,3.9697,3.9697,3.9697,3.9697,3.9697,3.9697,3.9697,3.9697,3.9697,3.9697,3.9697,3.9697,3.9697,3.9697,3.9697,3.9672,3.9383,3.9107,3.8818,3.8542,3.8442,3.8391,3.8103,3.7826,3.76,3.76,3.7436,3.716,3.6884,3.6796,3.6733,3.648,3.6405,3.6405,3.6405,3.6405,3.6405,3.6405,3.6405,3.6405,3.6405,3.6405,3.6306,3.6006,3.5956,3.5868,3.5592,3.5542,3.5265,3.4437,3.4289,3.4211,3.3935,3.3658,3.3504,3.3504,3.298,3.2528,3.224,3.1712,3.116,3.062,3.0319,3.0156,3.0156,3.0156,3.1202,3.3454,3.3237,3.421,3.6462,3.6791,3.712,3.7434,3.6514,3.5966,0.0,0.0,0.0,0.0,0.0,0.0,0.0,2.4993,2.6268,2.7761,2.9325,3.0768,3.193,3.344,3.4568,3.4829,3.5751,3.6157,3.5397,3.5041,3.5863,3.853,3.7808,3.7636,3.9129,3.8999,3.9077,3.9671,3.9439,3.9388,3.9685,3.9697,3.9697,3.9697,3.9697,3.9697,3.9697,3.9697,3.9697,3.9697,3.9697,3.9697,3.9697,3.9697,3.9697,3.9697,3.9697,3.9697,3.9697,3.9697,3.9697,3.9697,3.9697,3.9697,3.9634,3.922,3.9057,3.8994,3.8504,3.8266,3.8165,3.8165,3.8103,3.7927,3.7475,3.7374,3.7273,3.6833,3.6708,3.6708,3.6708,3.662,3.6568,3.6568,3.648,3.6405,3.6405,3.6405,3.6405,3.6405,3.6405,3.6405,3.6405,3.6405,3.6042,3.5004,3.4853,3.4828,3.4715,3.4314,3.406,3.406,3.3658,3.3206,3.2721,3.219,3.1838,3.1746,3.1612,3.1499,3.1399,3.1406,3.2366,3.4418,3.4685,3.5787,3.7836,3.7836,3.8103,3.8623,3.802,3.7395,2.3744,2.3323,2.3221,2.4126,2.4428,2.5548,0.0,2.9794,2.9608,3.0927,3.1743,3.2171,3.206,3.2946,3.39,3.4376,3.503,3.5424,3.5316,3.4153,3.3957,3.5601,3.5645,3.6135,3.761,3.6568,3.6888,3.9504,3.8491,3.8321,3.9633,3.9697,3.9697,3.9697,3.9697,3.9697,3.9697,3.9697,3.9697,3.9697,3.9697,3.9697,3.9697,3.9697,3.9697,3.9697,3.9697,3.9697,3.9697,3.9697,3.9697,3.9697,3.9697,3.9697,3.9685,3.9622,3.9597,3.9597,3.9521,3.9208,3.8806,3.8806,3.8429,3.8002,3.7939,3.7914,3.7902,3.7839,3.7826,3.7826,3.7826,3.7487,3.7122,3.7122,3.6746,3.6405,3.6405,3.6405,3.6405,3.6405,3.6405,3.6405,3.6405,3.6405,3.618,3.5495,3.5408,3.5232,3.4766,3.464,3.4603,3.4603,3.4552,3.449,3.4427,3.3935,3.3407,3.2939,3.2403,3.1901,3.1432,3.1406,3.2421,3.4623,3.565,3.7223,3.9342,3.9342,3.9385,3.9438,3.8366,3.8598,2.6884,2.6673,2.6581,2.7075,2.7915,2.8992,3.0294,3.0764,3.1081,3.1741,3.2286,3.2821,3.3324,3.3759,3.3978,0.0,3.3855,3.3715,3.2853,3.2217,3.2045,3.2683,3.274,3.367,3.5999,3.5645,3.5906,3.7379,3.7782,3.8329,3.9194,4.0136,4.0625,4.0625,4.0625,4.0625,4.0625,4.0311,4.0174,4.0174,3.9848,3.9697,3.9697,3.9697,3.9697,3.9697,3.9697,3.9697,3.9697,3.9697,3.9697,3.9697,3.9697,3.9697,3.9697,3.9697,3.9697,3.9697,3.9697,3.9546,3.9371,3.9371,3.9182,3.8931,3.863,3.8529,3.8442,3.8103,3.8002,3.8002,3.8002,3.7839,3.7663,3.7663,3.7487,3.7336,3.7336,3.7336,3.7248,3.6934,3.6859,3.6758,3.6444,3.6405,3.6306,3.6056,3.6019,3.5931,3.5728,3.538,3.5054,3.4728,3.4703,3.4703,3.4703,3.449,3.4274,3.4048,3.3787,3.3549,3.3345,3.3332,3.4062,3.5589,3.6096,3.7098,3.8604,3.8604,3.8604,3.8598,3.7809,3.8183,2.8543,2.8907,2.9313,2.9051,3.0347,3.1504,3.0726,3.1286,3.2015,3.2042,3.2357,3.2805,3.3343,3.344,3.3236,3.2582,3.2501,3.2121,3.1054,3.0889,3.0889,3.0889,3.0889,3.1749,3.3894,3.409,3.4583,3.5803,3.6592,3.7587,3.8824,3.9995,4.0846,4.1288,4.1315,4.1315,4.1315,4.0913,4.0637,4.0513,4.0111,3.9835,3.9697,3.9697,3.9697,3.9697,3.9697,3.9697,3.9697,3.9697,3.9697,3.9697,3.9697,3.9697,3.9697,3.9697,3.9697,3.9697,3.9697,3.9697,3.9697,3.9697,3.9697,3.9622,3.9245,3.912,3.9032,3.8592,3.8467,3.8467,3.8467,3.8354,3.8253,3.8253,3.8115,3.8002,3.8002,3.8002,3.7889,3.7487,3.7412,3.7311,3.6909,3.6833,3.6833,3.6833,3.6833,3.6733,3.6455,3.6019,3.5594,3.5215,3.5177,3.5177,3.5177,3.5177,3.5115,3.4941,3.4929,3.4853,3.4703,3.4703,3.5123,3.6063,3.6424,3.7044,3.7966,3.7966,3.7966,3.7945,3.7394,3.7603,2.762,2.8913,3.033,2.9412,3.0851,3.237,3.202,3.2382,3.2651,3.2266,3.2201,3.196,3.1168,3.1015,3.1015,3.0966,3.0976,3.0947,3.0928,3.0889,3.0889,3.0889,3.0889,3.0947,0.0,3.1034,3.2401,3.5635,3.4618,3.5328,3.8713,3.8943,3.9697,4.1248,4.1315,4.1315,4.1315,4.1263,4.1014,4.0487,4.0474,4.0212,3.9697,3.9697,3.9697,3.9697,3.9697,3.9697,3.9697,3.9697,3.9697,3.9697,3.9697,3.9697,3.9697,3.9697,3.9697,3.9697,3.9697,3.9697,3.9697,3.9697,3.9697,3.9697,3.9672,3.9672,3.9672,3.9647,3.9647,3.9647,3.9647,3.9271,3.8869,3.8869,3.8441,3.8002,3.8002,3.8002,3.8002,3.799,3.799,3.7977,3.7952,3.7952,3.7952,3.7952,3.7952,3.7575,3.6519,3.6392,3.638,3.6355,3.6355,3.6355,3.6355,3.6355,3.6105,3.5508,3.547,3.5232,3.4728,3.4703,3.4954,3.5504,3.667,3.7545,3.8077,3.8077,3.8077,3.8068,3.7477,3.722,2.9937,3.0667,3.1418,3.1814,3.2314,3.2603,3.2217,3.2264,3.2218,3.1491,3.1095,3.0784,3.0486,3.043,3.043,3.043,3.0693,3.0889,3.0889,3.0889,3.0889,3.0889,3.0889,0.0,3.0889,0.0,0.0,3.4778,3.4511,3.5922,3.981,4.0028,4.0761,4.2366,4.2421,4.2421,4.2421,4.2057,4.1808,4.162,4.0865,4.0224,3.9697,3.9697,3.9697,3.9697,3.9697,3.9697,3.9697,3.9697,3.9697,3.9697,3.9697,3.9697,3.9697,3.9697,3.9697,3.9697,3.9697,3.9697,3.9697,3.9697,3.9697,3.9697,3.9697,3.9697,3.9697,3.9697,3.9697,3.9697,3.9697,3.9585,3.9446,3.9446,3.927,3.9132,3.9132,3.9132,3.9019,3.868,3.8605,3.8479,3.8078,3.8002,3.8002,3.8002,3.7701,3.7349,3.6984,3.6607,3.6405,3.6405,3.6405,3.6405,3.6405,3.6405,3.6306,3.6117,3.6094,3.6029,3.5841,3.5828,3.5916,3.6081,3.65,3.6977,3.7503,3.7503,3.7707,3.8017,3.7821,3.7726,3.1157,3.1496,3.1661,3.2445,3.2605,3.2454,3.1883,3.173,3.1475,3.0611,3.0214,2.9883,2.957,2.9512,2.9609,2.9922,3.0253,3.0527,3.085,3.0889,3.0889,3.0889,3.0889,3.0889,3.0889,0.0,0.0,3.405,3.3886,3.5615,4.007,3.9965,4.0748,4.2918,4.3002,4.3002,4.3002,4.265,4.2374,4.22,4.104,4.0325,3.9986,3.9785,3.9697,3.9697,3.9697,3.9697,3.9697,3.9697,3.9697,3.9697,3.9697,3.9697,3.9697,3.9697,3.9697,3.9697,3.9697,3.9697,3.9697,3.9697,3.9697,3.9697,3.9697,3.9697,3.9697,3.9697,3.9697,3.9697,3.9697,3.9697,3.9697,3.9697,3.9697,3.9697,3.9697,3.9697,3.9584,3.9258,3.9195,3.907,3.8668,3.8605,3.8605,3.8605,3.8165,3.7738,3.75,3.7185,3.6972,3.6972,3.6972,3.6972,3.6972,3.6972,3.6972,3.6972,3.6972,3.6972,3.6972,3.6972,3.6972,3.6972,3.6972,3.7148,3.7475,3.7475,3.7663,3.8015,3.8216,3.8316,3.1268,3.1433,3.1207,3.1382,3.1778,3.1927,3.1091,3.0859,3.0576,2.9745,2.951,2.9217,2.835,2.8252,2.8555,2.9403,2.9627,2.9989,3.0801,3.0947,3.0957,0.0,0.0,0.0,0.0,0.0,0.0,3.3604,0.0,3.4445,3.9564,3.8801,3.9639,4.2765,4.2946,4.3002,4.3002,4.3002,4.2725,4.22,4.1091,4.0576,4.0474,3.9973,3.9722,3.9697,3.9697,3.9697,3.9697,3.9697,3.9697,3.9697,3.9697,3.9697,3.9697,3.9697,3.9697,3.9697,3.9607,3.9633,3.9697,3.9697,3.9697,3.9697,3.9697,3.9697,3.9685,3.9607,3.9633,3.9685,3.9607,3.9633,3.9697,3.9697,3.9697,3.9697,3.9697,3.9697,3.9697,3.9697,3.9697,3.9697,3.9697,3.9697,3.9697,3.9697,3.9271,3.873,3.8128,3.8027,3.8002,3.8002,3.8002,3.8002,3.8002,3.8002,3.8002,3.8002,3.8002,3.8002,3.8002,3.8002,3.8002,3.8002,3.8002,3.8027,3.8052,3.8052,3.8065,3.8103,3.868,3.8931,3.1514,3.1924,3.1924,3.1991,3.1602,3.1157,3.0947,3.0409,2.9784,2.9199,2.833,2.75,2.6973,2.7656,2.8359,2.8611,2.9971,0.0,3.1328,3.1641,0.0,3.1876,3.1876,3.1876,3.1876,3.1876,0.0,0.0,3.2965,3.4591,4.0112,3.9013,3.9141,4.1162,4.2375,4.3002,4.3002,4.3002,4.2725,4.2213,4.1896,4.1304,4.0513,4.0375,4.0086,3.9697,3.9697,3.9697,3.9697,3.9697,3.9697,3.9697,3.9697,3.9697,3.9697,3.9697,3.9697,3.9555,3.8439,3.8778,3.9697,3.9697,3.9697,3.9697,3.9697,3.9697,3.9465,3.8386,3.8856,3.9439,3.8348,3.8882,3.9697,3.9697,3.9697,3.9697,3.9697,3.9697,3.9697,3.9697,3.9697,3.9697,3.9697,3.9697,3.9697,3.9697,3.9572,3.9308,3.8743,3.8278,3.8002,3.8002,3.8002,3.8002,3.8002,3.8002,3.8002,3.8002,3.8002,3.8002,3.8002,3.8002,3.8002,3.8002,3.8002,3.8216,3.868,3.868,3.8894,3.927,3.9421,3.9484,3.1741,3.1852,3.1621,3.1621,3.1251,3.0742,3.0156,2.9639,2.8896,2.751,2.6791,2.6186,2.54,2.6455,2.7578,2.7985,2.9658,0.0,3.1465,3.1894,3.2198,3.2198,3.2198,0.0,3.2198,3.2198,3.2904,0.0,3.3336,3.4437,3.8948,3.7881,3.7873,3.9493,4.1105,4.2291,4.3002,4.3002,4.2851,4.2549,4.2298,4.1858,4.1216,4.0739,4.035,4.0036,0.0,3.9697,3.9697,3.9697,3.9697,3.9697,3.9697,3.9297,3.8739,3.8739,3.8307,3.7648,3.6823,3.7064,3.7767,3.7767,3.7767,3.7899,3.8556,3.8281,3.7728,3.7545,3.8099,3.8544,3.7716,3.8596,3.9697,3.9697,3.9697,3.9697,3.9697,3.9697,3.9697,3.9697,3.9697,3.9697,3.9697,3.9697,3.9697,3.9697,3.9697,3.9584,3.9296,3.8944,3.8755,3.8755,3.8755,3.8755,3.8755,3.8755,3.8755,3.8755,3.8755,3.8755,3.8755,3.8755,3.8755,3.8755,3.8755,3.8906,3.9258,3.9258,3.9421,3.9697,3.9697,3.9697,3.1729,3.1494,3.0889,3.0889,3.0801,3.04,2.9189,2.8674,2.7832,2.5493,2.5205,2.5006,2.3838,2.5088,2.6582,2.7467,2.908,3.0527,3.1475,3.1982,3.2306,3.2355,3.2364,3.2364,3.2364,3.2364,3.3062,3.4845,3.3676,3.4146,3.7027,3.6314,3.6528,3.8164,3.9756,4.1276,4.2681,4.289,4.3002,4.3002,4.2524,4.2288,4.2175,4.1091,4.0444,4.0173,0.0,0.0,3.9388,3.9193,3.9219,3.9388,3.9193,3.8334,3.7225,3.7225,3.6406,3.5261,3.5068,3.5013,3.5041,3.5233,3.5288,3.5535,3.6811,3.6325,3.5535,3.6622,3.7186,3.7465,3.7252,3.8439,3.9697,3.9697,3.9697,3.9697,3.9697,3.9697,3.9697,3.9697,3.9697,3.9697,3.9697,3.9697,3.9697,3.9697,3.9697,3.9697,3.9697,3.9697,3.9697,3.9697,3.9697,3.9697,3.9697,3.9697,3.9697,3.9697,3.9697,3.9697,3.9697,3.9697,3.9697,3.9697,3.9697,3.9697,3.9697,3.9697,3.9697,3.9697,3.9697,3.9697,3.0892,3.1024,3.0889,3.0889,3.037,2.9676,2.9053,2.7532,2.5932,2.4775,2.4043,2.345,2.2842,2.442,2.6108,2.6992,2.8857,3.0635,3.1915,3.2412,3.2822,3.3164,3.3203,3.3203,3.3203,3.3203,0.0,0.0,0.0,3.4116,3.5985,3.5917,3.6528,3.8164,3.9756,4.0748,4.1007,4.2347,4.3002,4.3002,4.2914,4.2625,4.2187,4.1492,4.0261,3.8632,0.0,0.0,3.7796,3.658,3.6769,3.7769,3.6553,3.5902,3.5672,3.5672,3.5508,3.5134,3.3901,3.349,3.3687,3.4902,3.5288,3.5354,3.559,3.5508,3.5096,3.4125,3.5633,3.7213,3.5999,3.7675,3.9697,3.9697,3.9697,3.9697,3.9697,3.9697,3.9697,3.9697,3.9697,3.9697,3.9697,3.9697,3.9697,3.9697,3.9697,3.9697,3.9697,3.9697,3.9697,3.9697,3.9697,3.9697,3.9697,3.9697,3.9697,3.9697,3.9697,3.9697,3.9697,3.9697,3.9697,3.9697,3.9697,3.9697,3.9697,3.9697,3.9697,3.9697,3.9697,3.9697,3.0781,3.0889,3.0889,3.0889,3.0253,2.9246,2.79,2.6455,2.4883,2.3103,2.2617,2.2453,2.2227,2.3728,2.5308,2.6186,2.7959,2.9746,3.1319,3.1865,3.2451,3.3289,3.3386,3.3386,3.3386,3.3386,3.3386,0.0,0.0,3.3745,3.4518,3.455,3.5273,3.6892,3.7694,3.8912,4.0592,4.0534,4.1334,4.2974,4.1305,4.0817,4.1313,3.9655,3.838,3.7421,0.0,0.0,3.6298,3.559,3.5727,3.6271,3.5563,3.482,3.4153,3.4153,3.367,3.29,3.2207,3.1959,3.2064,3.2797,3.3013,3.3155,3.3912,3.3614,3.3013,3.3077,3.4114,3.5222,3.5288,3.6903,3.8739,3.953,3.9697,3.9697,3.9697,3.9697,3.9697,3.9697,3.9697,3.9697,3.9697,3.9697,3.9697,3.9697,3.9697,3.9697,3.9697,3.9697,3.9697,3.9697,3.9697,3.9697,3.9697,3.9697,3.9697,3.9697,3.9697,3.9697,3.9697,3.9697,3.9697,3.9697,3.9697,3.9697,3.9697,3.9697,3.9697,3.9697,3.9697,3.9697,3.0889,3.0889,3.0869,3.0771,2.9979,2.8679,2.6689,2.5352,2.3919,2.1669,2.1484,2.1777,2.1886,2.3047,2.4362,2.5499,2.6918,2.8555,3.0478,3.1191,3.1923,3.3113,3.3369,3.3386,3.3386,3.3386,0.0,0.0,0.0,0.0,3.3386,3.3386,3.3986,3.5242,3.5622,3.7002,3.954,3.8669,3.9464,4.1927,3.9405,3.8876,3.9995,3.7741,3.6544,3.6172,0.0,0.0,0.0,3.4498,3.4553,3.4792,3.447,3.3642,3.2644,3.2644,3.1911,3.0889,3.0889,3.0889,3.0889,3.0889,3.0889,3.1112,3.2283,3.1825,3.1131,3.2311,3.3077,3.3856,3.4996,3.6622,3.8269,3.9413,3.9697,3.9697,3.9697,3.9697,3.9697,3.9697,3.9697,3.9697,3.9697,3.9697,3.9697,3.9697,3.9697,3.9697,3.9697,3.9697,3.9697,3.9697,3.9697,3.9697,3.9697,3.9697,3.9697,3.9697,3.9697,3.9697,3.9697,3.9697,3.9697,3.9697,3.9697,3.9697,3.9697,3.9697,3.9697,3.9697,3.9697,3.9697,3.0889,3.0889,3.0791,3.0361,2.907,2.7506,2.6089,2.4196,2.244,2.1405,2.122,2.1396,2.1816,2.2324,2.3337,2.5376,2.6201,2.7432,2.9912,3.0986,3.1846,3.2744,3.3193,3.3386,3.3386,3.3386,3.3386,0.0,0.0,0.0,3.3386,3.3386,3.3481,3.3629,3.5026,3.5949,3.6254,3.7555,3.8342,3.8639,3.8342,3.8283,3.8398,3.7222,3.5968,3.4643,0.0,0.0,0.0,3.1854,3.2092,3.3162,3.1825,3.1218,3.1112,3.1112,3.1034,3.0889,3.0889,3.0889,3.0889,3.0889,3.0889,3.0918,3.1054,3.1005,3.0918,3.1054,3.3042,3.5134,3.5261,3.7382,3.9517,3.9671,3.9697,3.9697,3.9697,3.9697,3.9697,3.9697,3.9697,3.9697,3.9697,3.9697,3.9697,3.9697,3.9697,3.9697,3.9697,3.9697,3.9697,3.9697,3.9697,3.9697,3.9697,3.9697,3.9697,3.9697,3.9697,3.9697,3.9697,3.9697,3.9697,3.9697,3.9697,3.9697,3.9697,3.9697,3.9697,3.9697,3.9697,3.9697,3.0674,3.0889,3.0781,3.0312,2.8943,2.7282,2.5693,2.3877,2.2187,2.1064,2.083,2.0967,2.1386,2.161,2.2254,2.3861,2.4293,2.522,2.7578,2.8652,2.9805,3.1455,3.2256,3.2861,0.0,0.0,3.3386,0.0,0.0,0.0,3.3386,3.3386,3.3386,3.3386,3.4017,3.4819,3.5806,3.5458,3.6275,3.8194,3.6245,3.5827,3.6678,3.4842,3.3683,3.3055,0.0,0.0,0.0,3.1131,3.1247,3.172,3.1141,3.0889,3.0889,3.0889,3.0889,3.0889,3.0889,3.0889,3.0889,3.0889,3.0889,3.0889,3.0889,3.0889,3.1083,3.1959,3.3088,3.4376,3.6151,3.8137,3.9697,3.9697,3.9697,3.9697,3.9697,3.9697,3.9697,3.9697,3.9697,3.9697,3.9697,3.9697,3.9697,3.9697,3.9697,3.9697,3.9697,3.9697,3.9697,3.9697,3.9697,3.9697,3.9697,3.9697,3.9697,3.9697,3.9697,3.9697,3.9697,3.9697,3.9697,3.9697,3.9697,3.9697,3.9697,3.9697,3.9697,3.9697,3.9697,3.9697,3.0215,3.0693,3.0752,3.0156,2.8758,2.7114,2.5668,2.399,2.249,2.1629,2.1212,2.1141,2.156,2.1401,2.1609,2.2918,2.323,2.4069,2.6269,2.734,2.8582,3.0459,3.1445,3.2256,0.0,3.3271,0.0,0.0,0.0,0.0,0.0,3.3386,3.3386,3.3386,3.3386,3.3955,3.5088,3.3955,3.4539,3.6751,3.4476,3.3926,3.4841,3.3021,3.213,0.0,0.0,0.0,0.0,3.0889,3.0889,3.0889,3.0889,3.0889,3.0889,3.0889,3.0889,3.0889,3.0889,3.0889,3.0889,3.0889,3.0889,3.0889,3.0889,3.0889,3.1112,3.215,3.3077,3.4431,3.7385,3.8908,3.9697,3.9697,3.9697,3.9697,3.9697,3.9697,3.9697,3.9697,3.9697,3.9697,3.9697,3.9697,3.9697,3.9697,3.9697,3.9697,3.9697,3.9697,3.9697,3.9697,3.9697,3.9697,3.9697,3.9697,3.9697,3.9697,3.9697,3.9697,3.9697,3.9697,3.9697,3.9697,3.9697,3.9697,3.9697,3.9697,3.9697,3.9697,3.9697,3.9697,2.9491,3.0253,3.0674,2.9823,2.8291,2.6803,2.6062,2.4543,2.3318,2.3457,2.2683,2.2136,2.2607,2.1868,2.164,2.2971,2.3528,2.4541,2.6674,2.7744,2.8769,3.0049,3.0986,3.1699,3.2169,3.293,0.0,0.0,0.0,0.0,0.0,3.3386,3.3386,3.3386,3.3386,3.3418,3.3418,3.3418,3.3418,3.3449,3.3418,3.3203,3.2814,3.2394,0.0,0.0,0.0,0.0,0.0,3.0889,3.0889,3.0889,3.0889,3.0889,3.0889,3.0889,3.0889,3.0889,3.0889,3.0889,3.0889,3.0889,3.0889,3.0889,3.0889,3.0889,3.0889,3.0918,3.3042,3.5956,3.8921,3.9697,3.9697,3.9697,3.9697,3.9697,3.9697,3.9697,3.9697,3.9697,3.9697,3.9697,3.9697,3.9697,3.9697,3.9697,3.9697,3.9697,3.9697,3.9697,3.9697,3.9697,3.9697,3.9697,3.9697,3.9697,3.9697,3.9697,3.9697,3.9697,3.9697,3.9697,3.9697,3.9697,3.9697,3.9697,3.9697,3.9697,3.9697,3.9697,3.9697,3.9697,2.7549,2.8252,2.8503,2.7633,2.7112,2.6471,2.5276,2.4729,2.4277,2.3624,2.3239,2.2857,2.2322,2.1963,2.2159,2.3413,2.3724,2.4443,2.6328,2.7568,2.8662,2.9676,3.1572,3.2871,0.0,0.0,0.0,0.0,0.0,0.0,0.0,3.3386,3.3386,3.3386,3.3386,3.3386,3.3386,3.3386,3.3386,3.3386,3.3386,3.3203,3.2783,3.2394,0.0,0.0,0.0,0.0,0.0,3.0889,3.0889,3.0889,3.0889,3.0889,3.0889,3.0889,3.0889,3.0889,3.0889,3.0889,3.0889,3.0889,3.0889,3.0889,3.0889,3.0889,3.1112,3.2121,3.4542,3.7026,3.794,3.8934,3.9697,3.9697,3.9697,3.9697,3.9697,3.9697,3.9697,3.9697,3.9697,3.9697,3.9697,3.9697,3.9697,3.9697,3.9697,3.9697,3.9697,3.9697,3.9697,3.9697,3.9697,3.9697,3.9697,3.9697,3.9697,3.9697,3.9697,3.9697,3.9697,3.9697,3.9697,3.9697,3.9697,3.9697,3.9697,3.9697,3.9697,3.9697,3.9697,3.9697,2.5839,2.6836,2.7282,2.6562,2.6407,2.6186,2.5349,2.5194,2.5114,2.4716,2.4036,2.3312,2.2683,2.2089,2.1999,2.293,2.3203,2.4033,2.6103,2.707,2.822,2.9891,3.1777,0.0,0.0,0.0,0.0,0.0,0.0,0.0,0.0,0.0,3.3386,3.3386,3.3386,3.3386,3.3386,3.3386,3.3386,3.3386,3.3262,3.2969,3.2579,3.2119,0.0,0.0,0.0,0.0,0.0,3.0889,3.0889,3.0889,3.0889,3.0889,3.0889,3.0889,3.0889,3.0889,3.0889,3.0889,3.0889,3.0889,3.0889,3.0889,3.0889,3.0889,3.1228,3.269,3.4836,3.6784,3.7358,3.8596,3.9697,3.9697,3.9697,3.9697,3.9697,3.9697,3.9697,3.9697,3.9697,3.9697,3.9697,3.9697,3.9697,3.9697,3.9697,3.9697,3.9697,3.9697,3.9697,3.9697,3.9697,3.9697,3.9697,3.9697,3.9697,3.9697,3.9697,3.9697,3.9697,3.9697,3.9697,3.9697,3.9697,3.9697,3.9697,3.9697,3.9697,3.9697,3.9697,3.9697,0.0,2.5818,2.6669,2.6335,2.6056,2.5908,2.6038,2.585,0.0,2.633,2.4951,2.3627,2.3514,2.2309,2.1508,2.2004,2.2393,2.3545,2.6113,2.6611,2.7773,3.0644,3.1768,0.0,0.0,0.0,0.0,0.0,0.0,0.0,0.0,0.0,3.3386,3.3386,3.3357,3.3357,3.3386,3.3357,3.3347,3.3338,3.2949,3.2529,3.214,3.1699,0.0,0.0,0.0,0.0,0.0,3.0889,3.0889,3.0889,3.0889,3.0889,3.0889,3.0889,3.0889,3.0889,3.0889,3.0889,3.0889,3.0889,3.0889,3.0889,3.0889,3.0889,3.1228,3.269,3.4153,3.5645,3.7118,3.8596,3.9697,3.9697,3.9697,3.9697,3.9697,3.9697,3.9697,3.9697,3.9697,3.9697,3.9697,3.9697,3.9697,3.9697,3.9697,3.9697,3.9697,3.9697,3.9697,3.9697,3.9697,3.9697,3.9697,3.9697,3.9697,3.9697,3.9697,3.9697,3.9697,3.9697,3.9697,3.9697,3.9697,3.9697,3.9697,3.9697,3.9697,3.9697,3.9697,3.9697,2.2713,0.0,2.455,2.4565,2.5116,2.5681,0.0,2.6003,2.6188,2.5879,2.5438,2.4753,2.3552,2.3135,2.3156,2.372,2.3884,2.4766,2.7066,2.8816,3.0342,3.1739,3.2617,3.3164,0.0,0.0,0.0,0.0,0.0,0.0,0.0,0.0,3.3386,3.3386,3.3105,3.3096,3.3386,3.3105,3.2939,3.2939,3.2519,3.209,3.167,3.1562,0.0,0.0,0.0,0.0,0.0,3.0889,3.0889,3.0889,3.0889,3.0889,3.0889,3.0889,3.0889,3.0889,3.0889,3.0889,3.0889,3.0889,3.0889,3.0889,3.0889,3.0889,3.1228,3.269,3.4153,3.5645,3.7118,3.8596,3.9697,3.9697,3.9697,3.9697,3.9697,3.9697,3.9697,3.9697,3.9697,3.9697,3.9697,3.9697,3.9697,3.9697,3.9697,3.9697,3.9697,3.9697,3.9697,3.9697,3.9697,3.9697,3.9697,3.9697,3.9697,3.9697,3.9697,3.9697,3.9697,3.9697,3.9697,3.9697,3.9697,3.9697,3.9697,3.9697,3.9697,3.9697,3.9697,3.9697,2.1951,2.3228,2.4274,2.4359,2.4989,2.56,2.56,2.5652,2.5624,2.531,2.5091,2.4788,2.4196,2.3557,2.3438,2.4435,2.4323,2.5019,2.7614,3.0018,3.168,3.2149,3.291,3.3386,0.0,0.0,0.0,0.0,0.0,0.0,0.0,0.0,3.3135,3.3135,3.2725,3.2715,3.3135,3.2715,3.251,3.2531,3.208,3.1748,3.1484,3.1318,0.0,0.0,0.0,0.0,3.0889,3.0889,3.0889,3.0889,3.0889,3.0889,3.0889,3.0889,3.0889,3.0889,3.0889,3.0889,3.0889,3.0889,3.0889,3.0889,3.0889,3.0889,3.1054,3.1883,3.3642,3.548,3.6271,3.8084,3.9697,3.9697,3.9697,3.9697,3.9697,3.9697,3.9697,3.9697,3.9697,3.9697,3.9697,3.9697,3.9697,3.9697,3.9697,3.9697,3.9697,3.9697,3.9697,3.9697,3.9697,3.9697,3.9697,3.9697,3.9697,3.9697,3.9697,3.9697,3.9697,3.9697,3.9697,3.9697,3.9697,3.9697,3.9697,3.9697,3.9697,3.9697,3.9697,3.9697,2.2108,2.3723,2.5122,2.4857,2.5264,2.5737,2.5737,2.5316,2.4929,2.4929,2.4598,2.4418,2.4784,2.3843,2.3406,2.4625,2.4638,2.5439,2.8193,3.0625,3.2149,3.2276,3.2949,0.0,0.0,0.0,0.0,0.0,0.0,0.0,0.0,0.0,0.0,3.2695,3.2325,3.2267,3.2598,3.2276,3.2101,3.2091,3.1631,3.1426,3.1406,3.1055,0.0,0.0,0.0,0.0,3.0889,3.0889,3.0889,3.0889,3.0889,3.0889,3.0889,3.0889,3.0889,3.0889,3.0889,3.0889,3.0889,3.0889,3.0889,3.0889,3.0889,3.0889,3.0947,3.116,3.3212,3.5398,3.5836,3.782,3.9697,3.9697,3.9697,3.9697,3.9697,3.9697,3.9697,3.9697,3.9697,3.9697,3.9697,3.9697,3.9697,3.9697,3.9697,3.9697,3.9697,3.9697,3.9697,3.9697,3.9697,3.9697,3.9697,3.9697,3.9697,3.9697,3.9697,3.9697,3.9697,3.9697,3.9697,3.9697,3.9697,3.9697,3.9697,3.9697,3.9697,3.9697,3.9697,3.9697,2.3735,2.5616,2.6582,2.515,2.5582,2.6357,2.6357,2.5899,2.5473,2.5473,2.5071,2.4587,2.422,2.4247,2.4462,2.4957,2.6482,2.8144,0.0,0.0,3.1885,3.2607,0.0,0.0,0.0,0.0,0.0,0.0,0.0,0.0,0.0,0.0,0.0,3.2296,3.1846,3.165,3.1719,3.165,3.1621,3.1611,3.1191,3.0986,3.0986,3.0918,3.0889,0.0,0.0,0.0,3.0889,3.0889,3.0889,3.0889,3.0889,3.0889,3.0889,3.0889,3.0889,3.0889,3.0889,3.0889,3.0889,3.0889,3.0889,3.0889,3.0889,3.0889,3.117,3.2426,3.3996,3.5875,3.8372,3.9362,3.9697,3.9697,3.9697,3.9697,3.9697,3.9697,3.9697,3.9697,3.9697,3.9697,3.9697,3.9697,3.9697,3.9697,3.9697,3.9697,3.9697,3.9697,3.9697,3.9697,3.9697,3.9697,3.9697,3.9697,3.9697,3.9697,3.9697,3.9697,3.9697,3.9697,3.9697,3.9697,3.9697,3.9697,3.9697,3.9697,3.9697,3.9697,3.9697,3.9697,2.3042,2.4666,2.5837,2.5343,2.6527,2.7563,2.6711,2.58,2.499,2.4378,2.4306,2.4442,2.4717,2.506,2.5644,2.6659,0.0,2.9383,3.042,3.1318,3.21,0.0,0.0,0.0,0.0,0.0,0.0,0.0,0.0,0.0,0.0,0.0,0.0,0.0,3.1406,3.1182,3.1182,3.1182,3.1182,3.1172,3.0986,3.0889,3.0889,3.0889,3.0889,0.0,0.0,3.0889,3.0889,3.0889,3.0889,3.0889,3.0889,3.0889,3.0889,3.0889,3.0889,3.0889,3.0889,3.0889,3.0889,3.0889,3.0889,3.0889,3.0889,3.0889,3.1228,3.269,3.4153,3.5793,3.794,3.9103,3.9697,3.9697,3.9697,3.9697,3.9697,3.9697,3.9697,3.9697,3.9697,3.9697,3.9697,3.9697,3.9697,3.9697,3.9697,3.9697,3.9697,3.9697,3.9697,3.9697,3.9697,3.9697,3.9697,3.9697,3.9697,3.9697,3.9697,3.9697,3.9697,3.9697,3.9697,3.9697,3.9697,3.9697,3.9697,3.9697,3.9697,3.9697,3.9697,3.9697,2.2824,2.3844,2.4868,2.5774,2.7281,2.8226,2.7057,2.6019,2.5073,2.4265,2.436,2.4808,2.5527,2.6101,2.6944,2.8366,2.9344,3.0175,3.0928,3.1631,0.0,0.0,0.0,0.0,0.0,0.0,0.0,0.0,0.0,0.0,0.0,0.0,0.0,0.0,3.1055,3.0889,3.0889,3.0889,3.0889,3.0889,3.0889,3.0889,3.0889,3.0889,3.0889,3.0889,3.0889,3.0889,3.0889,3.0889,3.0889,3.0889,3.0889,3.0889,3.0889,3.0889,3.0889,3.0889,3.0889,3.0889,3.0889,3.0889,3.0889,3.0889,3.0889,3.0889,3.1276,3.3116,3.4431,3.5645,3.7118,3.8596,3.9697,3.9697,3.9697,3.9697,3.9697,3.9697,3.9697,3.9697,3.9697,3.9697,3.9697,3.9697,3.9697,3.9697,3.9697,3.9697,3.9697,3.9697,3.9697,3.9697,3.9697,3.9697,3.9697,3.9697,3.9697,3.9697,3.9697,3.9697,3.9697,3.9697,3.9697,3.9697,3.9697,3.9697,3.9697,3.9697,3.9697,3.9697,3.9697,3.9697,2.4795,2.4818,2.4716,2.6699,2.7298,2.7444,2.7589,2.7175,2.6799,2.7047,2.6694,2.6331,2.6404,2.7361,2.8437,2.9344,3.0243,3.0957,3.1406,0.0,0.0,0.0,0.0,0.0,0.0,0.0,0.0,0.0,0.0,0.0,0.0,0.0,0.0,0.0,0.0,3.0889,3.0889,3.0889,3.0889,3.0889,3.0889,3.0889,3.0889,3.0889,3.0889,3.0889,3.0889,3.0889,3.0889,3.0889,3.0889,3.0889,3.0889,3.0889,3.0889,3.0889,3.0889,3.0889,3.0889,3.0889,3.0889,3.0889,3.0889,3.0889,3.0889,3.0889,3.1498,3.4331,3.5217,3.5645,3.7118,3.8596,3.9697,3.9697,3.9697,3.9697,3.9697,3.9697,3.9697,3.9697,3.9697,3.9697,3.9697,3.9697,3.9697,3.9697,3.9697,3.9697,3.9697,3.9697,3.9697,3.9697,3.9697,3.9697,3.9697,3.9697,3.9697,3.9697,3.9697,3.9697,3.9697,3.9697,3.9697,3.9697,3.9697,3.9697,3.9697,3.9697,3.9697,3.9697,3.9697,3.9697,2.357,2.3547,2.3453,2.528,2.5929,2.6309,2.7042,2.6978,2.6776,2.6792,2.6589,0.0,0.0,0.0,2.8965,2.9814,3.0478,3.1035,0.0,0.0,0.0,0.0,0.0,0.0,0.0,0.0,0.0,0.0,0.0,0.0,0.0,0.0,0.0,0.0,0.0,3.0889,3.0889,3.0889,3.0889,3.0889,3.0889,3.0889,3.0889,3.0889,3.0889,3.0889,3.0889,3.0889,3.0889,3.0889,3.0889,3.0889,3.0889,3.0889,3.0889,3.0889,3.0889,3.0889,3.0889,3.0889,3.0889,3.0889,3.0889,3.0889,3.0889,3.0889,3.1334,3.336,3.4598,3.5836,3.8255,3.9271,3.9697,3.9697,3.9697,3.9697,3.9697,3.9697,3.9697,3.9697,3.9697,3.9697,3.9697,3.9697,3.9697,3.9697,3.9697,3.9697,3.9697,3.9697,3.9697,3.9697,3.9697,3.9697,3.9697,3.9697,3.9697,3.9697,3.9697,3.9697,3.9697,3.9697,3.9697,3.9697,3.9697,3.9697,3.9697,3.9697,3.9697,3.9697,3.9697,3.9697,2.2674,2.2328,2.2117,2.3889,2.4412,2.4888,2.6422,2.6919,2.7068,2.7172,2.7187,2.7412,2.8161,0.0,0.0,0.0,3.0586,0.0,0.0,0.0,0.0,0.0,0.0,0.0,0.0,0.0,0.0,0.0,0.0,0.0,0.0,0.0,0.0,0.0,0.0,0.0,3.0889,3.0889,3.0889,3.0889,3.0889,3.0889,3.0889,3.0889,3.0889,3.0889,3.0889,3.0889,3.0889,3.0889,3.0889,3.0889,3.0889,3.0889,3.0889,3.0889,3.0889,3.0889,3.0889,3.0889,3.0889,3.0889,3.0889,3.0889,3.0889,3.0889,3.1305,3.3247,3.4515,3.5984,3.8921,3.9697,3.9697,3.9697,3.9697,3.9697,3.9697,3.9697,3.9697,3.9697,3.9697,3.9697,3.9697,3.9697,3.9697,3.9697,3.9697,3.9697,3.9697,3.9697,3.9697,3.9697,3.9697,3.9697,3.9697,3.9697,3.9697,3.9697,3.9697,3.9697,3.9697,3.9697,3.9697,3.9697,3.9697,3.9697,3.9697,3.9697,3.9697,3.9697,3.9697,3.9697,2.2639,2.1469,2.0873,2.2802,2.291,2.3229,2.5908,2.7173,2.8017,2.8753,2.8898,2.9062,2.952,2.9598,0.0,0.0,0.0,0.0,0.0,0.0,0.0,0.0,0.0,0.0,0.0,0.0,0.0,0.0,0.0,0.0,0.0,0.0,0.0,0.0,0.0,0.0,3.0889,3.0889,3.0889,3.0889,3.0889,3.0889,3.0889,3.0889,3.0889,3.0889,3.0889,3.0889,3.0889,3.0889,3.0889,3.0889,3.0889,3.0889,3.0889,3.0889,3.0889,3.0889,3.0889,3.0889,3.0889,3.0889,3.0889,3.0889,3.0889,3.0889,3.1498,3.4442,3.53,3.5984,3.8921,3.9697,3.9697,3.9697,3.9697,3.9697,3.9697,3.9697,3.9697,3.9697,3.9697,3.9697,3.9697,3.9697,3.9697,3.9697,3.9697,3.9697,3.9697,3.9697,3.9697,3.9697,3.9697,3.9697,3.9697,3.9697,3.9697,3.9697,3.9697,3.9697,3.9697,3.9697,3.9697,3.9697,3.9697,3.9697,3.9697,3.9697,3.9697,3.9697,3.9697,3.9697,2.198,2.1636,2.1432,2.2473,2.3539,2.4771,2.6463,2.7301,2.8136,2.9518,2.9814,2.9766,2.9627,2.9843,0.0,0.0,0.0,0.0,0.0,0.0,0.0,0.0,0.0,0.0,0.0,0.0,0.0,0.0,0.0,0.0,0.0,0.0,0.0,0.0,0.0,0.0,3.0889,3.0889,3.0889,3.0889,3.0889,3.0889,3.0889,3.0889,3.0889,3.0889,3.0889,3.0889,3.0889,3.0889,3.0889,3.0889,3.0889,3.0889,3.0889,3.0889,3.0889,3.0889,3.0889,3.0889,3.0889,3.0889,3.0889,3.0889,3.0889,3.0889,3.1305,3.3219,3.4487,3.5727,3.7663,3.8908,3.9697,3.9697,3.9697,3.9697,3.9697,3.9697,3.9697,3.9697,3.9697,3.9697,3.9697,3.9697,3.9697,3.9697,3.9697,3.9697,3.9697,3.9697,3.9697,3.9697,3.9697,3.9697,3.9697,3.9697,3.9697,3.9697,3.9697,3.9697,3.9697,3.9697,3.9697,3.9697,3.9697,3.9697,3.9697,3.9697,3.9697,3.9697,3.9697,3.9697,2.2181,2.2079,2.1875,2.2798,2.4076,2.5571,2.7353,2.8242,2.9041,3.0225,3.0322,3.0176,3.0136,3.0156,0.0,0.0,0.0,0.0,0.0,0.0,0.0,0.0,0.0,0.0,0.0,0.0,0.0,0.0,0.0,0.0,0.0,0.0,0.0,0.0,0.0,0.0,3.0889,3.0889,3.0889,3.0889,3.0889,3.0889,3.0889,3.0889,3.0889,3.0889,3.0889,3.0889,3.0889,3.0889,3.0889,3.0889,3.0889,3.0889,3.0889,3.0889,3.0889,3.0889,3.0889,3.0889,3.0889,3.0889,3.0889,3.0889,3.0889,3.1305,3.2074,3.3557,3.4598,3.5781,3.7834,3.8163,3.8255,3.9413,3.9697,3.9697,3.9697,3.9697,3.9697,3.9697,3.9697,3.9697,3.9697,3.9697,3.9697,3.9697,3.9697,3.9697,3.9697,3.9697,3.9697,3.9697,3.9697,3.9697,3.9697,3.9697,3.9697,3.9697,3.9697,3.9697,3.9697,3.9697,3.9697,3.9697,3.9697,3.9697,3.9697,3.9697,3.9697,3.9697,3.9697,3.9697,2.2554,2.2469,2.2292,2.3499,2.4633,2.6069,2.8437,2.9648,3.0381,3.0801,0.0,3.0391,3.081,3.0547,0.0,0.0,0.0,0.0,0.0,0.0,0.0,0.0,0.0,0.0,0.0,0.0,0.0,0.0,0.0,0.0,0.0,0.0,0.0,0.0,0.0,0.0,3.0889,3.0889,3.0889,0.0,3.0889,3.0889,3.0889,3.0889,3.0889,3.0889,3.0889,3.0889,3.0889,3.0889,3.0889,3.0889,3.0889,3.0889,3.0889,3.0889,3.0889,3.0889,3.0889,3.0889,3.0889,3.0889,3.0889,3.0889,3.0889,3.1854,3.3191,3.4526,3.4996,3.5727,3.8398,3.721,3.5984,3.8673,3.931,3.931,3.931,3.931,3.9336,3.9465,3.9504,3.9555,3.9671,3.9697,3.9697,3.9697,3.9697,3.9697,3.9697,3.9478,3.9388,3.9671,3.9697,3.9697,3.9697,3.9697,3.9697,3.9697,3.9697,3.9697,3.9697,3.9697,3.9697,3.9697,3.9697,3.9697,3.9697,3.9697,3.9697,3.9697,3.9697,3.9697,2.0141,2.135,2.2939,2.3644,2.5957,2.832,2.9256,3.0107,3.0771,3.0869,3.081,3.0771,3.0869,0.0,0.0,0.0,0.0,0.0,0.0,0.0,0.0,0.0,0.0,0.0,0.0,0.0,0.0,0.0,0.0,0.0,0.0,0.0,0.0,0.0,0.0,3.0889,3.0889,3.0889,3.0889,0.0,3.0889,3.0889,3.0889,3.0889,3.0889,3.0889,3.0889,3.0889,3.0889,3.0889,3.0889,3.0889,3.0889,3.0889,3.0889,3.0889,3.0889,3.0889,3.0889,3.0889,3.0889,3.0889,3.0889,3.0889,3.0889,3.1112,3.1441,3.1777,3.2672,3.3705,3.4348,3.4902,3.5464,3.6092,3.6255,3.6255,3.6255,3.6255,3.658,3.7743,3.7967,3.8334,3.9504,3.9697,3.9697,3.9697,3.9697,3.9697,3.9697,3.7675,3.713,3.9439,3.9697,3.9697,3.9697,3.9697,3.9697,3.9697,3.9697,3.9697,3.9697,3.9697,3.9697,3.9697,3.9697,3.9697,3.9697,3.9697,3.9697,3.9697,3.9697,3.9697,2.0695,2.1977,2.3469,2.4947,2.7139,2.9033,2.95,3.0106,3.0625,3.084,3.0889,3.0889,3.0889,0.0,0.0,0.0,0.0,0.0,0.0,0.0,0.0,0.0,0.0,0.0,0.0,0.0,0.0,0.0,0.0,0.0,0.0,0.0,0.0,0.0,3.0889,3.0889,3.0889,3.0889,3.0889,3.0889,3.0889,3.0889,3.0889,3.0889,3.0889,3.0889,3.0889,3.0889,3.0889,3.0889,3.0889,3.0889,3.0889,3.0889,3.0889,3.0889,3.0889,3.0889,3.0889,3.0889,3.0889,3.0889,3.0889,3.0889,3.0889,3.1383,3.1959,3.1959,3.2501,3.3265,3.3968,3.367,3.3371,3.408,3.4792,3.5288,3.5288,3.5288,3.5727,3.7225,3.7492,3.7967,3.9439,3.9697,3.9697,3.9697,3.9697,3.9697,3.9697,3.8372,3.6915,3.5617,3.8017,3.9697,3.9697,3.9697,3.9697,3.9697,3.7049,3.612,3.7515,3.8947,3.9697,3.9697,3.9697,3.9697,3.9697,3.9697,3.9697,3.9697,3.9697,3.9697,2.1126,2.2382,2.3694,2.626,2.7835,2.8926,2.9355,2.9813,3.0225,3.0674,3.083,3.0889,0.0,0.0,0.0,0.0,0.0,0.0,0.0,0.0,0.0,0.0,0.0,0.0,0.0,0.0,0.0,0.0,0.0,0.0,0.0,0.0,3.0889,3.0889,3.0889,3.0889,3.0889,3.0889,3.0889,3.0889,3.0889,3.0889,3.0889,3.0889,3.0889,3.0889,3.0889,3.0889,3.0889,3.0889,3.0889,3.0889,3.0889,3.0889,3.0889,3.0889,3.0889,3.0889,3.0889,3.0889,3.0889,3.0889,3.0889,3.0889,3.0889,3.1738,3.2719,3.2719,3.2719,3.2992,3.4219,3.274,3.1228,3.2426,3.3631,3.4526,3.4526,3.4526,3.5041,3.6784,3.753,3.8269,3.9491,3.9697,3.9697,3.9697,3.883,3.8176,3.8176,3.8176,3.631,3.1412,3.5261,3.8176,3.8176,3.8176,3.8176,3.8176,3.3596,3.1998,3.4442,3.7542,3.9219,3.9336,3.9581,3.9697,3.9697,3.9697,3.9697,3.9697,3.9697,3.9697,1.7183,1.9739,2.3223,2.582,2.7432,2.8486,2.8906,2.9346,2.9803,0.0,3.0605,3.0889,0.0,0.0,0.0,0.0,0.0,0.0,0.0,0.0,0.0,0.0,0.0,0.0,0.0,0.0,0.0,0.0,0.0,0.0,0.0,3.0889,3.0889,3.0889,3.0889,3.0889,3.0889,3.0889,3.0889,3.0889,3.0889,3.0889,3.0889,3.0889,3.0889,3.0889,3.0889,3.0889,3.0889,3.0889,3.0889,3.0889,3.0889,3.0889,3.0889,3.0889,3.0889,3.0889,3.0889,3.0889,3.0889,3.0889,3.0889,3.0889,3.0889,3.1025,3.1189,3.1189,3.1189,3.1247,3.1441,3.1199,3.0947,3.1141,3.1325,3.1498,3.1498,3.1498,3.2293,3.5068,3.7648,3.9465,3.9671,3.9697,3.9697,3.9697,3.5354,3.2084,3.2084,3.2084,3.1777,3.0976,3.1604,3.2084,3.2084,3.2084,3.2084,3.2084,3.1334,3.1093,3.1469,3.5101,3.732,3.7769,3.9051,3.9697,3.9697,3.9697,3.9697,3.9697,3.9697,3.9697,1.8351,2.0527,2.3054,2.5406,2.6807,2.7754,2.8418,2.8896,2.9326,2.9784,3.0038,0.0,0.0,0.0,0.0,0.0,0.0,0.0,0.0,0.0,0.0,0.0,0.0,0.0,0.0,0.0,0.0,0.0,0.0,0.0,3.0889,3.0889,3.0889,3.0889,3.0889,0.0,3.0889,3.0889,3.0889,3.0889,3.0889,3.0889,3.0889,3.0889,3.0889,3.0889,3.0889,3.0889,3.0889,3.0889,3.0889,3.0889,3.0889,3.0889,3.0889,3.0889,3.0889,3.0889,3.0889,3.0889,3.0889,3.0889,3.0889,3.0889,3.0889,3.0889,3.0889,3.0889,3.0889,3.0889,3.0889,3.0889,3.0889,3.0889,3.0889,3.0889,3.0889,3.0889,3.1614,3.3996,3.6395,3.8374,3.9504,3.9697,3.8594,3.5261,3.255,3.0889,3.0889,3.0889,3.0889,3.0889,3.0889,3.0889,3.0889,3.0889,3.0889,3.0889,3.0889,3.0889,3.0889,3.4631,3.6572,3.6271,3.853,3.9697,3.9697,3.9697,3.9697,3.9697,3.9697,3.9697,1.8894,2.0459,2.1923,2.4303,2.5698,2.6777,2.7744,2.8291,2.875,0.0,2.9432,0.0,0.0,0.0,0.0,0.0,0.0,0.0,0.0,0.0,0.0,0.0,0.0,0.0,0.0,0.0,0.0,0.0,0.0,0.0,3.0713,3.0615,3.0557,3.0557,3.0557,3.0557,3.0557,3.0664,3.0771,3.0889,3.0889,3.0889,3.0889,3.0889,3.0889,3.0889,3.0889,3.0889,3.0889,3.0889,3.0889,3.0889,3.0889,3.0889,3.0889,3.0889,3.0889,3.0889,3.0889,3.0889,3.0889,3.0889,3.0889,3.0889,3.0889,3.0889,3.0889,3.0889,3.0889,3.0889,3.0889,3.0889,3.0889,3.0889,3.0889,3.0889,3.0889,3.1189,3.193,3.349,3.5172,3.7067,3.9297,3.8451,3.5984,3.1556,3.0889,3.0889,3.0889,3.0889,3.0889,3.0889,3.0889,3.0889,3.0889,3.0889,3.0889,3.0889,3.0889,3.0889,3.0889,3.4058,3.5622,3.5316,3.7462,3.8778,3.9129,3.9129,3.9129,3.9141,3.953,3.9697,1.6211,1.7552,1.8955,2.1913,2.3935,2.5532,2.6787,2.7438,2.7995,2.8779,0.0,0.0,0.0,0.0,0.0,0.0,0.0,0.0,0.0,0.0,0.0,0.0,0.0,0.0,0.0,0.0,0.0,0.0,0.0,0.0,3.0234,2.9882,2.9667,2.9667,2.9667,2.9667,2.9667,3.0058,3.0459,3.0889,3.0889,3.0889,3.0889,3.0889,3.0889,3.0889,3.0889,3.0889,3.0889,3.0889,3.0889,3.0889,3.0889,3.0889,3.0889,3.0889,3.0889,3.0889,3.0889,3.0889,3.0889,3.0889,3.0889,3.0889,3.0889,3.0889,3.0889,3.0889,3.0889,3.0889,3.0889,3.0889,3.0889,3.0889,3.0889,3.0889,3.0889,3.2016,3.3162,3.3677,3.4653,3.6298,3.9193,3.5052,3.1247,3.0947,3.0889,3.0889,3.0889,3.0889,3.0889,3.0889,3.0889,3.0889,3.0889,3.0889,3.0889,3.0889,3.0889,3.0889,3.0889,3.2454,3.3929,3.5261,3.5453,3.6217,3.7598,3.7598,3.7598,3.7663,3.9051,3.9697,1.5474,1.6713,1.8193,2.0674,2.2353,2.376,2.5025,2.6123,2.7037,2.7578,0.0,0.0,0.0,0.0,0.0,0.0,0.0,0.0,0.0,0.0,0.0,0.0,0.0,0.0,0.0,0.0,0.0,0.0,0.0,0.0,2.9823,2.9676,2.9598,2.9598,2.9598,2.9598,2.9598,2.9745,2.9911,3.0067,3.0067,3.0067,3.0067,3.0067,3.0067,3.0067,3.0067,3.0371,3.0869,3.0566,3.0625,3.0889,3.0889,3.0889,3.0889,3.0889,3.0889,3.0889,3.0889,3.0889,3.0889,3.0889,3.0889,3.0889,3.0889,3.0889,3.0889,3.0889,3.0889,3.0889,3.0889,3.0889,3.0889,3.0889,3.0889,3.0889,3.0889,3.1334,3.1738,3.1901,3.2236,3.2825,3.3866,3.2293,3.0889,3.0889,3.0889,3.0889,3.0889,3.0889,3.0889,3.0889,3.0889,3.0889,3.0889,3.0889,3.0889,3.0889,3.0889,3.0889,3.0889,3.2311,3.335,3.3884,3.3884,3.5085,3.7492,3.7492,3.7492,3.7557,3.9025,3.9193,1.4605,1.5723,1.7236,1.9385,2.0684,2.1953,2.3942,2.499,2.5762,2.6621,0.0,0.0,0.0,0.0,0.0,0.0,0.0,0.0,0.0,0.0,0.0,0.0,0.0,0.0,0.0,0.0,0.0,0.0,0.0,0.0,2.9383,2.9246,2.9168,2.9168,2.9168,2.9237,2.9346,2.9383,2.9424,2.9598,2.9598,2.9598,2.9598,2.9598,2.9598,2.9588,2.9442,2.9766,3.0458,3.0146,3.0254,3.0664,3.0664,3.0752,3.0889,3.0889,3.0889,3.0889,3.0889,3.0889,3.0889,3.0889,3.0889,3.0889,3.0889,3.0889,3.0889,3.0889,3.0889,3.0889,3.0889,3.0889,3.0889,3.0889,3.0889,3.0889,3.0889,3.0889,3.0889,3.0889,3.0889,3.0889,3.0889,3.0889,3.0889,3.0889,3.0889,3.0889,3.0889,3.0889,3.0889,3.0889,3.0889,3.0889,3.0889,3.0889,3.0889,3.0889,3.0889,3.0889,3.0889,3.1854,3.2587,3.3077,3.2605,3.3575,3.6004,3.6004,3.6287,3.6784,3.7755,3.7861,0.0,0.0,0.0,1.7983,1.8849,2.0097,2.3445,0.0,2.416,2.5952,0.0,0.0,0.0,0.0,0.0,0.0,0.0,0.0,0.0,0.0,0.0,0.0,0.0,0.0,0.0,0.0,0.0,0.0,0.0,2.8869,2.8869,2.8516,2.8291,2.8291,2.8291,2.8486,2.8869,2.8869,2.9111,2.9559,2.9559,2.9559,2.9559,2.9559,2.9559,2.954,2.9082,2.9141,2.9559,2.9569,2.9823,3.0176,3.0176,3.0459,3.0869,3.0869,3.0879,3.0889,3.0889,3.0889,3.0889,3.0889,3.0889,3.0889,3.0889,3.0889,3.0889,3.0889,3.0889,3.0889,3.0889,3.0889,3.0889,3.0889,3.0889,3.0889,3.0889,3.0889,3.0889,3.0889,3.0889,3.0889,3.0889,3.0889,3.0889,3.0889,3.0889,3.0889,3.0889,3.0889,3.0889,3.0889,3.0889,3.0889,3.0889,3.0889,3.0889,3.0889,3.0889,3.0889,3.0889,3.0889,3.1575,3.3021,3.1633,3.1604,3.3049,3.3077,3.3856,3.5233,3.5233,3.5825,1.3571,0.0,0.0,0.0,0.0,0.0,0.0,0.0,2.1221,2.3596,0.0,0.0,0.0,0.0,0.0,0.0,0.0,0.0,0.0,0.0,0.0,0.0,0.0,0.0,0.0,0.0,0.0,0.0,2.8535,2.8467,2.8467,2.8359,2.8291,2.8291,2.8291,2.835,2.8467,2.8467,2.8525,2.8643,2.8643,2.8643,2.8643,2.8643,2.8643,2.8643,2.8516,2.8535,2.8672,2.8975,2.9355,2.9774,2.9774,3.001,3.0391,3.0391,3.0605,3.0889,3.0889,3.0889,3.0889,3.0889,3.0889,3.0889,3.0889,3.0889,3.0889,3.0889,3.0889,3.0889,3.0889,3.0889,3.0889,3.0889,3.0889,3.0889,3.0889,3.0889,3.0889,3.0889,3.0889,3.0889,3.0889,3.0889,3.0889,3.0889,3.0889,3.0889,3.0889,3.0889,3.0889,3.0889,3.0889,3.0889,3.0889,3.0889,3.0889,3.0889,3.0889,3.0889,3.0889,3.0889,3.1083,3.1488,3.1112,3.1112,3.1527,3.2587,3.3293,3.3715,3.4069,3.5879,1.4199,0.0,0.0,0.0,0.0,0.0,0.0,1.9074,0.0,0.0,0.0,0.0,0.0,0.0,0.0,0.0,0.0,0.0,0.0,0.0,0.0,0.0,0.0,0.0,0.0,0.0,0.0,0.0,2.822,2.8291,2.8291,2.8291,2.8291,2.8291,2.8291,2.8291,2.8291,2.8291,2.8291,2.8291,2.8291,2.8291,2.8291,2.8291,2.8291,2.8291,2.8291,2.8291,2.831,2.8555,2.8916,2.9297,2.9297,2.956,2.9961,3.0137,3.0371,3.0635,3.082,3.0889,3.0889,3.0889,3.0889,3.0889,3.0889,3.0889,3.0889,3.0889,3.0889,3.0889,3.0889,3.0889,3.0889,3.0889,3.0889,3.0889,3.0889,3.0889,3.0889,3.0889,3.0889,3.0889,3.0889,3.0889,3.0889,3.0889,3.0889,3.0889,3.0889,3.0889,3.0889,3.0889,3.0889,3.0889,3.0889,3.0889,3.0889,3.0889,3.0889,3.0889,3.0889,3.0889,3.0889,3.0889,3.0889,3.0889,3.0889,3.1767,3.2178,3.2264,3.4974,3.619,1.5239,1.5312,0.0,0.0,0.0,0.0,1.8674,1.8849,1.9191,0.0,0.0,0.0,0.0,0.0,0.0,0.0,0.0,0.0,0.0,0.0,0.0,0.0,0.0,0.0,0.0,0.0,2.7624,2.7624,2.7939,2.8154,2.8154,2.8154,2.8154,2.8154,2.8203,2.8223,2.8223,2.8271,2.8291,2.8291,2.8291,2.8291,2.8291,2.8291,2.8291,2.8291,2.8291,2.8291,2.8291,2.8291,2.8516,2.882,2.882,2.9121,2.9569,2.9912,3.0088,3.0195,3.0654,3.0781,3.0752,3.0801,3.081,3.081,3.081,3.085,3.0889,3.0889,3.0889,3.0889,3.0889,3.0889,3.0889,3.0889,3.0889,3.0889,3.0889,3.0889,3.0889,3.0889,3.0889,3.0889,3.0889,3.0889,3.0889,3.0889,3.0889,3.0889,3.0889,3.0889,3.0889,3.0889,3.0889,3.0889,3.0889,3.0889,3.0889,3.0889,3.0889,3.0889,3.0889,3.0889,3.0889,3.0889,3.0889,3.0889,3.0889,3.0889,3.0889,3.1034,3.6283,3.6255,1.6479,1.667,1.6881,1.6344,0.0,0.0,1.5962,1.6449,1.7357,0.0,0.0,0.0,0.0,0.0,0.0,0.0,0.0,0.0,0.0,0.0,0.0,0.0,0.0,0.0,0.0,0.0,2.7139,2.7139,2.7217,2.724,2.724,2.724,2.724,2.724,2.7607,2.7809,2.7809,2.8151,2.8291,2.8291,2.8291,2.8291,2.8291,2.8291,2.8291,2.8291,2.8291,2.8291,2.8291,2.8291,2.834,2.8418,2.8418,2.8672,2.9053,2.9113,2.9385,2.9784,3.0185,3.0107,2.9911,3.0225,3.0332,3.0332,3.0332,3.0596,3.0889,3.0889,3.0889,3.0889,3.0889,3.0889,3.0889,3.0889,3.0889,3.0889,3.0889,3.0889,3.0889,3.0889,3.0889,3.0889,3.0889,3.0889,3.0889,3.0889,3.0889,3.0889,3.0889,3.0889,3.0889,3.0889,3.0889,3.0889,3.0889,3.0889,3.0889,3.0889,3.0889,3.0889,3.0889,3.0889,3.0889,3.0889,3.0889,3.0889,3.0889,3.0889,3.0889,3.0918,3.2084,3.4553,1.7532,1.7513,1.7588,1.7165,0.0,0.0,0.0,1.6074,1.6547,1.8291,1.7642,0.0,0.0,0.0,0.0,0.0,0.0,0.0,0.0,0.0,0.0,0.0,0.0,0.0,0.0,0.0,2.6528,2.6982,2.6986,2.6986,2.6986,2.6986,2.6986,2.6986,2.7226,2.7344,2.7344,2.7549,2.7656,2.7656,2.7881,2.8005,2.8015,2.822,2.8291,2.8291,2.8291,2.8291,2.8291,2.8291,2.8291,2.8291,2.8291,2.8418,2.8633,2.8838,2.9053,2.9307,2.9736,2.9774,2.9627,2.9843,3.0029,3.0195,3.0195,3.0518,3.0889,3.0889,3.0889,3.0889,3.0889,3.0889,3.0889,3.0889,3.0889,3.0889,3.0889,3.0889,3.0889,3.0889,3.0889,3.0889,3.0889,3.0889,3.0889,3.0889,3.0889,3.0889,3.0889,3.0889,3.0889,3.0889,3.0889,3.0889,3.0889,3.0889,3.0889,3.0889,3.0889,3.0889,3.0889,3.0889,3.0889,3.0889,3.0889,3.0889,3.0889,3.0889,3.0889,3.0889,3.0889,3.3258,0.0,0.0,0.0,0.0,0.0,1.6956,0.0,0.0,0.0,1.8479,0.0,0.0,0.0,0.0,0.0,0.0,0.0,0.0,0.0,0.0,0.0,0.0,0.0,0.0,0.0,0.0,2.5513,2.6562,2.6416,2.6416,2.6723,2.6742,2.6742,2.6742,2.6846,2.6869,2.6869,2.6947,2.6986,2.6996,2.7373,2.7565,2.7585,2.8005,2.8174,2.8174,2.8262,2.8291,2.8291,2.8291,2.8291,2.8291,2.8291,2.8291,2.833,2.8672,2.8772,2.8857,2.9324,2.9422,2.9364,2.9442,2.9668,2.998,3.0146,3.0459,3.0771,3.0869,3.0889,3.0889,3.0889,3.0889,3.0889,3.0889,3.0889,3.0889,3.0889,3.0889,3.0889,3.0889,3.0889,3.0889,3.0889,3.0889,3.0889,3.0889,3.0889,3.0889,3.0889,3.0889,3.0889,3.0889,3.0889,3.0889,3.0889,3.0889,3.0889,3.0889,3.0889,3.0889,3.0889,3.0889,3.0889,3.0889,3.0889,3.0889,3.0889,3.0889,3.0889,3.0889,3.0889,3.2189,0.0,0.0,0.0,0.0,1.9316,0.0,0.0,0.0,1.6832,1.563,0.0,0.0,0.0,0.0,0.0,0.0,0.0,0.0,0.0,0.0,0.0,0.0,0.0,0.0,0.0,0.0,0.0,2.519,2.4261,2.4268,2.5776,2.5854,2.5854,2.5854,2.626,2.6455,2.6455,2.6826,2.6986,2.6986,2.706,2.709,2.7109,2.7565,2.7761,2.778,2.8161,2.8291,2.8291,2.8291,2.8291,2.8291,2.8291,2.8291,2.8301,2.834,2.8359,2.8428,2.8848,2.875,2.8506,2.8867,2.8996,2.9199,2.9971,3.0234,3.0361,3.0771,3.0889,3.0889,3.0889,3.0889,3.0889,3.0889,3.0889,3.0889,3.0889,3.0889,3.0889,3.0889,3.0889,3.0889,3.0889,3.0889,3.0889,3.0889,3.0889,3.0889,3.0889,3.0889,3.0889,3.0889,3.0889,3.0889,3.0889,3.0889,3.0889,3.0889,3.0889,3.0889,3.0889,3.0889,3.0889,3.0889,3.0889,3.0889,3.0889,3.0889,3.0889,3.0889,3.0889,3.1083,0.0,0.0,0.0,0.0,0.0,0.0,1.6212,0.0,1.5894,0.0,0.0,0.0,0.0,0.0,0.0,0.0,0.0,0.0,0.0,0.0,0.0,0.0,0.0,0.0,0.0,0.0,0.0,0.0,0.0,2.3535,2.5254,2.5352,2.5469,2.5684,2.5893,2.5981,2.5981,2.6157,2.6245,2.6254,2.6533,2.665,2.667,2.71,2.7432,2.7702,2.7878,2.8093,2.8291,2.8291,2.8291,2.8291,2.8291,2.8291,2.8291,2.8291,2.8291,2.831,2.8496,2.8437,2.8359,2.8779,2.8889,2.9006,2.9676,3.0,3.0234,3.043,3.0684,3.0889,3.0889,3.0889,3.0889,3.0889,3.0889,3.0889,3.0889,3.0889,3.0889,3.0889,3.0889,3.0889,3.0889,3.0889,3.0889,3.0889,3.0889,3.0889,3.0889,3.0889,3.0889,3.0889,3.0889,3.0889,3.0889,3.0889,3.0889,3.0889,3.0889,3.0889,3.0889,3.0889,3.0889,3.0889,3.0889,3.0889,3.0889,3.0889,3.0889,3.0889,3.0889,3.0889,2.1854,0.0,0.0,0.0,0.0,0.0,0.0,0.0,0.0,0.0,0.0,0.0,0.0,0.0,0.0,0.0,0.0,0.0,0.0,0.0,0.0,0.0,0.0,0.0,0.0,0.0,0.0,0.0,0.0,0.0,2.4809,2.5024,2.5239,2.5523,2.565,2.5693,2.5693,2.5693,2.5693,2.5693,2.6055,2.6211,2.6221,2.665,2.7012,2.736,2.7585,2.7868,2.8125,2.8242,2.8291,2.8291,2.8291,2.8291,2.8291,2.8291,2.8291,2.8291,2.8291,2.8291,2.834,2.8643,2.875,2.8828,2.9258,2.9667,2.9941,3.0098,3.0508,3.0889,3.0889,3.0889,3.0889,3.0889,3.0889,3.0889,3.0889,3.0889,3.0889,3.0889,3.0889,3.0889,3.0889,3.0889,3.0889,3.0889,3.0889,3.0889,3.0889,3.0889,3.0889,3.0889,3.0889,3.0889,3.0889,3.0889,3.0889,3.0889,3.0889,3.0889,3.0889,3.0889,3.0889,3.0889,3.0889,3.0889,3.0889,3.0889,3.0889,3.0889,3.0889,3.0889,0.0,0.0,0.0,1.9483,0.0,0.0,0.0,0.0,1.6648,0.0,0.0,0.0,0.0,0.0,0.0,1.6212,0.0,0.0,0.0,0.0,0.0,0.0,0.0,0.0,0.0,0.0,0.0,0.0,0.0,0.0,2.4254,2.4857,2.5102,2.5112,2.5508,2.5693,2.5693,2.5693,2.5693,2.5693,2.5728,2.5713,2.5747,2.6211,2.6416,2.65,2.733,2.7702,2.7741,2.8125,2.8291,2.8291,2.8291,2.8291,2.8291,2.8291,2.8291,2.8291,2.8291,2.8291,2.8291,2.831,2.831,2.8389,2.8809,2.9062,2.9344,2.9873,3.0439,3.0889,3.0889,3.0889,3.0889,3.0889,3.0889,3.0889,3.0889,3.0889,3.0889,3.0889,3.0889,3.0889,3.0889,3.0889,3.0889,3.0889,3.0889,3.0889,3.0889,3.0889,3.0889,3.0889,3.0889,3.0889,3.0889,3.0889,3.0889,3.0889,3.0889,3.0889,3.0889,3.0889,3.0889,3.0889,3.0889,3.0889,3.0889,3.0889,3.0889,3.0889,3.0889,3.0889,0.0,0.0,2.3968,2.1054,0.0,0.0,0.0,0.0,0.0,0.0,0.0,0.0,0.0,0.0,0.0,1.6232,0.0,0.0,0.0,0.0,0.0,0.0,0.0,0.0,0.0,0.0,0.0,0.0,0.0,0.0,0.0,2.4141,2.4505,2.5072,2.5239,2.5439,2.5708,2.5693,2.5693,2.5693,2.5693,2.5693,2.5718,2.5864,2.6113,2.6431,2.6724,2.7174,2.7702,2.7848,2.8073,2.8291,2.8291,2.8291,2.8291,2.8291,2.8291,2.8291,2.8291,2.8291,2.8291,2.8291,2.8291,2.832,2.8467,2.874,2.9062,2.9365,2.9863,3.04,3.0791,3.0889,3.0889,3.0889,3.0889,3.0889,3.0889,3.0889,3.0889,3.0889,3.0889,3.0889,3.0889,3.0889,3.0889,3.0889,3.0889,3.0889,3.0889,3.0889,3.0889,3.0889,3.0889,3.0889,3.0889,3.0889,3.0889,3.0889,3.0889,3.0889,3.0889,3.0889,3.0889,3.0889,3.0889,3.0889,3.0889,3.0889,3.0889,3.0889,3.0889,3.0889,2.4463,2.4736,0.0,0.0,2.125,0.0,1.7952,0.0,0.0,0.0,0.0,0.0,0.0,0.0,0.0,1.692,1.6271,0.0,0.0,0.0,0.0,0.0,0.0,0.0,0.0,0.0,1.8264,2.0214,0.0,0.0,0.0,0.0,2.4066,2.4623,2.4936,2.5229,2.5474,2.564,2.5693,2.5693,2.5693,2.5693,2.5693,2.5693,2.5864,2.6162,2.6328,2.6724,2.7262,2.7565,2.7848,2.8112,2.8232,2.8291,2.8291,2.8291,2.8291,2.8291,2.8291,2.8291,2.8291,2.8291,2.8291,2.8291,2.8291,2.8476,2.8711,2.8855,2.9414,3.0078,3.0351,3.0654,3.0889,3.0889,3.0889,3.0889,3.0889,3.0889,3.0889,3.0889,3.0889,3.0889,3.0889,3.0889,3.0889,3.0889,3.0889,3.0889,3.0889,3.0889,3.0889,3.0889,3.0889,3.0889,3.0889,3.0889,3.0889,3.0889,3.0889,3.0889,3.0889,3.0889,3.0889,3.0889,3.0889,3.0889,3.0889,3.0889,3.0889,3.0889,3.0889,3.0889]},{"header":{"parameterUnit":"m.s-1","parameterCategory":1,"la1":30.6,"la2":29.2853,"lo1":-89.7004,"lo2":-87.6739,"dy":0.0162,"dx":0.0183,"nx":112,"ny":82,"refTime":"2025-01-01T18:00:00:Z","depth":0,"parameterNumber":3,"parameterNumberName":"V-component_of_WINDS"},"data":[0.0,0.0,0.0,0.0,0.0,0.0,0.0,0.0,0.0,0.0,0.0,0.0,0.0,0.0,0.0,0.0,0.0,0.0,0.0,0.0,0.0,0.0,0.0,0.0,0.0,0.0,0.0,0.0,0.0,0.0,0.0,0.0,0.0,0.0,0.0,0.0,0.0,0.0,0.0,0.0,0.0,0.0,0.0,0.0,0.0,0.0,0.0,0.0,0.0,0.0,0.0,0.0,0.0,0.0,0.0,0.0,0.0,0.0,0.0,0.0,0.0,0.0,0.0,0.0,0.0,0.0,0.0,0.0,0.0,0.0,0.0,0.0,0.0,0.0,0.0,0.0,0.0,0.0,0.0,0.0,0.0,0.0,0.0,0.0,0.0,0.0,0.0,0.0,0.0,0.0,0.0,1.8889,2.2456,2.4654,2.457,2.4205,2.3065,2.083,0.0,0.0,0.0,0.0,0.0,0.0,0.0,0.0,0.0,0.0,0.0,0.0,0.0,0.0,0.0,0.0,0.0,0.0,0.0,0.0,0.0,0.0,0.0,0.0,0.0,0.0,0.0,0.0,0.0,0.0,0.0,0.0,0.0,0.0,0.0,0.0,0.0,0.0,0.0,0.0,0.0,0.0,0.0,0.0,0.0,0.0,0.0,0.0,0.0,0.0,0.0,0.0,0.0,0.0,0.0,0.0,0.0,0.0,0.0,0.0,0.0,0.0,0.0,0.0,0.0,0.0,0.0,0.0,0.0,0.0,0.0,0.0,0.0,0.0,0.0,0.0,0.0,0.0,0.0,0.0,0.0,0.0,0.0,0.0,0.0,0.0,0.0,0.0,0.0,0.0,0.0,0.0,0.0,0.0,0.0,0.0,0.0,0.0,0.0,0.0,0.0,0.0,0.0,0.0,1.9159,2.4603,2.6181,2.6654,2.6193,2.4831,2.3065,2.083,0.0,0.0,0.0,0.0,0.0,0.0,0.0,0.0,0.0,0.0,0.0,0.0,0.0,0.0,0.0,0.0,0.0,0.0,0.0,0.0,0.0,0.0,0.0,0.0,0.0,0.0,0.0,0.0,0.0,0.0,0.0,0.0,0.0,0.0,0.0,0.0,0.0,0.0,0.0,0.0,0.0,0.0,0.0,0.0,0.0,0.0,0.0,0.0,0.0,0.0,0.0,0.0,0.0,0.0,0.0,0.0,0.0,0.0,0.0,0.0,0.0,0.0,0.0,0.0,0.0,0.0,0.0,0.0,0.0,0.0,0.0,0.0,0.0,0.0,0.0,0.0,0.0,0.0,0.0,0.0,0.0,0.0,0.0,0.0,0.0,0.0,0.0,0.0,0.0,0.0,0.0,0.0,0.0,0.0,0.0,0.0,0.0,0.0,0.0,0.0,0.0,0.0,0.0,1.7951,2.1702,2.6429,2.7148,2.7198,2.6947,2.5398,2.3489,2.1268,1.9284,0.0,0.0,0.0,0.0,0.0,0.0,0.0,0.0,0.0,0.0,0.0,0.0,0.0,0.0,0.0,0.0,0.0,0.0,0.0,0.0,0.0,0.0,0.0,0.0,0.0,0.0,0.0,0.0,0.0,0.0,0.0,0.0,0.0,0.0,0.0,0.0,0.0,0.0,0.0,0.0,0.0,0.0,0.0,0.0,0.0,0.0,0.0,0.0,0.0,0.0,0.0,0.0,0.0,0.0,0.0,0.0,0.0,0.0,0.0,0.0,0.0,0.0,0.0,0.0,0.0,0.0,0.0,0.0,0.0,0.0,0.0,0.0,0.0,0.0,0.0,0.0,0.0,0.0,0.0,0.0,0.0,0.0,0.0,0.0,0.0,0.0,0.0,0.0,0.0,0.0,0.0,0.0,0.0,0.0,0.0,0.0,0.0,0.0,0.0,0.0,0.0,0.0,2.155,2.4114,2.716,2.7499,2.7499,2.7499,2.5582,2.3574,2.162,1.9171,0.0,0.0,0.0,0.0,0.0,0.0,0.0,0.0,0.0,0.0,0.0,0.0,0.0,0.0,0.0,0.0,0.0,0.0,0.0,0.0,0.0,0.0,0.0,0.0,0.0,0.0,0.0,0.0,0.0,0.0,0.0,0.0,0.0,0.0,0.0,0.0,0.0,0.0,0.0,0.0,0.0,0.0,0.0,0.0,0.0,0.0,0.0,0.0,0.0,0.0,0.0,0.0,0.0,0.0,0.0,0.0,0.0,0.0,0.0,0.0,0.0,0.0,0.0,0.0,0.0,0.0,0.0,0.0,0.0,0.0,0.0,0.0,0.0,0.0,0.0,0.0,0.0,0.0,0.0,0.0,0.0,0.0,0.0,0.0,0.0,0.0,0.0,0.0,0.0,0.0,0.0,0.0,0.0,0.0,0.0,0.0,0.0,0.0,0.0,0.0,0.0,0.0,2.3226,2.6311,2.788,2.8047,2.8047,2.8047,2.508,2.2734,2.157,1.843,0.0,0.0,0.0,0.0,0.0,0.0,0.0,0.0,0.0,0.0,0.0,0.0,0.0,0.0,0.0,0.0,0.0,0.0,0.0,0.0,0.0,0.0,0.0,0.0,0.0,0.0,0.0,0.0,0.0,0.0,0.0,0.0,0.0,0.0,0.0,0.0,0.0,0.0,0.0,0.0,0.0,0.0,0.0,0.0,0.0,0.0,0.0,0.0,0.0,0.0,0.0,0.0,0.0,0.0,0.0,0.0,0.0,0.0,0.0,0.0,0.0,0.0,0.0,0.0,0.0,0.0,0.0,0.0,0.0,0.0,0.0,0.0,0.0,0.0,0.0,0.0,0.0,0.0,0.0,0.0,0.0,0.0,0.0,0.0,0.0,0.0,0.0,0.0,0.0,0.0,0.0,0.0,0.0,0.0,0.0,0.0,0.0,0.0,0.0,0.0,0.0,0.0,2.3677,2.6484,0.0,2.8292,2.8109,2.8109,2.5682,2.3399,2.1606,0.0,0.0,0.0,0.0,0.0,0.0,0.0,0.0,0.0,0.0,0.0,0.0,0.0,0.0,0.0,0.0,0.0,0.0,0.0,0.0,0.0,0.0,0.0,0.0,0.0,0.0,0.0,0.0,0.0,0.0,0.0,0.0,0.0,0.0,0.0,0.0,0.0,0.0,0.0,0.0,0.0,0.0,0.0,0.0,0.0,0.0,0.0,0.0,0.0,0.0,0.0,0.0,0.0,0.0,0.0,0.0,0.0,0.0,0.0,0.0,0.0,0.0,0.0,0.0,0.0,0.0,0.0,0.0,0.0,0.0,0.0,0.0,0.0,0.0,0.0,0.0,0.0,0.0,0.0,0.0,0.0,0.0,0.0,0.0,0.0,0.0,0.0,0.0,0.0,0.0,0.0,0.0,0.0,0.0,0.0,0.0,0.0,0.0,0.0,0.0,0.0,0.0,2.0988,2.4315,2.7042,0.0,2.8851,2.8633,2.814,2.6206,2.4011,2.1648,0.0,0.0,0.0,0.0,0.0,0.0,0.0,0.0,0.0,0.0,0.0,0.0,0.0,0.0,0.0,0.0,0.0,0.0,0.0,0.0,0.0,0.0,0.0,0.0,0.0,0.0,0.0,0.0,0.0,0.0,0.0,0.0,0.0,0.0,0.0,0.0,0.0,0.0,0.0,0.0,0.0,0.0,0.0,0.0,0.0,0.0,0.0,0.0,0.0,0.0,0.0,0.0,0.0,0.0,0.0,0.0,0.0,0.0,0.0,0.0,0.0,0.0,0.0,0.0,0.0,0.0,0.0,0.0,0.0,0.0,0.0,0.0,0.0,0.0,0.0,0.0,0.0,0.0,0.0,0.0,0.0,0.0,0.0,0.0,0.0,0.0,0.0,0.0,0.0,0.0,0.0,0.0,0.0,0.0,0.0,0.0,0.0,0.0,0.0,0.0,0.0,0.0,2.1159,2.5322,2.8304,2.8838,2.981,2.9777,2.822,2.6507,2.4366,0.0,0.0,0.0,0.0,0.0,0.0,0.0,0.0,0.0,0.0,0.0,0.0,0.0,0.0,0.0,0.0,0.0,0.0,0.0,0.0,0.0,0.0,0.0,0.0,0.0,0.0,0.0,0.0,0.0,0.0,0.0,0.0,0.0,0.0,0.0,0.0,0.0,0.0,0.0,0.0,0.0,0.0,0.0,0.0,0.0,0.0,0.0,0.0,0.0,0.0,0.0,0.0,0.0,0.0,0.0,0.0,0.0,0.0,0.0,0.0,0.0,0.0,0.0,0.0,0.0,0.0,0.0,0.0,0.0,0.0,0.0,0.0,0.0,0.0,0.0,0.0,0.0,0.0,0.0,0.0,0.0,0.0,0.0,0.0,0.0,0.0,0.0,0.0,0.0,0.0,0.0,0.0,0.0,0.0,0.0,0.0,0.0,0.0,0.0,0.0,0.0,0.0,0.0,2.2229,2.5819,2.8473,2.9428,3.0056,2.9777,2.822,2.6817,2.4711,2.169,0.0,0.0,0.0,0.0,0.0,0.0,0.0,0.0,0.0,0.0,0.0,0.0,0.0,0.0,0.0,0.0,0.0,0.0,0.0,0.0,0.0,0.0,0.0,0.0,0.0,0.0,0.0,0.0,0.0,0.0,0.0,0.0,0.0,0.0,0.0,0.0,0.0,0.0,0.0,0.0,0.0,0.0,0.0,0.0,0.0,0.0,0.0,0.0,0.0,0.0,0.0,0.0,0.0,0.0,0.0,0.0,0.0,0.0,0.0,0.0,0.0,0.0,0.0,0.0,0.0,0.0,0.0,0.0,0.0,0.0,0.0,0.0,0.0,0.0,0.0,0.0,0.0,0.0,0.0,0.0,0.0,0.0,0.0,0.0,0.0,0.0,0.0,0.0,0.0,0.0,0.0,0.0,0.0,0.0,0.0,0.0,0.0,0.0,0.0,0.0,0.0,0.0,2.331,2.6918,2.9609,3.0803,3.1478,3.1108,2.9319,2.8131,2.5914,2.2259,0.0,0.0,0.0,0.0,0.0,0.0,0.0,0.0,0.0,0.0,0.0,0.0,0.0,0.0,0.0,0.0,0.0,0.0,0.0,0.0,0.0,0.0,0.0,0.0,0.0,0.0,0.0,0.0,0.0,0.0,0.0,0.0,0.0,0.0,0.0,0.0,0.0,0.0,0.0,0.0,0.0,0.0,0.0,0.0,0.0,0.0,0.0,0.0,0.0,0.0,0.0,0.0,0.0,0.0,0.0,0.0,0.0,0.0,0.0,0.0,0.0,0.0,0.0,0.0,0.0,0.0,0.0,0.0,0.0,0.0,0.0,0.0,0.0,0.0,0.0,0.0,0.0,0.0,0.0,0.0,0.0,0.0,0.0,0.0,0.0,0.0,0.0,0.0,0.0,0.0,0.0,0.0,0.0,0.0,0.0,0.0,0.0,0.0,0.0,0.0,0.0,0.0,2.4311,2.8313,3.1323,3.2483,3.3432,3.3152,3.1062,3.0042,2.7655,2.3313,0.0,0.0,0.0,0.0,0.0,0.0,0.0,0.0,0.0,0.0,0.0,0.0,0.0,0.0,0.0,0.0,0.0,0.0,0.0,0.0,0.0,0.0,0.0,0.0,0.0,0.0,0.0,0.0,0.0,0.0,0.0,0.0,0.0,0.0,0.0,0.0,0.0,0.0,0.0,0.0,0.0,0.0,0.0,0.0,0.0,0.0,0.0,0.0,0.0,0.0,0.0,0.0,0.0,0.0,0.0,0.0,0.0,0.0,0.0,0.0,1.7697,0.0,0.0,0.0,0.0,0.0,0.0,0.0,0.0,0.0,0.0,0.0,0.0,0.0,0.0,0.0,0.0,0.0,0.0,0.0,0.0,0.0,0.0,0.0,0.0,0.0,0.0,0.0,0.0,0.0,0.0,0.0,0.0,0.0,0.0,0.0,0.0,0.0,0.0,0.0,0.0,0.0,2.4938,2.8946,3.1844,3.2524,3.3432,3.334,3.1726,3.082,2.878,2.5084,2.1327,0.0,0.0,0.0,0.0,0.0,0.0,0.0,0.0,0.0,0.0,0.0,0.0,0.0,0.0,0.0,0.0,0.0,0.0,0.0,0.0,0.0,0.0,0.0,0.0,0.0,0.0,0.0,0.0,0.0,0.0,0.0,0.0,0.0,0.0,0.0,0.0,0.0,0.0,0.0,0.0,0.0,0.0,0.0,0.0,0.0,0.0,0.0,0.0,0.0,0.0,0.0,0.0,0.0,0.0,0.0,0.0,0.0,0.0,0.0,0.0,1.915,0.0,0.0,0.0,0.0,0.0,0.0,0.0,0.0,0.0,0.0,0.0,0.0,0.0,0.0,0.0,0.0,0.0,0.0,0.0,0.0,0.0,0.0,0.0,0.0,0.0,0.0,0.0,0.0,0.0,0.0,0.0,0.0,0.0,0.0,0.0,0.0,0.0,0.0,0.0,0.0,2.6216,3.0356,3.3336,3.3933,3.4426,3.428,3.3198,3.2085,3.0014,2.6614,2.3338,0.0,0.0,0.0,0.0,0.0,0.0,0.0,0.0,0.0,0.0,0.0,0.0,0.0,0.0,0.0,0.0,0.0,0.0,0.0,0.0,0.0,0.0,0.0,0.0,0.0,0.0,0.0,0.0,0.0,0.0,0.0,0.0,0.0,0.0,0.0,0.0,0.0,0.0,0.0,0.0,0.0,0.0,0.0,0.0,0.0,0.0,0.0,0.0,0.0,0.0,0.0,0.0,0.0,0.0,2.7736,2.723,2.7666,2.8005,2.8078,2.4998,2.3873,2.4067,0.0,0.0,0.0,0.0,0.0,0.0,0.0,0.0,0.0,0.0,0.0,0.0,0.0,0.0,0.0,0.0,0.0,0.0,0.0,0.0,0.0,0.0,0.0,0.0,0.0,2.339,2.3423,0.0,0.0,0.0,0.0,0.0,0.0,0.0,0.0,0.0,0.0,0.0,0.0,2.7678,3.1904,3.4892,3.5444,3.5504,3.528,3.4712,3.349,3.1503,2.854,2.5835,2.2897,0.0,0.0,0.0,0.0,0.0,0.0,0.0,0.0,0.0,0.0,0.0,0.0,0.0,0.0,0.0,0.0,0.0,0.0,0.0,0.0,0.0,0.0,0.0,0.0,0.0,0.0,0.0,0.0,0.0,0.0,0.0,0.0,2.0126,2.1392,0.0,0.0,0.0,0.0,0.0,0.0,0.0,0.0,0.0,0.0,0.0,0.0,0.0,0.0,2.7144,2.9293,3.0445,3.0628,3.2154,3.2577,3.1983,3.205,3.2829,3.4015,3.2734,0.0,2.6358,2.5953,0.0,0.0,0.0,0.0,0.0,0.0,0.0,0.0,0.0,0.0,0.0,0.0,0.0,0.0,0.0,0.0,0.0,0.0,0.0,0.0,0.0,0.0,2.6246,2.592,2.6008,2.5866,0.0,2.2051,1.9531,1.8628,0.0,0.0,0.0,0.0,0.0,0.0,0.0,0.0,2.8805,3.2759,3.54,3.5489,3.5504,3.5474,3.5385,3.4647,3.3527,3.1851,2.8754,2.6233,2.4518,2.081,0.0,0.0,0.0,0.0,0.0,0.0,0.0,0.0,0.0,0.0,0.0,0.0,0.0,0.0,0.0,0.0,0.0,0.0,0.0,0.0,0.0,0.0,0.0,0.0,0.0,0.0,0.0,0.0,0.0,2.0722,2.2393,2.2891,2.308,2.2392,0.0,0.0,0.0,0.0,0.0,0.0,0.0,0.0,0.0,2.8047,2.9772,3.1262,3.2503,3.4358,3.5492,3.5872,3.6594,3.6805,3.6547,3.6547,3.6918,3.7547,3.7142,3.5572,3.3089,2.9984,2.7485,2.5453,0.0,0.0,0.0,0.0,0.0,2.2705,2.4002,0.0,0.0,0.0,0.0,0.0,0.0,0.0,0.0,0.0,0.0,0.0,0.0,0.0,0.0,2.7758,2.8115,2.819,2.7577,2.5906,2.3991,0.0,2.1336,2.0226,1.8055,0.0,0.0,0.0,0.0,0.0,3.0798,3.3659,3.5504,3.5504,3.5504,3.5504,3.5504,3.5235,3.4437,3.2943,3.1227,2.9447,2.7675,2.4388,2.1799,0.0,0.0,0.0,0.0,0.0,0.0,0.0,0.0,0.0,0.0,0.0,0.0,0.0,0.0,0.0,0.0,0.0,0.0,0.0,0.0,0.0,0.0,0.0,0.0,0.0,0.0,0.0,0.0,2.3795,2.4805,2.4866,2.5694,2.5238,0.0,0.0,0.0,0.0,0.0,0.0,2.8569,2.9532,3.0798,3.2473,3.4316,3.591,3.7254,3.8525,3.9409,3.99,3.99,3.99,3.99,3.99,3.99,3.99,3.99,3.9529,3.856,3.4001,3.1046,2.9243,2.7518,2.6637,0.0,2.6571,2.6505,2.6583,2.8795,2.9046,2.8317,2.8062,0.0,2.4933,2.3278,0.0,0.0,0.0,0.0,2.571,2.7278,0.0,2.9378,3.0163,3.0706,3.0861,3.0242,2.9796,2.8645,0.0,2.5307,2.461,2.216,0.0,0.0,0.0,0.0,3.06,3.2379,3.4308,3.5504,3.5504,3.5504,3.5504,3.5504,3.5504,3.5005,3.3857,3.3038,3.1905,3.036,2.7788,2.5478,2.351,0.0,0.0,0.0,0.0,0.0,0.0,0.0,0.0,0.0,0.0,0.0,0.0,0.0,0.0,0.0,0.0,0.0,0.0,0.0,0.0,0.0,0.0,0.0,0.0,0.0,0.0,0.0,0.0,0.0,2.8278,2.9448,0.0,0.0,0.0,0.0,2.7513,2.8742,3.0556,3.3045,3.5009,3.6664,3.7961,3.934,4.0106,4.0192,4.0887,4.1268,4.1298,4.1298,4.1298,4.1298,4.1298,4.1298,4.1298,4.1298,4.0924,4.0127,3.7931,3.5872,3.3991,3.3247,3.2142,3.1019,3.1545,3.2045,3.2545,3.3272,3.3489,3.3271,3.2249,2.9422,2.6386,2.6273,2.6081,0.0,0.0,2.954,3.1761,3.306,3.3813,3.4255,3.4292,3.4333,3.4181,3.3509,3.3344,3.2349,0.0,2.7666,2.7046,2.7261,0.0,2.6961,2.805,2.9603,3.1271,3.2936,3.4525,3.5504,3.5504,3.5504,3.5504,3.5504,3.5504,3.5473,3.5379,3.3983,3.3103,3.3013,3.0491,2.8516,2.7249,2.37,0.0,0.0,0.0,0.0,0.0,0.0,0.0,0.0,0.0,0.0,0.0,0.0,0.0,0.0,0.0,0.0,0.0,0.0,0.0,0.0,0.0,0.0,0.0,0.0,0.0,0.0,0.0,0.0,3.1031,3.2273,0.0,3.0032,3.0996,3.2034,3.2706,3.4343,3.6075,3.7851,3.9032,4.0056,4.0958,4.2222,4.291,4.291,4.3569,4.3918,4.3918,4.3918,4.3918,4.3918,4.3918,4.3918,4.3903,4.3449,4.2895,4.2173,4.107,3.9432,3.7538,3.6691,3.6054,3.5557,3.5152,3.512,3.5249,3.5026,3.4951,3.4708,3.3215,3.2025,3.1128,3.0797,3.0864,3.1258,3.2032,3.2912,3.3738,3.4201,3.446,3.4594,3.4594,3.4594,3.4538,3.4298,3.4242,3.4071,3.3515,3.1636,2.995,2.9355,2.9825,3.0296,3.0397,3.1988,3.3519,3.4548,3.5161,3.5504,3.5504,3.5504,3.5504,3.5504,3.5504,3.5504,3.5504,3.499,3.4679,3.4679,3.2429,3.0391,2.8689,2.5655,2.2366,0.0,0.0,0.0,0.0,0.0,0.0,0.0,0.0,0.0,0.0,0.0,0.0,0.0,0.0,0.0,0.0,0.0,0.0,0.0,0.0,0.0,0.0,0.0,0.0,0.0,0.0,3.2766,3.3424,3.507,3.5444,3.3664,3.531,3.6778,3.7434,3.8903,4.0325,4.1654,4.2132,4.269,4.3349,4.4197,4.4646,4.4646,4.508,4.5289,4.5289,4.5289,4.5289,4.5289,4.5289,4.5289,4.5274,4.4825,4.4386,4.3938,4.3544,4.2581,4.1234,3.9732,3.9153,3.9063,3.8443,3.8231,3.8159,3.7706,3.721,3.6525,3.5143,3.4556,3.4307,3.372,3.4018,3.4671,3.525,3.5641,3.5923,3.6169,3.6227,3.6227,3.6227,3.6227,3.6169,3.5923,3.5866,3.5991,3.6399,3.4702,3.3081,3.2642,3.3346,3.3849,3.3541,3.4622,3.5639,3.6088,3.6148,3.6073,3.5863,3.5833,3.5744,3.5534,3.5504,3.5504,3.5504,3.5295,3.5055,3.4831,3.2958,3.111,2.9362,2.6431,2.3156,1.956,0.0,0.0,0.0,0.0,0.0,0.0,0.0,0.0,0.0,0.0,0.0,0.0,0.0,0.0,0.0,0.0,0.0,0.0,0.0,0.0,0.0,0.0,0.0,3.0631,3.2946,3.4907,3.5609,3.7941,3.8987,3.7701,3.9379,4.0786,4.1448,4.2111,4.302,4.4267,4.4341,4.4661,4.5304,4.5349,4.5349,4.5349,4.5349,4.5349,4.5349,4.5349,4.5349,4.5349,4.5349,4.5349,4.5349,4.5334,4.5334,4.5334,4.5304,4.5289,4.505,4.2496,4.1493,4.1493,4.1463,4.1448,4.1433,4.1433,4.0406,3.8957,3.8292,3.7021,3.5654,3.496,3.5429,3.6302,3.6953,3.7793,3.8631,3.9287,3.9466,3.9466,3.9466,3.9466,3.9272,3.8616,3.8482,3.8287,3.7629,3.6758,3.6411,3.725,3.7387,3.7387,3.7387,3.7387,0.0,3.7387,3.7387,3.718,3.6598,3.6508,3.6254,3.5594,3.5519,3.5489,3.5474,3.4862,3.4203,3.3559,3.2201,3.0811,2.9449,2.6122,2.3223,2.0767,0.0,0.0,0.0,0.0,0.0,0.0,0.0,0.0,0.0,0.0,0.0,0.0,0.0,0.0,0.0,0.0,0.0,0.0,0.0,0.0,0.0,3.1545,3.3436,3.341,3.6088,3.8482,3.9652,4.0834,4.1628,4.1728,4.2656,4.3314,4.3494,4.4107,4.4666,4.5005,4.5499,4.5837,4.6016,4.6501,4.6756,4.6756,4.6756,4.6756,4.6756,4.6756,4.6756,4.6756,4.6756,4.6756,4.6726,4.6247,4.6016,4.5986,4.5499,4.5289,4.517,4.3973,4.3509,4.3449,4.2951,4.2506,4.2126,4.2126,4.152,4.0586,3.962,3.9523,3.9626,3.8663,3.9096,3.9958,4.0132,4.0379,4.0625,4.0786,4.0846,4.0846,4.0846,4.0846,4.0804,4.0625,4.058,4.0385,3.9709,3.9377,3.8807,3.7607,3.7387,3.7387,3.7387,0.0,0.0,3.7387,3.7387,3.7345,3.718,3.6746,3.6434,3.6254,3.5774,3.5295,0.0,3.4592,3.4429,3.4233,3.339,3.1943,2.9878,2.6642,2.4145,0.0,0.0,0.0,0.0,0.0,0.0,0.0,0.0,0.0,0.0,0.0,0.0,0.0,0.0,0.0,0.0,0.0,0.0,0.0,0.0,0.0,0.0,3.5341,3.7586,3.814,3.9637,4.113,4.2462,4.3214,4.3768,4.4152,4.4781,4.5134,4.5134,4.5768,4.6142,4.6142,4.6516,4.6719,4.6719,4.7115,4.7309,4.7309,4.7309,4.7309,4.7309,4.7309,4.7309,4.7309,4.7309,4.7309,0.0,4.6884,4.6719,4.6689,4.6307,4.6142,0.0,0.0,0.0,0.0,0.0,4.3509,4.3169,4.2885,4.2521,4.2051,4.118,4.1301,4.1652,4.0748,4.092,4.1403,4.1403,4.1403,4.1403,4.1403,4.1403,4.1403,4.1403,4.1403,4.1403,4.1403,4.1403,4.1283,4.0891,0.0,0.0,3.9275,3.8616,3.824,3.824,3.824,3.824,0.0,3.824,3.812,3.7853,3.7509,3.7092,3.6553,3.6133,0.0,0.0,0.0,3.4108,3.323,3.2564,0.0,0.0,0.0,0.0,0.0,0.0,0.0,0.0,2.1505,2.1146,0.0,0.0,0.0,0.0,0.0,0.0,0.0,0.0,0.0,0.0,0.0,0.0,0.0,0.0,0.0,0.0,3.923,4.2122,4.3524,4.3318,4.3382,4.4392,4.505,4.5439,4.5514,4.6061,4.6405,4.6405,4.6958,4.7309,4.7309,0.0,0.0,0.0,0.0,4.7309,4.7309,4.7309,4.7309,4.7309,4.7309,4.7309,4.7309,4.7309,4.7309,4.7309,4.7309,4.7309,4.7309,4.7309,4.7309,4.7174,4.5903,4.5364,4.5229,4.4625,4.4401,0.0,0.0,0.0,0.0,4.2795,4.2575,4.2396,4.1792,4.1613,4.1613,4.1613,4.1613,4.1613,4.1613,4.1613,4.1613,4.1613,4.1613,4.1613,4.1613,4.1613,4.1598,4.1523,4.1508,4.1493,4.1403,4.0412,3.9601,3.9526,3.9511,0.0,3.9406,3.9406,3.9167,3.8571,0.0,0.0,3.6808,3.6643,3.6282,3.5549,3.4877,3.3684,3.1822,3.1179,3.0314,2.9148,2.9074,2.8769,2.8298,2.836,2.8618,2.8988,2.4929,2.4142,0.0,0.0,0.0,0.0,0.0,0.0,0.0,0.0,0.0,0.0,0.0,0.0,0.0,0.0,0.0,3.9738,4.1773,4.3594,4.5478,4.6321,4.6549,4.5972,4.6031,4.6315,4.686,4.704,4.7115,4.7115,4.7234,4.7309,4.7309,4.7309,0.0,4.7309,4.7309,4.7309,4.7309,4.7309,4.7309,4.7309,0.0,0.0,4.7309,4.7309,4.7309,4.7309,4.7309,4.7309,4.7309,4.7309,4.7309,4.7234,4.642,4.5783,4.5274,4.5155,4.511,4.5095,4.496,4.4571,4.4087,4.3973,4.3564,4.31,4.2965,4.2936,0.0,4.2936,4.2936,4.2936,4.2936,4.2936,4.2936,4.2936,4.2936,4.2936,4.2936,4.2936,4.2786,4.2286,4.2216,4.2017,4.1493,4.1194,4.0834,4.0292,4.0217,4.0023,3.9466,3.9406,3.9346,3.9212,3.8721,3.8287,3.8065,3.7539,3.6731,3.5579,3.4877,3.4321,3.3926,3.3777,3.3124,3.1875,3.1304,3.0521,2.9465,2.9917,3.0161,3.0224,2.8455,2.8104,0.0,0.0,0.0,0.0,0.0,0.0,0.0,0.0,0.0,0.0,0.0,3.1948,3.4576,0.0,3.9968,4.3137,4.4715,4.6217,4.8078,4.8775,4.8531,4.6978,4.7244,4.7491,4.7307,4.7309,4.7309,4.7309,4.7309,4.7309,4.7309,4.7309,4.7309,4.7309,4.7309,4.7309,4.7309,4.7309,4.7309,4.7309,4.7309,4.7309,4.7309,4.7309,4.7309,4.7309,4.7309,4.7309,4.7309,4.7309,4.7309,4.7279,4.6935,4.6606,4.6262,4.5933,4.5813,4.5753,4.5409,4.508,4.4811,4.4811,4.4566,4.4237,4.3908,4.3803,4.3728,4.3379,4.329,4.329,4.329,4.329,4.329,4.329,4.329,4.329,4.329,4.329,4.322,4.291,4.2851,4.2746,4.2417,4.2357,4.2028,4.104,4.0909,4.0771,4.0442,4.0113,3.9885,3.9885,3.9305,3.8766,3.8422,3.7793,3.7135,3.6492,3.6133,3.5938,3.5938,3.5938,3.519,3.3527,3.3165,3.2217,3.0595,3.0871,3.1148,3.1411,3.1707,3.1681,0.0,0.0,0.0,0.0,0.0,0.0,0.0,2.8218,2.9854,3.2361,3.4184,3.6265,3.9386,4.148,4.3604,4.6168,4.7551,4.8808,5.0201,5.057,4.9989,4.8115,4.861,4.8718,4.7679,4.7785,4.7722,4.7331,4.7473,4.7516,4.7294,4.7309,4.7309,4.7309,4.7309,4.7309,4.7309,4.7309,4.7309,4.7309,4.7309,4.7309,4.7309,4.7309,4.7309,4.7309,4.7309,4.7309,4.7309,4.7309,4.7309,4.7309,4.7309,4.7309,4.7234,4.6689,4.6495,4.642,4.5888,4.5603,4.5484,4.5484,4.5409,4.52,4.4661,4.4491,4.4371,4.3848,4.3698,4.3698,4.3698,4.3594,4.3484,4.3484,4.3379,4.329,4.329,4.329,4.329,4.329,4.329,4.329,4.329,4.329,4.2906,4.1762,4.1583,4.1553,4.1418,4.0939,4.0591,4.0591,4.0113,3.9574,3.9038,3.8362,3.7943,3.7791,3.7674,3.7539,3.7419,3.7387,3.6664,3.5101,3.4837,3.3961,3.2387,3.2387,3.2615,3.306,3.4686,3.4644,2.8899,2.7827,2.7735,2.8785,2.9144,3.0447,0.0,3.5272,3.5759,3.9808,4.1275,4.2595,4.505,4.6672,4.7911,4.8866,4.9624,5.0182,5.0378,5.1173,5.1303,5.02,5.0145,4.9793,4.8738,4.9476,4.9287,4.7445,4.812,4.8231,4.7337,4.7309,4.7309,4.7309,4.7309,4.7309,4.7309,4.7309,4.7309,4.7309,4.7309,4.7309,4.7309,4.7309,4.7309,4.7309,4.7309,4.7309,4.7309,4.7309,4.7309,4.7309,4.7309,4.7309,4.7294,4.7219,4.7189,4.7189,4.71,4.6674,4.6196,4.6196,4.5798,4.5289,4.5214,4.5185,4.517,4.5095,4.508,4.508,4.508,4.4625,4.4192,4.4192,4.3743,4.329,4.329,4.329,4.329,4.329,4.329,4.329,4.329,4.329,4.307,4.2396,4.2291,4.2081,4.1478,4.1328,4.1283,4.1283,4.1224,4.1149,4.1074,4.0442,3.9813,3.9212,3.8616,3.8018,3.7417,3.7387,3.742,3.7414,3.6437,3.5906,3.5932,3.5932,3.5971,3.6059,3.7253,3.6389,3.236,3.1823,3.1748,3.2302,3.3305,3.4976,3.817,3.9068,4.0232,4.3788,4.5056,4.6066,4.7814,4.8606,4.9381,0.0,5.109,5.1486,5.2132,5.2574,5.2679,5.224,5.2204,5.1539,4.9891,5.0145,5.0223,4.9773,4.9517,4.9392,4.9384,4.8798,4.8468,4.8468,4.8468,4.8468,4.8468,4.8094,4.7878,4.7878,4.7489,4.7309,4.7309,4.7309,4.7309,4.7309,4.7309,4.7309,4.7309,4.7309,4.7309,4.7309,4.7309,4.7309,4.7309,4.7309,4.7309,4.7309,4.7309,4.713,4.6869,4.6869,4.6696,4.6396,4.5986,4.5867,4.5813,4.5409,4.5289,4.5289,4.5289,4.5095,4.4885,4.4885,4.4676,4.4446,4.4446,4.4446,4.4341,4.3967,4.3878,4.3758,4.3384,4.329,4.322,4.297,4.2925,4.2821,4.2532,4.2211,4.1822,4.1433,4.1403,4.1403,4.1403,4.1149,4.0846,4.0576,4.031,4.0026,3.9738,3.9723,3.9487,3.8967,3.8498,3.7999,3.7484,3.7484,3.7484,3.7519,3.9024,3.8686,3.4054,3.4488,3.5167,3.5636,3.735,3.9429,4.1335,4.262,4.4216,4.7061,4.8027,4.8808,5.0257,5.0522,5.0936,5.2142,5.233,5.261,5.3382,5.3501,5.3501,5.3501,5.3501,5.2904,5.1392,5.1262,5.1332,5.149,5.1005,5.0739,5.0884,5.0169,4.9605,4.9314,4.9292,4.9292,4.9292,4.8813,4.8483,4.8282,4.7803,4.7474,4.7309,4.7309,4.7309,4.7309,4.7309,4.7309,4.7309,4.7309,4.7309,4.7309,4.7309,4.7309,4.7309,4.7309,4.7309,4.7309,4.7309,4.7309,4.7309,4.7309,4.7309,4.7219,4.6719,4.657,4.6465,4.5992,4.5843,4.5843,4.5843,4.5708,4.5589,4.5589,4.5424,4.5289,4.5289,4.5289,4.5155,4.4676,4.4586,4.4416,4.3938,4.3848,4.3848,4.3848,4.3848,4.3728,4.3349,4.2925,4.2466,4.1968,4.1923,4.1923,4.1923,4.1923,4.1848,4.1688,4.1673,4.1583,4.1403,4.1403,4.1124,4.0538,4.0188,3.9724,3.9144,3.9144,3.9144,3.9164,4.0943,4.1307,3.2916,3.4457,3.6834,3.8461,4.0802,4.3349,4.5676,4.6733,4.7898,5.0284,5.0789,5.1333,5.3044,5.3382,5.3382,5.3433,5.345,5.3467,5.3501,5.3501,5.3501,5.3501,5.3501,5.3467,0.0,5.3416,5.2874,5.1607,5.2365,5.2314,5.0968,5.0867,5.0355,4.9322,4.9292,4.9292,4.9292,4.9284,4.8932,4.8304,4.8289,4.7923,4.7309,4.7309,4.7309,4.7309,4.7309,4.7309,4.7309,4.7309,4.7309,4.7309,4.7309,4.7309,4.7309,4.7309,4.7309,4.7309,4.7309,4.7309,4.7309,4.7309,4.7309,4.7309,4.7279,4.7279,4.7279,4.7249,4.7249,4.7249,4.7249,4.6749,4.6271,4.6271,4.5762,4.5289,4.5289,4.5289,4.5289,4.5274,4.5274,4.5259,4.5229,4.5229,4.5229,4.5229,4.5229,4.4781,4.3474,4.3275,4.326,4.323,4.323,4.323,4.323,4.323,4.298,4.241,4.2366,4.2081,4.1433,4.1403,4.1703,4.2312,4.1175,4.0884,4.1509,4.1509,4.1509,4.1544,4.3351,4.4161,3.5638,3.7871,4.0441,4.1885,4.4071,4.6507,4.8848,4.9564,5.0269,5.2216,5.2202,5.2001,5.2605,5.2706,5.2706,5.2706,5.3162,5.3501,5.3501,5.3501,5.3501,5.3501,5.3501,0.0,5.3501,0.0,0.0,5.3171,5.3461,5.3256,5.2294,5.2225,5.1705,5.0602,5.0556,5.0556,5.0556,5.0122,4.977,4.9546,4.8701,4.7938,4.7309,4.7309,4.7309,4.7309,4.7309,4.7309,4.7309,4.7309,4.7309,4.7309,4.7309,4.7309,4.7309,4.7309,4.7309,4.7309,4.7309,4.7309,4.7309,4.7309,4.7309,4.7309,4.7309,4.7309,4.7309,4.7309,4.7309,4.7309,4.7309,4.7123,4.6958,4.6958,4.68,4.6636,4.6636,4.6636,4.6501,4.6046,4.5956,4.5807,4.5379,4.5289,4.5289,4.5289,4.493,4.4461,4.4027,4.3579,4.329,4.329,4.329,4.329,4.329,4.329,4.322,4.2995,4.3015,4.2891,4.2666,4.2651,4.2756,4.3,4.2594,4.2725,4.338,4.338,4.3617,4.4072,4.4676,4.496,3.8605,4.1047,4.3628,4.5591,4.7385,4.9207,5.1334,5.1842,5.1997,5.2555,5.2266,5.1758,5.1217,5.1116,5.1285,5.1826,5.2334,5.2875,5.3433,5.3501,5.3501,5.3501,5.3501,5.3501,5.3501,0.0,0.0,5.3641,5.4229,5.4,5.2635,5.3156,5.2805,5.1261,5.1191,5.1191,5.1191,5.0772,5.0443,5.0181,4.891,4.8057,4.7653,4.7414,4.7309,4.7309,4.7309,4.7309,4.7309,4.7309,4.7309,4.7309,4.7309,4.7309,4.7309,4.7309,4.7309,4.7309,4.7309,4.7309,4.7309,4.7309,4.7309,4.7309,4.7309,4.7309,4.7309,4.7309,4.7309,4.7309,4.7309,4.7309,4.7309,4.7309,4.7309,4.7309,4.7309,4.7309,4.7174,4.6734,4.6659,4.651,4.6082,4.6007,4.6007,4.6007,4.5433,4.4925,4.4691,4.4267,4.4012,4.4012,4.4012,4.4012,4.4012,4.4012,4.4012,4.4012,4.4012,4.4012,4.4012,4.4012,4.4012,4.4012,4.4012,4.4222,4.4661,4.4661,4.4885,4.5304,4.5544,4.5663,4.1588,4.3865,4.6376,4.9319,5.0548,5.1468,5.3112,5.345,5.2959,5.1455,5.1049,5.0542,4.9103,4.8934,4.9458,5.0863,5.1252,5.1877,5.3348,5.3602,5.3619,0.0,0.0,0.0,0.0,0.0,0.0,5.3067,0.0,5.4592,5.2088,5.365,5.3569,5.1363,5.1238,5.1191,5.1191,5.1191,5.0862,5.0181,4.897,4.8356,4.8289,4.7638,4.7339,4.7309,4.7309,4.7309,4.7309,4.7309,4.7309,4.7309,4.7309,4.7309,4.7309,4.7309,4.7309,4.7309,4.7359,4.7337,4.7309,4.7309,4.7309,4.7309,4.7309,4.7309,4.7294,4.7359,4.7337,4.7294,4.7359,4.7337,4.7309,4.7309,4.7309,4.7309,4.7309,4.7309,4.7309,4.7309,4.7309,4.7309,4.7309,4.7309,4.7309,4.7309,4.6749,4.6106,4.5439,4.5319,4.5289,4.5289,4.5289,4.5289,4.5289,4.5289,4.5289,4.5289,4.5289,4.5289,4.5289,4.5289,4.5289,4.5289,4.5289,4.5319,4.5349,4.5349,4.5364,4.5409,4.6046,4.6345,4.4694,4.733,4.9691,5.0459,5.176,5.296,5.3399,5.2604,5.1522,5.0574,4.9069,4.7631,4.6718,4.7902,4.912,4.9493,5.1911,0.0,5.4262,5.4803,0.0,5.5141,5.5141,5.5141,5.5141,5.5141,0.0,0.0,5.4998,5.4824,5.2751,5.3882,5.3935,5.2508,5.1635,5.1191,5.1191,5.1191,5.0862,5.0196,4.9875,4.9224,4.8282,4.8117,4.7773,4.7309,4.7309,4.7309,4.7309,4.7309,4.7309,4.7309,4.7309,4.7309,4.7309,4.7309,4.7309,4.7402,4.8162,4.794,4.7309,4.7309,4.7309,4.7309,4.7309,4.7309,4.7452,4.8204,4.7876,4.7473,4.821,4.7855,4.7309,4.7309,4.7309,4.7309,4.7309,4.7309,4.7309,4.7309,4.7309,4.7309,4.7309,4.7309,4.7309,4.7309,4.716,4.6794,4.6121,4.5618,4.5289,4.5289,4.5289,4.5289,4.5289,4.5289,4.5289,4.5289,4.5289,4.5289,4.5289,4.5289,4.5289,4.5289,4.5289,4.5544,4.6046,4.6046,4.63,4.68,4.698,4.7055,4.7898,5.0178,5.2045,5.2045,5.2791,5.3247,5.2232,5.1336,5.005,4.7648,4.6462,4.5413,4.3995,4.5821,4.7767,4.8411,5.1369,0.0,5.4499,5.5243,5.5699,5.5699,5.5699,0.0,5.5699,5.5699,5.5376,0.0,5.555,5.5312,5.3302,5.4542,5.4785,5.3677,5.2553,5.1704,5.1191,5.1191,5.1011,5.0652,5.0353,4.983,4.9119,4.8551,4.8087,4.7713,0.0,4.7309,4.7309,4.7309,4.7309,4.7309,4.7309,4.7566,4.7946,4.7946,4.8267,4.8733,4.9311,4.913,4.8666,4.8666,4.8666,4.8563,4.8093,4.8288,4.8672,4.8764,4.8382,4.8078,4.8656,4.8036,4.7309,4.7309,4.7309,4.7309,4.7309,4.7309,4.7309,4.7309,4.7309,4.7309,4.7309,4.7309,4.7309,4.7309,4.7309,4.7174,4.6779,4.6411,4.6187,4.6187,4.6187,4.6187,4.6187,4.6187,4.6187,4.6187,4.6187,4.6187,4.6187,4.6187,4.6187,4.6187,4.6187,4.6367,4.6734,4.6734,4.6929,4.7309,4.7309,4.7309,5.0901,5.235,5.3501,5.3501,5.3348,5.2655,5.0557,4.9727,4.8206,4.4099,4.3656,4.3366,4.1288,4.3453,4.6041,4.7515,5.0305,5.2875,5.4515,5.5395,5.5885,5.5969,5.5986,5.5986,5.5986,5.5986,5.585,5.5494,5.6394,5.6064,5.4063,5.5387,5.5714,5.463,5.3483,5.2418,5.1433,5.1284,5.1191,5.1191,5.0622,5.0285,5.0151,4.897,4.8467,4.8464,0.0,0.0,4.7516,4.7651,4.763,4.7516,4.7651,4.8246,4.9009,4.9009,4.9595,5.0416,5.055,5.0589,5.057,5.0435,5.0397,5.0223,4.9296,4.9655,5.0223,4.9436,4.9013,4.8825,4.8988,4.8162,4.7309,4.7309,4.7309,4.7309,4.7309,4.7309,4.7309,4.7309,4.7309,4.7309,4.7309,4.7309,4.7309,4.7309,4.7309,4.7309,4.7309,4.7309,4.7309,4.7309,4.7309,4.7309,4.7309,4.7309,4.7309,4.7309,4.7309,4.7309,4.7309,4.7309,4.7309,4.7309,4.7309,4.7309,4.7309,4.7309,4.7309,4.7309,4.7309,4.7309,5.264,5.3264,5.3501,5.3501,5.2537,5.1336,5.0321,4.7748,4.4973,4.2912,4.1644,4.0565,3.9563,4.235,4.5277,4.6752,4.9982,5.3061,5.5209,5.6139,5.685,5.7442,5.7509,5.7509,5.7509,5.7509,0.0,0.0,0.0,5.7132,5.5811,5.604,5.5714,5.463,5.3483,5.2805,5.2604,5.1658,5.1191,5.1191,5.1086,5.0742,5.0166,4.9449,4.9277,4.9502,0.0,0.0,4.8594,4.9492,4.9352,4.8615,4.9512,4.9986,5.0126,5.0126,5.0242,5.0528,5.134,5.1632,5.1504,5.0665,5.0397,5.0374,5.0184,5.0242,5.0531,5.1192,5.013,4.8993,4.9891,4.8713,4.7309,4.7309,4.7309,4.7309,4.7309,4.7309,4.7309,4.7309,4.7309,4.7309,4.7309,4.7309,4.7309,4.7309,4.7309,4.7309,4.7309,4.7309,4.7309,4.7309,4.7309,4.7309,4.7309,4.7309,4.7309,4.7309,4.7309,4.7309,4.7309,4.7309,4.7309,4.7309,4.7309,4.7309,4.7309,4.7309,4.7309,4.7309,4.7309,4.7309,5.3315,5.3501,5.3501,5.3501,5.2334,5.0592,4.8325,4.5821,4.3098,4.0066,3.9174,3.884,3.8497,4.1149,4.389,4.5413,4.8426,5.1522,5.4177,5.5192,5.6207,5.773,5.79,5.79,5.79,5.79,5.79,0.0,0.0,5.7646,5.7095,5.7076,5.6586,5.5474,5.4909,5.4052,5.29,5.2945,5.2373,5.1214,5.2395,5.2479,5.159,5.1157,5.1048,5.1152,0.0,0.0,4.9675,5.0184,5.0087,4.9694,5.0204,5.0722,5.1173,5.1173,5.1539,5.208,5.2557,5.2731,5.2645,5.2168,5.2008,5.1918,5.1357,5.1576,5.2008,5.1921,5.1176,5.0419,5.0397,4.9251,4.7946,4.7424,4.7309,4.7309,4.7309,4.7309,4.7309,4.7309,4.7309,4.7309,4.7309,4.7309,4.7309,4.7309,4.7309,4.7309,4.7309,4.7309,4.7309,4.7309,4.7309,4.7309,4.7309,4.7309,4.7309,4.7309,4.7309,4.7309,4.7309,4.7309,4.7309,4.7309,4.7309,4.7309,4.7309,4.7309,4.7309,4.7309,4.7309,4.7309,5.3501,5.3501,5.3467,5.3298,5.186,4.9612,4.6227,4.391,4.1377,3.7579,3.7257,3.7719,3.786,3.9918,4.2249,4.4276,4.6682,4.9458,5.279,5.4025,5.5362,5.7426,5.7797,5.79,5.79,5.79,0.0,0.0,0.0,0.0,5.79,5.79,5.7482,5.6605,5.6321,5.5377,5.3618,5.4274,5.3699,5.1949,5.3742,5.4126,5.3256,5.2728,5.2617,5.2754,0.0,0.0,0.0,5.0965,5.0927,5.0741,5.0984,5.1557,5.2241,5.2241,5.2783,5.3501,5.3501,5.3501,5.3501,5.3501,5.3501,5.3348,5.2488,5.2835,5.3315,5.247,5.1921,5.1394,5.0624,4.9436,4.8272,4.7495,4.7309,4.7309,4.7309,4.7309,4.7309,4.7309,4.7309,4.7309,4.7309,4.7309,4.7309,4.7309,4.7309,4.7309,4.7309,4.7309,4.7309,4.7309,4.7309,4.7309,4.7309,4.7309,4.7309,4.7309,4.7309,4.7309,4.7309,4.7309,4.7309,4.7309,4.7309,4.7309,4.7309,4.7309,4.7309,4.7309,4.7309,4.7309,5.3501,5.3501,5.3331,5.2587,5.0288,4.7582,4.5244,4.1961,3.8916,3.7168,3.6846,3.7105,3.7787,3.8667,4.0472,4.4009,4.5382,4.7513,5.1809,5.367,5.5158,5.6714,5.7492,5.79,5.79,5.79,5.79,0.0,0.0,0.0,5.79,5.79,5.7845,5.7737,5.6739,5.609,5.5893,5.5027,5.4505,5.4295,5.4505,5.4547,5.4394,5.3096,5.3012,5.3794,0.0,0.0,0.0,5.2818,5.2627,5.1867,5.2835,5.3264,5.3348,5.3348,5.3416,5.3501,5.3501,5.3501,5.3501,5.3501,5.3501,5.3484,5.3382,5.3433,5.3484,5.3382,5.199,5.0528,5.0416,4.8938,4.7409,4.7331,4.7309,4.7309,4.7309,4.7309,4.7309,4.7309,4.7309,4.7309,4.7309,4.7309,4.7309,4.7309,4.7309,4.7309,4.7309,4.7309,4.7309,4.7309,4.7309,4.7309,4.7309,4.7309,4.7309,4.7309,4.7309,4.7309,4.7309,4.7309,4.7309,4.7309,4.7309,4.7309,4.7309,4.7309,4.7309,4.7309,4.7309,4.7309,5.3129,5.3501,5.3315,5.2503,5.0068,4.7194,4.4502,4.1356,3.843,3.6485,3.6079,3.6315,3.7088,3.7477,3.8594,4.1433,4.213,4.3738,4.7767,4.9627,5.1623,5.4482,5.5869,5.6917,0.0,0.0,5.79,0.0,0.0,0.0,5.79,5.79,5.79,5.79,5.7463,5.6889,5.6204,5.647,5.5926,5.461,5.5945,5.6237,5.5545,5.4757,5.463,5.4944,0.0,0.0,0.0,5.3315,5.3247,5.2921,5.3331,5.3501,5.3501,5.3501,5.3501,5.3501,5.3501,5.3501,5.3501,5.3501,5.3501,5.3501,5.3501,5.3501,5.3365,5.2731,5.1938,5.1024,4.9758,4.8377,4.7309,4.7309,4.7309,4.7309,4.7309,4.7309,4.7309,4.7309,4.7309,4.7309,4.7309,4.7309,4.7309,4.7309,4.7309,4.7309,4.7309,4.7309,4.7309,4.7309,4.7309,4.7309,4.7309,4.7309,4.7309,4.7309,4.7309,4.7309,4.7309,4.7309,4.7309,4.7309,4.7309,4.7309,4.7309,4.7309,4.7309,4.7309,4.7309,4.7309,5.2334,5.3162,5.3264,5.2232,4.9747,4.6727,4.3522,4.0475,3.7709,3.5468,3.5173,3.5534,3.633,3.6651,3.7523,3.9745,4.0286,4.1741,4.55,4.7295,4.9442,5.2756,5.4465,5.5869,0.0,5.7628,0.0,0.0,0.0,0.0,0.0,5.79,5.79,5.79,5.79,5.75,5.6701,5.75,5.7129,5.5591,5.7166,5.7381,5.6371,5.5919,5.5581,0.0,0.0,0.0,0.0,5.3501,5.3501,5.3501,5.3501,5.3501,5.3501,5.3501,5.3501,5.3501,5.3501,5.3501,5.3501,5.3501,5.3501,5.3501,5.3501,5.3501,5.3348,5.2592,5.1921,5.0986,4.8886,4.7834,4.7309,4.7309,4.7309,4.7309,4.7309,4.7309,4.7309,4.7309,4.7309,4.7309,4.7309,4.7309,4.7309,4.7309,4.7309,4.7309,4.7309,4.7309,4.7309,4.7309,4.7309,4.7309,4.7309,4.7309,4.7309,4.7309,4.7309,4.7309,4.7309,4.7309,4.7309,4.7309,4.7309,4.7309,4.7309,4.7309,4.7309,4.7309,4.7309,4.7309,5.1015,5.2334,5.3129,5.159,4.9001,4.5845,4.2166,3.8993,3.6208,3.405,3.4149,3.483,3.5572,3.6305,3.7528,3.9737,4.07,4.2506,4.6259,4.8054,4.983,5.2046,5.367,5.4905,5.5648,5.7036,0.0,0.0,0.0,0.0,0.0,5.79,5.79,5.79,5.79,5.7881,5.7881,5.7881,5.7881,5.7863,5.7881,5.7509,5.6764,5.6037,0.0,0.0,0.0,0.0,0.0,5.3501,5.3501,5.3501,5.3501,5.3501,5.3501,5.3501,5.3501,5.3501,5.3501,5.3501,5.3501,5.3501,5.3501,5.3501,5.3501,5.3501,5.3501,5.3484,5.199,4.9947,4.7849,4.7309,4.7309,4.7309,4.7309,4.7309,4.7309,4.7309,4.7309,4.7309,4.7309,4.7309,4.7309,4.7309,4.7309,4.7309,4.7309,4.7309,4.7309,4.7309,4.7309,4.7309,4.7309,4.7309,4.7309,4.7309,4.7309,4.7309,4.7309,4.7309,4.7309,4.7309,4.7309,4.7309,4.7309,4.7309,4.7309,4.7309,4.7309,4.7309,4.7309,4.7309,4.7716,4.8934,4.9307,4.7802,4.5572,4.3038,4.0401,3.7853,3.5572,3.3934,3.3773,3.4127,3.4828,3.5148,3.6517,4.0248,4.1039,4.2337,4.5602,4.775,4.9644,5.1336,5.4685,5.6934,0.0,0.0,0.0,0.0,0.0,0.0,0.0,5.79,5.79,5.79,5.79,5.79,5.79,5.79,5.79,5.79,5.79,5.7509,5.6782,5.6037,0.0,0.0,0.0,0.0,0.0,5.3501,5.3501,5.3501,5.3501,5.3501,5.3501,5.3501,5.3501,5.3501,5.3501,5.3501,5.3501,5.3501,5.3501,5.3501,5.3501,5.3501,5.3348,5.261,5.0911,4.9135,4.8507,4.7813,4.7309,4.7309,4.7309,4.7309,4.7309,4.7309,4.7309,4.7309,4.7309,4.7309,4.7309,4.7309,4.7309,4.7309,4.7309,4.7309,4.7309,4.7309,4.7309,4.7309,4.7309,4.7309,4.7309,4.7309,4.7309,4.7309,4.7309,4.7309,4.7309,4.7309,4.7309,4.7309,4.7309,4.7309,4.7309,4.7309,4.7309,4.7309,4.7309,4.7309,4.453,4.6481,4.7194,4.6007,4.3786,4.1352,3.9174,3.6743,3.4527,3.3099,3.3235,3.3722,3.4149,3.4883,3.6432,3.9467,4.0189,4.1627,4.5213,4.6887,4.8817,5.1708,5.504,0.0,0.0,0.0,0.0,0.0,0.0,0.0,0.0,0.0,5.79,5.79,5.79,5.79,5.79,5.79,5.79,5.79,5.7611,5.7103,5.6358,5.5632,0.0,0.0,0.0,0.0,0.0,5.3501,5.3501,5.3501,5.3501,5.3501,5.3501,5.3501,5.3501,5.3501,5.3501,5.3501,5.3501,5.3501,5.3501,5.3501,5.3501,5.3501,5.328,5.2189,5.0687,4.9316,4.8907,4.8036,4.7309,4.7309,4.7309,4.7309,4.7309,4.7309,4.7309,4.7309,4.7309,4.7309,4.7309,4.7309,4.7309,4.7309,4.7309,4.7309,4.7309,4.7309,4.7309,4.7309,4.7309,4.7309,4.7309,4.7309,4.7309,4.7309,4.7309,4.7309,4.7309,4.7309,4.7309,4.7309,4.7309,4.7309,4.7309,4.7309,4.7309,4.7309,4.7309,4.7309,0.0,4.4271,4.5788,4.5101,4.2834,4.0231,3.8153,3.5538,0.0,3.1728,3.248,3.3431,3.3582,3.523,3.6927,3.8017,3.8785,4.0781,4.5229,4.6092,4.8105,5.3078,5.4955,0.0,0.0,0.0,0.0,0.0,0.0,0.0,0.0,0.0,5.79,5.79,5.7849,5.7849,5.79,5.7849,5.7832,5.7815,5.707,5.6342,5.5597,5.4905,0.0,0.0,0.0,0.0,0.0,5.3501,5.3501,5.3501,5.3501,5.3501,5.3501,5.3501,5.3501,5.3501,5.3501,5.3501,5.3501,5.3501,5.3501,5.3501,5.3501,5.3501,5.328,5.2189,5.1173,5.0145,4.909,4.8036,4.7309,4.7309,4.7309,4.7309,4.7309,4.7309,4.7309,4.7309,4.7309,4.7309,4.7309,4.7309,4.7309,4.7309,4.7309,4.7309,4.7309,4.7309,4.7309,4.7309,4.7309,4.7309,4.7309,4.7309,4.7309,4.7309,4.7309,4.7309,4.7309,4.7309,4.7309,4.7309,4.7309,4.7309,4.7309,4.7309,4.7309,4.7309,4.7309,4.7309,3.4808,0.0,3.7713,3.7423,3.6417,3.5347,0.0,3.332,3.1769,3.0909,3.0996,3.1719,3.3364,3.4057,3.5871,4.0521,4.142,4.2895,4.6822,4.9848,5.2553,5.4904,5.6494,5.7442,0.0,0.0,0.0,0.0,0.0,0.0,0.0,0.0,5.79,5.79,5.734,5.7323,5.79,5.734,5.7053,5.7053,5.6325,5.5581,5.4854,5.4668,0.0,0.0,0.0,0.0,0.0,5.3501,5.3501,5.3501,5.3501,5.3501,5.3501,5.3501,5.3501,5.3501,5.3501,5.3501,5.3501,5.3501,5.3501,5.3501,5.3501,5.3501,5.328,5.2189,5.1173,5.0145,4.909,4.8036,4.7309,4.7309,4.7309,4.7309,4.7309,4.7309,4.7309,4.7309,4.7309,4.7309,4.7309,4.7309,4.7309,4.7309,4.7309,4.7309,4.7309,4.7309,4.7309,4.7309,4.7309,4.7309,4.7309,4.7309,4.7309,4.7309,4.7309,4.7309,4.7309,4.7309,4.7309,4.7309,4.7309,4.7309,4.7309,4.7309,4.7309,4.7309,4.7309,4.7309,3.0668,3.3019,3.536,3.5278,3.4474,3.3704,3.3704,3.2104,3.0537,3.0163,3.0573,3.1443,3.2924,3.3957,3.592,4.0071,4.1344,4.3335,4.7768,5.1928,5.4803,5.5614,5.7002,5.79,0.0,0.0,0.0,0.0,0.0,0.0,0.0,0.0,5.7391,5.7391,5.6681,5.6664,5.7391,5.6664,5.6308,5.6274,5.5564,5.4989,5.46,5.4245,0.0,0.0,0.0,0.0,5.3501,5.3501,5.3501,5.3501,5.3501,5.3501,5.3501,5.3501,5.3501,5.3501,5.3501,5.3501,5.3501,5.3501,5.3501,5.3501,5.3501,5.3501,5.3382,5.28,5.1557,5.0262,4.9694,4.8418,4.7309,4.7309,4.7309,4.7309,4.7309,4.7309,4.7309,4.7309,4.7309,4.7309,4.7309,4.7309,4.7309,4.7309,4.7309,4.7309,4.7309,4.7309,4.7309,4.7309,4.7309,4.7309,4.7309,4.7309,4.7309,4.7309,4.7309,4.7309,4.7309,4.7309,4.7309,4.7309,4.7309,4.7309,4.7309,4.7309,4.7309,4.7309,4.7309,4.7309,2.8456,3.1914,3.522,3.4929,3.4103,3.3353,3.3353,3.1472,2.9743,2.9743,3.0821,3.2002,3.2778,3.4732,3.6962,3.9218,4.1158,4.4062,4.8832,5.2976,5.5614,5.5834,5.707,0.0,0.0,0.0,0.0,0.0,0.0,0.0,0.0,0.0,0.0,5.663,5.5919,5.5817,5.6461,5.5834,5.553,5.5513,5.4786,5.4431,5.4397,5.3788,0.0,0.0,0.0,0.0,5.3501,5.3501,5.3501,5.3501,5.3501,5.3501,5.3501,5.3501,5.3501,5.3501,5.3501,5.3501,5.3501,5.3501,5.3501,5.3501,5.3501,5.3501,5.3467,5.3298,5.1882,5.032,5.0009,4.8625,4.7309,4.7309,4.7309,4.7309,4.7309,4.7309,4.7309,4.7309,4.7309,4.7309,4.7309,4.7309,4.7309,4.7309,4.7309,4.7309,4.7309,4.7309,4.7309,4.7309,4.7309,4.7309,4.7309,4.7309,4.7309,4.7309,4.7309,4.7309,4.7309,4.7309,4.7309,4.7309,4.7309,4.7309,4.7309,4.7309,4.7309,4.7309,4.7309,4.7309,2.9083,3.1178,3.2608,3.0954,3.1206,3.1832,3.1832,3.1071,3.0357,3.0357,3.1518,3.2926,3.4231,3.6721,3.9481,4.2263,4.558,4.8748,0.0,0.0,5.5226,5.6478,0.0,0.0,0.0,0.0,0.0,0.0,0.0,0.0,0.0,0.0,0.0,5.5868,5.5158,5.482,5.4938,5.482,5.4769,5.4752,5.4025,5.367,5.367,5.3551,5.3501,0.0,0.0,0.0,5.3501,5.3501,5.3501,5.3501,5.3501,5.3501,5.3501,5.3501,5.3501,5.3501,5.3501,5.3501,5.3501,5.3501,5.3501,5.3501,5.3501,5.3501,5.3314,5.24,5.1301,5.0005,4.824,4.7538,4.7309,4.7309,4.7309,4.7309,4.7309,4.7309,4.7309,4.7309,4.7309,4.7309,4.7309,4.7309,4.7309,4.7309,4.7309,4.7309,4.7309,4.7309,4.7309,4.7309,4.7309,4.7309,4.7309,4.7309,4.7309,4.7309,4.7309,4.7309,4.7309,4.7309,4.7309,4.7309,4.7309,4.7309,4.7309,4.7309,4.7309,4.7309,4.7309,4.7309,2.7705,2.9428,3.0791,3.0237,3.1614,3.3141,3.3207,3.2435,3.1806,3.2204,3.3111,3.4266,3.5672,3.8313,4.1643,4.5771,0.0,5.0829,5.2689,5.4245,5.5598,0.0,0.0,0.0,0.0,0.0,0.0,0.0,0.0,0.0,0.0,0.0,0.0,0.0,5.4397,5.4008,5.4008,5.4008,5.4008,5.3991,5.367,5.3501,5.3501,5.3501,5.3501,0.0,0.0,5.3501,5.3501,5.3501,5.3501,5.3501,5.3501,5.3501,5.3501,5.3501,5.3501,5.3501,5.3501,5.3501,5.3501,5.3501,5.3501,5.3501,5.3501,5.3501,5.328,5.2189,5.1173,5.0064,4.8507,4.77,4.7309,4.7309,4.7309,4.7309,4.7309,4.7309,4.7309,4.7309,4.7309,4.7309,4.7309,4.7309,4.7309,4.7309,4.7309,4.7309,4.7309,4.7309,4.7309,4.7309,4.7309,4.7309,4.7309,4.7309,4.7309,4.7309,4.7309,4.7309,4.7309,4.7309,4.7309,4.7309,4.7309,4.7309,4.7309,4.7309,4.7309,4.7309,4.7309,4.7309,2.72,2.8765,3.02,3.0819,3.2512,3.4241,3.5024,3.4294,3.3807,3.5059,3.5988,3.691,3.798,4.0873,4.4511,4.8823,5.0761,5.2199,5.3568,5.4718,0.0,0.0,0.0,0.0,0.0,0.0,0.0,0.0,0.0,0.0,0.0,0.0,0.0,0.0,5.3788,5.3501,5.3501,5.3501,5.3501,5.3501,5.3501,5.3501,5.3501,5.3501,5.3501,5.3501,5.3501,5.3501,5.3501,5.3501,5.3501,5.3501,5.3501,5.3501,5.3501,5.3501,5.3501,5.3501,5.3501,5.3501,5.3501,5.3501,5.3501,5.3501,5.3501,5.3501,5.323,5.192,5.0986,5.0145,4.909,4.8036,4.7309,4.7309,4.7309,4.7309,4.7309,4.7309,4.7309,4.7309,4.7309,4.7309,4.7309,4.7309,4.7309,4.7309,4.7309,4.7309,4.7309,4.7309,4.7309,4.7309,4.7309,4.7309,4.7309,4.7309,4.7309,4.7309,4.7309,4.7309,4.7309,4.7309,4.7309,4.7309,4.7309,4.7309,4.7309,4.7309,4.7309,4.7309,4.7309,4.7309,2.9549,3.082,3.1599,3.2209,3.2497,3.3366,3.6117,3.6186,3.6465,3.9261,4.0909,4.1883,4.1999,4.5537,4.9007,5.0761,5.2317,5.3619,5.4397,0.0,0.0,0.0,0.0,0.0,0.0,0.0,0.0,0.0,0.0,0.0,0.0,0.0,0.0,0.0,0.0,5.3501,5.3501,5.3501,5.3501,5.3501,5.3501,5.3501,5.3501,5.3501,5.3501,5.3501,5.3501,5.3501,5.3501,5.3501,5.3501,5.3501,5.3501,5.3501,5.3501,5.3501,5.3501,5.3501,5.3501,5.3501,5.3501,5.3501,5.3501,5.3501,5.3501,5.3501,5.3076,5.1078,5.0471,5.0145,4.909,4.8036,4.7309,4.7309,4.7309,4.7309,4.7309,4.7309,4.7309,4.7309,4.7309,4.7309,4.7309,4.7309,4.7309,4.7309,4.7309,4.7309,4.7309,4.7309,4.7309,4.7309,4.7309,4.7309,4.7309,4.7309,4.7309,4.7309,4.7309,4.7309,4.7309,4.7309,4.7309,4.7309,4.7309,4.7309,4.7309,4.7309,4.7309,4.7309,4.7309,4.7309,2.8435,2.9536,3.0773,3.2249,3.3945,3.5759,3.7737,3.9071,4.0598,4.3138,4.4087,0.0,0.0,0.0,5.0168,5.164,5.279,5.3754,0.0,0.0,0.0,0.0,0.0,0.0,0.0,0.0,0.0,0.0,0.0,0.0,0.0,0.0,0.0,0.0,0.0,5.3501,5.3501,5.3501,5.3501,5.3501,5.3501,5.3501,5.3501,5.3501,5.3501,5.3501,5.3501,5.3501,5.3501,5.3501,5.3501,5.3501,5.3501,5.3501,5.3501,5.3501,5.3501,5.3501,5.3501,5.3501,5.3501,5.3501,5.3501,5.3501,5.3501,5.3501,5.3195,5.174,5.0873,5.0009,4.8309,4.7587,4.7309,4.7309,4.7309,4.7309,4.7309,4.7309,4.7309,4.7309,4.7309,4.7309,4.7309,4.7309,4.7309,4.7309,4.7309,4.7309,4.7309,4.7309,4.7309,4.7309,4.7309,4.7309,4.7309,4.7309,4.7309,4.7309,4.7309,4.7309,4.7309,4.7309,4.7309,4.7309,4.7309,4.7309,4.7309,4.7309,4.7309,4.7309,4.7309,4.7309,2.8283,2.9396,3.1006,3.2617,3.5313,3.8006,3.9684,4.1601,4.3795,4.6534,4.709,4.7479,4.8715,0.0,0.0,0.0,5.2976,0.0,0.0,0.0,0.0,0.0,0.0,0.0,0.0,0.0,0.0,0.0,0.0,0.0,0.0,0.0,0.0,0.0,0.0,0.0,5.3501,5.3501,5.3501,5.3501,5.3501,5.3501,5.3501,5.3501,5.3501,5.3501,5.3501,5.3501,5.3501,5.3501,5.3501,5.3501,5.3501,5.3501,5.3501,5.3501,5.3501,5.3501,5.3501,5.3501,5.3501,5.3501,5.3501,5.3501,5.3501,5.3501,5.3212,5.1813,5.093,4.9927,4.7849,4.7309,4.7309,4.7309,4.7309,4.7309,4.7309,4.7309,4.7309,4.7309,4.7309,4.7309,4.7309,4.7309,4.7309,4.7309,4.7309,4.7309,4.7309,4.7309,4.7309,4.7309,4.7309,4.7309,4.7309,4.7309,4.7309,4.7309,4.7309,4.7309,4.7309,4.7309,4.7309,4.7309,4.7309,4.7309,4.7309,4.7309,4.7309,4.7309,4.7309,4.7309,2.9772,3.1055,3.2764,3.3528,3.6398,3.9632,4.1917,4.3591,4.5664,4.9366,5.0117,5.0338,5.1066,5.1201,0.0,0.0,0.0,0.0,0.0,0.0,0.0,0.0,0.0,0.0,0.0,0.0,0.0,0.0,0.0,0.0,0.0,0.0,0.0,0.0,0.0,0.0,5.3501,5.3501,5.3501,5.3501,5.3501,5.3501,5.3501,5.3501,5.3501,5.3501,5.3501,5.3501,5.3501,5.3501,5.3501,5.3501,5.3501,5.3501,5.3501,5.3501,5.3501,5.3501,5.3501,5.3501,5.3501,5.3501,5.3501,5.3501,5.3501,5.3501,5.3076,5.1003,5.0413,4.9927,4.7849,4.7309,4.7309,4.7309,4.7309,4.7309,4.7309,4.7309,4.7309,4.7309,4.7309,4.7309,4.7309,4.7309,4.7309,4.7309,4.7309,4.7309,4.7309,4.7309,4.7309,4.7309,4.7309,4.7309,4.7309,4.7309,4.7309,4.7309,4.7309,4.7309,4.7309,4.7309,4.7309,4.7309,4.7309,4.7309,4.7309,4.7309,4.7309,4.7309,4.7309,4.7309,2.9169,3.0437,3.2611,3.473,3.8696,4.2689,4.4981,4.6232,4.7826,5.0999,5.164,5.1555,5.1252,5.1624,0.0,0.0,0.0,0.0,0.0,0.0,0.0,0.0,0.0,0.0,0.0,0.0,0.0,0.0,0.0,0.0,0.0,0.0,0.0,0.0,0.0,0.0,5.3501,5.3501,5.3501,5.3501,5.3501,5.3501,5.3501,5.3501,5.3501,5.3501,5.3501,5.3501,5.3501,5.3501,5.3501,5.3501,5.3501,5.3501,5.3501,5.3501,5.3501,5.3501,5.3501,5.3501,5.3501,5.3501,5.3501,5.3501,5.3501,5.3501,5.3212,5.1831,5.0949,5.0087,4.8697,4.7834,4.7309,4.7309,4.7309,4.7309,4.7309,4.7309,4.7309,4.7309,4.7309,4.7309,4.7309,4.7309,4.7309,4.7309,4.7309,4.7309,4.7309,4.7309,4.7309,4.7309,4.7309,4.7309,4.7309,4.7309,4.7309,4.7309,4.7309,4.7309,4.7309,4.7309,4.7309,4.7309,4.7309,4.7309,4.7309,4.7309,4.7309,4.7309,4.7309,4.7309,3.0599,3.239,3.488,3.7386,4.072,4.4234,4.7378,4.8917,5.0237,5.235,5.252,5.2266,5.2131,5.2232,0.0,0.0,0.0,0.0,0.0,0.0,0.0,0.0,0.0,0.0,0.0,0.0,0.0,0.0,0.0,0.0,0.0,0.0,0.0,0.0,0.0,0.0,5.3501,5.3501,5.3501,5.3501,5.3501,5.3501,5.3501,5.3501,5.3501,5.3501,5.3501,5.3501,5.3501,5.3501,5.3501,5.3501,5.3501,5.3501,5.3501,5.3501,5.3501,5.3501,5.3501,5.3501,5.3501,5.3501,5.3501,5.3501,5.3501,5.3212,5.2661,5.1612,5.0873,5.0048,4.8589,4.8356,4.8309,4.7495,4.7309,4.7309,4.7309,4.7309,4.7309,4.7309,4.7309,4.7309,4.7309,4.7309,4.7309,4.7309,4.7309,4.7309,4.7309,4.7309,4.7309,4.7309,4.7309,4.7309,4.7309,4.7309,4.7309,4.7309,4.7309,4.7309,4.7309,4.7309,4.7309,4.7309,4.7309,4.7309,4.7309,4.7309,4.7309,4.7309,4.7309,4.7309,3.2893,3.5568,3.8369,4.065,4.2611,4.5097,4.9255,5.1352,5.2621,5.3348,0.0,5.2638,5.3365,5.2909,0.0,0.0,0.0,0.0,0.0,0.0,0.0,0.0,0.0,0.0,0.0,0.0,0.0,0.0,0.0,0.0,0.0,0.0,0.0,0.0,0.0,0.0,5.3501,5.3501,5.3501,0.0,5.3501,5.3501,5.3501,5.3501,5.3501,5.3501,5.3501,5.3501,5.3501,5.3501,5.3501,5.3501,5.3501,5.3501,5.3501,5.3501,5.3501,5.3501,5.3501,5.3501,5.3501,5.3501,5.3501,5.3501,5.3501,5.2818,5.1849,5.0946,5.0624,5.0087,4.8219,4.9044,4.9927,4.8024,4.7581,4.7581,4.7581,4.7581,4.7559,4.7452,4.7445,4.7402,4.7331,4.7309,4.7309,4.7309,4.7309,4.7309,4.7309,4.7467,4.7516,4.7331,4.7309,4.7309,4.7309,4.7309,4.7309,4.7309,4.7309,4.7309,4.7309,4.7309,4.7309,4.7309,4.7309,4.7309,4.7309,4.7309,4.7309,4.7309,4.7309,4.7309,3.1052,3.4126,3.7895,4.0543,4.4959,4.9052,5.0609,5.2147,5.3298,5.3467,5.3365,5.3298,5.3467,0.0,0.0,0.0,0.0,0.0,0.0,0.0,0.0,0.0,0.0,0.0,0.0,0.0,0.0,0.0,0.0,0.0,0.0,0.0,0.0,0.0,0.0,5.3501,5.3501,5.3501,5.3501,0.0,5.3501,5.3501,5.3501,5.3501,5.3501,5.3501,5.3501,5.3501,5.3501,5.3501,5.3501,5.3501,5.3501,5.3501,5.3501,5.3501,5.3501,5.3501,5.3501,5.3501,5.3501,5.3501,5.3501,5.3501,5.3501,5.3348,5.311,5.2886,5.2223,5.1469,5.1043,5.0665,5.0297,4.9848,4.973,4.973,4.973,4.973,4.9492,4.8636,4.8486,4.8246,4.7445,4.7309,4.7309,4.7309,4.7309,4.7309,4.7309,4.8713,4.9105,4.7473,4.7309,4.7309,4.7309,4.7309,4.7309,4.7309,4.7309,4.7309,4.7309,4.7309,4.7309,4.7309,4.7309,4.7309,4.7309,4.7309,4.7309,4.7309,4.7309,4.7309,3.2251,3.5644,3.9399,4.2993,4.7005,5.0287,5.1032,5.208,5.3044,5.3416,5.3501,5.3501,5.3501,0.0,0.0,0.0,0.0,0.0,0.0,0.0,0.0,0.0,0.0,0.0,0.0,0.0,0.0,0.0,0.0,0.0,0.0,0.0,0.0,0.0,5.3501,5.3501,5.3501,5.3501,5.3501,5.3501,5.3501,5.3501,5.3501,5.3501,5.3501,5.3501,5.3501,5.3501,5.3501,5.3501,5.3501,5.3501,5.3501,5.3501,5.3501,5.3501,5.3501,5.3501,5.3501,5.3501,5.3501,5.3501,5.3501,5.3501,5.3501,5.3144,5.2731,5.2731,5.233,5.1778,5.132,5.1539,5.1756,5.1245,5.0741,5.0397,5.0397,5.0397,5.0087,4.9009,4.8805,4.8486,4.7473,4.7309,4.7309,4.7309,4.7309,4.7309,4.7309,4.824,4.9267,5.0165,4.8496,4.7309,4.7309,4.7309,4.7309,4.7309,4.9166,4.9829,4.8836,4.7828,4.7309,4.7309,4.7309,4.7309,4.7309,4.7309,4.7309,4.7309,4.7309,4.7309,3.3042,3.7022,4.0988,4.5483,4.8272,5.0101,5.0845,5.1573,5.235,5.3129,5.3399,5.3501,0.0,0.0,0.0,0.0,0.0,0.0,0.0,0.0,0.0,0.0,0.0,0.0,0.0,0.0,0.0,0.0,0.0,0.0,0.0,0.0,5.3501,5.3501,5.3501,5.3501,5.3501,5.3501,5.3501,5.3501,5.3501,5.3501,5.3501,5.3501,5.3501,5.3501,5.3501,5.3501,5.3501,5.3501,5.3501,5.3501,5.3501,5.3501,5.3501,5.3501,5.3501,5.3501,5.3501,5.3501,5.3501,5.3501,5.3501,5.3501,5.3501,5.2887,5.2171,5.2171,5.2171,5.1975,5.1152,5.2204,5.328,5.24,5.1541,5.0946,5.0946,5.0946,5.057,4.9316,4.88,4.8272,4.743,4.7309,4.7309,4.7309,4.7898,4.8371,4.8371,4.8371,4.969,5.3127,5.0416,4.8371,4.8371,4.8371,4.8371,4.8371,5.161,5.2731,5.1003,4.8815,4.763,4.7559,4.7381,4.7309,4.7309,4.7309,4.7309,4.7309,4.7309,4.7309,2.8457,3.3889,4.0223,4.4722,4.7513,4.934,5.0067,5.0828,5.1556,0.0,5.301,5.3501,0.0,0.0,0.0,0.0,0.0,0.0,0.0,0.0,0.0,0.0,0.0,0.0,0.0,0.0,0.0,0.0,0.0,0.0,0.0,5.3501,5.3501,5.3501,5.3501,5.3501,5.3501,5.3501,5.3501,5.3501,5.3501,5.3501,5.3501,5.3501,5.3501,5.3501,5.3501,5.3501,5.3501,5.3501,5.3501,5.3501,5.3501,5.3501,5.3501,5.3501,5.3501,5.3501,5.3501,5.3501,5.3501,5.3501,5.3501,5.3501,5.3501,5.3399,5.3281,5.3281,5.3281,5.3247,5.311,5.3297,5.3467,5.3331,5.3179,5.3076,5.3076,5.3076,5.2504,5.055,4.8733,4.7452,4.7331,4.7309,4.7309,4.7309,5.0374,5.2678,5.2678,5.2678,5.2886,5.345,5.299,5.2678,5.2678,5.2678,5.2678,5.2678,5.3195,5.3382,5.3093,5.048,4.8912,4.8615,4.7743,4.7309,4.7309,4.7309,4.7309,4.7309,4.7309,4.7309,3.0922,3.5509,3.9982,4.4059,4.643,4.8071,4.9221,5.005,5.0794,5.1522,5.1962,0.0,0.0,0.0,0.0,0.0,0.0,0.0,0.0,0.0,0.0,0.0,0.0,0.0,0.0,0.0,0.0,0.0,0.0,0.0,5.3501,5.3501,5.3501,5.3501,5.3501,0.0,5.3501,5.3501,5.3501,5.3501,5.3501,5.3501,5.3501,5.3501,5.3501,5.3501,5.3501,5.3501,5.3501,5.3501,5.3501,5.3501,5.3501,5.3501,5.3501,5.3501,5.3501,5.3501,5.3501,5.3501,5.3501,5.3501,5.3501,5.3501,5.3501,5.3501,5.3501,5.3501,5.3501,5.3501,5.3501,5.3501,5.3501,5.3501,5.3501,5.3501,5.3501,5.3501,5.3007,5.1301,4.958,4.8189,4.7445,4.7309,4.8088,5.0416,5.2345,5.3501,5.3501,5.3501,5.3501,5.3501,5.3501,5.3501,5.3501,5.3501,5.3501,5.3501,5.3501,5.3501,5.3501,5.0803,4.9425,4.9694,4.8115,4.7309,4.7309,4.7309,4.7309,4.7309,4.7309,4.7309,3.2075,3.5436,3.8019,4.2147,4.4567,4.638,4.8054,4.9001,4.9796,0.0,5.0914,0.0,0.0,0.0,0.0,0.0,0.0,0.0,0.0,0.0,0.0,0.0,0.0,0.0,0.0,0.0,0.0,0.0,0.0,0.0,5.3196,5.3027,5.2926,5.2926,5.2926,5.2926,5.2926,5.3112,5.3298,5.3501,5.3501,5.3501,5.3501,5.3501,5.3501,5.3501,5.3501,5.3501,5.3501,5.3501,5.3501,5.3501,5.3501,5.3501,5.3501,5.3501,5.3501,5.3501,5.3501,5.3501,5.3501,5.3501,5.3501,5.3501,5.3501,5.3501,5.3501,5.3501,5.3501,5.3501,5.3501,5.3501,5.3501,5.3501,5.3501,5.3501,5.3501,5.3281,5.2749,5.1632,5.0407,4.9079,4.7566,4.8177,4.9927,5.3041,5.3501,5.3501,5.3501,5.3501,5.3501,5.3501,5.3501,5.3501,5.3501,5.3501,5.3501,5.3501,5.3501,5.3501,5.3501,5.1213,5.0114,5.0378,4.8877,4.794,4.7679,4.7679,4.7679,4.7694,4.7424,4.7309,2.8078,3.0439,3.2831,3.8002,4.1457,4.4167,4.6397,4.7464,4.8428,4.9847,0.0,0.0,0.0,0.0,0.0,0.0,0.0,0.0,0.0,0.0,0.0,0.0,0.0,0.0,0.0,0.0,0.0,0.0,0.0,0.0,5.2367,5.1691,5.1319,5.1319,5.1319,5.1319,5.1319,5.1996,5.2756,5.3501,5.3501,5.3501,5.3501,5.3501,5.3501,5.3501,5.3501,5.3501,5.3501,5.3501,5.3501,5.3501,5.3501,5.3501,5.3501,5.3501,5.3501,5.3501,5.3501,5.3501,5.3501,5.3501,5.3501,5.3501,5.3501,5.3501,5.3501,5.3501,5.3501,5.3501,5.3501,5.3501,5.3501,5.3501,5.3501,5.3501,5.3501,5.2696,5.1867,5.1488,5.0836,4.9675,4.7651,5.0586,5.3247,5.3467,5.3501,5.3501,5.3501,5.3501,5.3501,5.3501,5.3501,5.3501,5.3501,5.3501,5.3501,5.3501,5.3501,5.3501,5.3501,5.2382,5.1322,5.0416,5.0281,4.9734,4.8723,4.8723,4.8723,4.8697,4.7743,4.7309,2.6835,2.8984,3.1512,3.5763,3.8717,4.1153,4.3399,4.5246,4.6771,4.7767,0.0,0.0,0.0,0.0,0.0,0.0,0.0,0.0,0.0,0.0,0.0,0.0,0.0,0.0,0.0,0.0,0.0,0.0,0.0,0.0,5.159,5.1336,5.1201,5.1201,5.1201,5.1201,5.1201,5.1455,5.1742,5.2013,5.2013,5.2013,5.2013,5.2013,5.2013,5.2013,5.2013,5.2604,5.3467,5.2942,5.3044,5.3501,5.3501,5.3501,5.3501,5.3501,5.3501,5.3501,5.3501,5.3501,5.3501,5.3501,5.3501,5.3501,5.3501,5.3501,5.3501,5.3501,5.3501,5.3501,5.3501,5.3501,5.3501,5.3501,5.3501,5.3501,5.3501,5.3195,5.2887,5.2766,5.254,5.215,5.141,5.2504,5.3501,5.3501,5.3501,5.3501,5.3501,5.3501,5.3501,5.3501,5.3501,5.3501,5.3501,5.3501,5.3501,5.3501,5.3501,5.3501,5.3501,5.247,5.1724,5.1375,5.1375,5.0515,4.8805,4.8805,4.8805,4.8779,4.7764,4.7651,2.5329,2.7232,2.9854,3.3575,3.5825,3.8024,4.1521,4.3284,4.4621,4.6109,0.0,0.0,0.0,0.0,0.0,0.0,0.0,0.0,0.0,0.0,0.0,0.0,0.0,0.0,0.0,0.0,0.0,0.0,0.0,0.0,5.0829,5.0592,5.0457,5.0457,5.0457,5.0575,5.0828,5.0829,5.0963,5.1201,5.1201,5.1201,5.1201,5.1201,5.1201,5.1184,5.093,5.1555,5.2689,5.2148,5.2401,5.3112,5.3112,5.3264,5.3501,5.3501,5.3501,5.3501,5.3501,5.3501,5.3501,5.3501,5.3501,5.3501,5.3501,5.3501,5.3501,5.3501,5.3501,5.3501,5.3501,5.3501,5.3501,5.3501,5.3501,5.3501,5.3501,5.3501,5.3501,5.3501,5.3501,5.3501,5.3501,5.3501,5.3501,5.3501,5.3501,5.3501,5.3501,5.3501,5.3501,5.3501,5.3501,5.3501,5.3501,5.3501,5.3501,5.3501,5.3501,5.3501,5.3501,5.2818,5.2277,5.1921,5.2242,5.1578,4.984,4.984,4.9659,4.9316,4.8651,4.8569,0.0,0.0,0.0,3.1227,3.2689,3.4765,4.0658,0.0,4.1847,4.4894,0.0,0.0,0.0,0.0,0.0,0.0,0.0,0.0,0.0,0.0,0.0,0.0,0.0,0.0,0.0,0.0,0.0,0.0,0.0,5.0066,5.0066,4.939,4.9001,4.9001,4.9001,4.934,5.0066,5.0066,5.0422,5.1133,5.1133,5.1133,5.1133,5.1133,5.1133,5.11,5.0371,5.0473,5.1133,5.115,5.159,5.2266,5.2266,5.2756,5.3467,5.3467,5.3484,5.3501,5.3501,5.3501,5.3501,5.3501,5.3501,5.3501,5.3501,5.3501,5.3501,5.3501,5.3501,5.3501,5.3501,5.3501,5.3501,5.3501,5.3501,5.3501,5.3501,5.3501,5.3501,5.3501,5.3501,5.3501,5.3501,5.3501,5.3501,5.3501,5.3501,5.3501,5.3501,5.3501,5.3501,5.3501,5.3501,5.3501,5.3501,5.3501,5.3501,5.3501,5.3501,5.3501,5.3501,5.3501,5.3007,5.1957,5.2973,5.299,5.1939,5.1921,5.1394,5.0435,5.0435,4.9993,2.3536,0.0,0.0,0.0,0.0,0.0,0.0,0.0,3.671,4.0819,0.0,0.0,0.0,0.0,0.0,0.0,0.0,0.0,0.0,0.0,0.0,0.0,0.0,0.0,0.0,0.0,0.0,0.0,4.9424,4.9306,4.9306,4.912,4.9001,4.9001,4.9001,4.9103,4.9306,4.9306,4.9407,4.961,4.961,4.961,4.961,4.961,4.961,4.961,4.939,4.9424,4.9661,5.0185,5.0845,5.1505,5.1505,5.1978,5.2638,5.2638,5.301,5.3501,5.3501,5.3501,5.3501,5.3501,5.3501,5.3501,5.3501,5.3501,5.3501,5.3501,5.3501,5.3501,5.3501,5.3501,5.3501,5.3501,5.3501,5.3501,5.3501,5.3501,5.3501,5.3501,5.3501,5.3501,5.3501,5.3501,5.3501,5.3501,5.3501,5.3501,5.3501,5.3501,5.3501,5.3501,5.3501,5.3501,5.3501,5.3501,5.3501,5.3501,5.3501,5.3501,5.3501,5.3501,5.3365,5.3059,5.3348,5.3348,5.3059,5.2277,5.176,5.1486,5.1229,4.9954,2.4594,0.0,0.0,0.0,0.0,0.0,0.0,3.3078,0.0,0.0,0.0,0.0,0.0,0.0,0.0,0.0,0.0,0.0,0.0,0.0,0.0,0.0,0.0,0.0,0.0,0.0,0.0,0.0,4.8817,4.9001,4.9001,4.9001,4.9001,4.9001,4.9001,4.9001,4.9001,4.9001,4.9001,4.9001,4.9001,4.9001,4.9001,4.9001,4.9001,4.9001,4.9001,4.9001,4.9035,4.9458,5.0084,5.0744,5.0744,5.12,5.1894,5.2198,5.2604,5.3061,5.3382,5.3501,5.3501,5.3501,5.3501,5.3501,5.3501,5.3501,5.3501,5.3501,5.3501,5.3501,5.3501,5.3501,5.3501,5.3501,5.3501,5.3501,5.3501,5.3501,5.3501,5.3501,5.3501,5.3501,5.3501,5.3501,5.3501,5.3501,5.3501,5.3501,5.3501,5.3501,5.3501,5.3501,5.3501,5.3501,5.3501,5.3501,5.3501,5.3501,5.3501,5.3501,5.3501,5.3501,5.3501,5.3501,5.3501,5.3501,5.3501,5.287,5.2575,5.2522,5.0592,4.9754,2.6361,2.6522,0.0,0.0,0.0,0.0,3.2385,3.2689,3.3281,0.0,0.0,0.0,0.0,0.0,0.0,0.0,0.0,0.0,0.0,0.0,0.0,0.0,0.0,0.0,0.0,0.0,4.7785,4.7785,4.8392,4.8765,4.8765,4.8765,4.8765,4.8765,4.8849,4.8883,4.8883,4.8968,4.9001,4.9001,4.9001,4.9001,4.9001,4.9001,4.9001,4.9001,4.9001,4.9001,4.9001,4.9001,4.939,4.9981,4.9981,5.0439,5.115,5.1809,5.2114,5.23,5.3095,5.3315,5.3264,5.3348,5.3365,5.3365,5.3365,5.3433,5.3501,5.3501,5.3501,5.3501,5.3501,5.3501,5.3501,5.3501,5.3501,5.3501,5.3501,5.3501,5.3501,5.3501,5.3501,5.3501,5.3501,5.3501,5.3501,5.3501,5.3501,5.3501,5.3501,5.3501,5.3501,5.3501,5.3501,5.3501,5.3501,5.3501,5.3501,5.3501,5.3501,5.3501,5.3501,5.3501,5.3501,5.3501,5.3501,5.3501,5.3501,5.3501,5.3501,5.3416,4.971,4.973,2.8578,2.8873,2.9202,2.8272,0.0,0.0,2.7613,2.8527,3.01,0.0,0.0,0.0,0.0,0.0,0.0,0.0,0.0,0.0,0.0,0.0,0.0,0.0,0.0,0.0,0.0,0.0,4.7005,4.7005,4.7141,4.724,4.724,4.724,4.724,4.724,4.7817,4.8107,4.8107,4.8698,4.9001,4.9001,4.9001,4.9001,4.9001,4.9001,4.9001,4.9001,4.9001,4.9001,4.9001,4.9001,4.9086,4.9221,4.9221,4.9661,5.0321,5.0489,5.0896,5.1522,5.2283,5.2147,5.1742,5.235,5.2536,5.2536,5.2536,5.2993,5.3501,5.3501,5.3501,5.3501,5.3501,5.3501,5.3501,5.3501,5.3501,5.3501,5.3501,5.3501,5.3501,5.3501,5.3501,5.3501,5.3501,5.3501,5.3501,5.3501,5.3501,5.3501,5.3501,5.3501,5.3501,5.3501,5.3501,5.3501,5.3501,5.3501,5.3501,5.3501,5.3501,5.3501,5.3501,5.3501,5.3501,5.3501,5.3501,5.3501,5.3501,5.3501,5.3501,5.3484,5.2678,5.0927,3.0405,3.0371,3.0463,2.9693,0.0,0.0,0.0,2.7841,2.8696,3.1681,3.1623,0.0,0.0,0.0,0.0,0.0,0.0,0.0,0.0,0.0,0.0,0.0,0.0,0.0,0.0,0.0,4.6005,4.6735,4.68,4.68,4.68,4.68,4.68,4.68,4.7158,4.7361,4.7361,4.7716,4.7902,4.7902,4.8291,4.8445,4.8462,4.8817,4.9001,4.9001,4.9001,4.9001,4.9001,4.9001,4.9001,4.9001,4.9001,4.9221,4.9593,4.9949,5.0321,5.076,5.1505,5.1505,5.1252,5.1624,5.2012,5.23,5.23,5.2858,5.3501,5.3501,5.3501,5.3501,5.3501,5.3501,5.3501,5.3501,5.3501,5.3501,5.3501,5.3501,5.3501,5.3501,5.3501,5.3501,5.3501,5.3501,5.3501,5.3501,5.3501,5.3501,5.3501,5.3501,5.3501,5.3501,5.3501,5.3501,5.3501,5.3501,5.3501,5.3501,5.3501,5.3501,5.3501,5.3501,5.3501,5.3501,5.3501,5.3501,5.3501,5.3501,5.3501,5.3501,5.3501,5.1829,0.0,0.0,0.0,0.0,0.0,2.9294,0.0,0.0,0.0,3.2046,0.0,0.0,0.0,0.0,0.0,0.0,0.0,0.0,0.0,0.0,0.0,0.0,0.0,0.0,0.0,0.0,4.4245,4.6007,4.5754,4.5754,4.6343,4.6377,4.6377,4.6377,4.6498,4.6597,4.6597,4.6733,4.68,4.6817,4.7411,4.7684,4.7718,4.8445,4.8798,4.8798,4.8951,4.9001,4.9001,4.9001,4.9001,4.9001,4.9001,4.9001,4.9069,4.9661,4.9897,4.9982,5.0728,5.0897,5.0795,5.093,5.1386,5.1928,5.2215,5.2756,5.3298,5.3467,5.3501,5.3501,5.3501,5.3501,5.3501,5.3501,5.3501,5.3501,5.3501,5.3501,5.3501,5.3501,5.3501,5.3501,5.3501,5.3501,5.3501,5.3501,5.3501,5.3501,5.3501,5.3501,5.3501,5.3501,5.3501,5.3501,5.3501,5.3501,5.3501,5.3501,5.3501,5.3501,5.3501,5.3501,5.3501,5.3501,5.3501,5.3501,5.3501,5.3501,5.3501,5.3501,5.3501,5.2591,0.0,0.0,0.0,0.0,3.3457,0.0,0.0,0.0,2.9118,2.7038,0.0,0.0,0.0,0.0,0.0,0.0,0.0,0.0,0.0,0.0,0.0,0.0,0.0,0.0,0.0,0.0,0.0,4.3575,4.1969,4.2033,4.4702,4.4838,4.4838,4.4838,4.5483,4.5821,4.5821,4.6464,4.68,4.68,4.687,4.6921,4.6955,4.7684,4.8022,4.8056,4.8715,4.9001,4.9001,4.9001,4.9001,4.9001,4.9001,4.9001,4.9018,4.9086,4.912,4.9238,4.9965,4.9796,4.9373,4.9999,5.0286,5.0574,5.1911,5.2367,5.2587,5.3298,5.3501,5.3501,5.3501,5.3501,5.3501,5.3501,5.3501,5.3501,5.3501,5.3501,5.3501,5.3501,5.3501,5.3501,5.3501,5.3501,5.3501,5.3501,5.3501,5.3501,5.3501,5.3501,5.3501,5.3501,5.3501,5.3501,5.3501,5.3501,5.3501,5.3501,5.3501,5.3501,5.3501,5.3501,5.3501,5.3501,5.3501,5.3501,5.3501,5.3501,5.3501,5.3501,5.3501,5.3365,0.0,0.0,0.0,0.0,0.0,0.0,2.801,0.0,2.7494,0.0,0.0,0.0,0.0,0.0,0.0,0.0,0.0,0.0,0.0,0.0,0.0,0.0,0.0,0.0,0.0,0.0,0.0,0.0,0.0,4.0764,4.3741,4.391,4.4113,4.4598,4.4905,4.5058,4.5058,4.5362,4.5514,4.5531,4.5957,4.616,4.6194,4.6938,4.7513,4.7921,4.8225,4.8597,4.9001,4.9001,4.9001,4.9001,4.9001,4.9001,4.9001,4.9001,4.9001,4.9035,4.9357,4.9255,4.912,4.9847,5.01,5.0303,5.1336,5.1961,5.2367,5.2706,5.3145,5.3501,5.3501,5.3501,5.3501,5.3501,5.3501,5.3501,5.3501,5.3501,5.3501,5.3501,5.3501,5.3501,5.3501,5.3501,5.3501,5.3501,5.3501,5.3501,5.3501,5.3501,5.3501,5.3501,5.3501,5.3501,5.3501,5.3501,5.3501,5.3501,5.3501,5.3501,5.3501,5.3501,5.3501,5.3501,5.3501,5.3501,5.3501,5.3501,5.3501,5.3501,5.3501,5.3501,3.79,0.0,0.0,0.0,0.0,0.0,0.0,0.0,0.0,0.0,0.0,0.0,0.0,0.0,0.0,0.0,0.0,0.0,0.0,0.0,0.0,0.0,0.0,0.0,0.0,0.0,0.0,0.0,0.0,0.0,4.2916,4.3288,4.366,4.4262,4.4482,4.4615,4.4615,4.4615,4.4615,4.4615,4.5128,4.5399,4.5415,4.616,4.6786,4.7329,4.7718,4.8208,4.8714,4.8917,4.9001,4.9001,4.9001,4.9001,4.9001,4.9001,4.9001,4.9001,4.9001,4.9001,4.9086,4.961,4.9796,4.9932,5.0676,5.1319,5.186,5.2131,5.2841,5.3501,5.3501,5.3501,5.3501,5.3501,5.3501,5.3501,5.3501,5.3501,5.3501,5.3501,5.3501,5.3501,5.3501,5.3501,5.3501,5.3501,5.3501,5.3501,5.3501,5.3501,5.3501,5.3501,5.3501,5.3501,5.3501,5.3501,5.3501,5.3501,5.3501,5.3501,5.3501,5.3501,5.3501,5.3501,5.3501,5.3501,5.3501,5.3501,5.3501,5.3501,5.3501,5.3501,0.0,0.0,0.0,3.3789,0.0,0.0,0.0,0.0,2.8908,0.0,0.0,0.0,0.0,0.0,0.0,2.801,0.0,0.0,0.0,0.0,0.0,0.0,0.0,0.0,0.0,0.0,0.0,0.0,0.0,0.0,4.2063,4.3,4.3423,4.344,4.4181,4.4615,4.4615,4.4615,4.4615,4.4615,4.4618,4.4649,4.4651,4.5399,4.5754,4.5841,4.7278,4.7921,4.7988,4.8714,4.9001,4.9001,4.9001,4.9001,4.9001,4.9001,4.9001,4.9001,4.9001,4.9001,4.9001,4.9035,4.9035,4.9171,4.9898,5.0338,5.0761,5.1742,5.2723,5.3501,5.3501,5.3501,5.3501,5.3501,5.3501,5.3501,5.3501,5.3501,5.3501,5.3501,5.3501,5.3501,5.3501,5.3501,5.3501,5.3501,5.3501,5.3501,5.3501,5.3501,5.3501,5.3501,5.3501,5.3501,5.3501,5.3501,5.3501,5.3501,5.3501,5.3501,5.3501,5.3501,5.3501,5.3501,5.3501,5.3501,5.3501,5.3501,5.3501,5.3501,5.3501,5.3501,0.0,0.0,4.1461,3.6513,0.0,0.0,0.0,0.0,0.0,0.0,0.0,0.0,0.0,0.0,0.0,2.8043,0.0,0.0,0.0,0.0,0.0,0.0,0.0,0.0,0.0,0.0,0.0,0.0,0.0,0.0,0.0,4.1813,4.2391,4.3372,4.366,4.4062,4.4584,4.4615,4.4615,4.4615,4.4615,4.4615,4.4601,4.4855,4.5229,4.5722,4.623,4.7008,4.7921,4.8174,4.8563,4.9001,4.9001,4.9001,4.9001,4.9001,4.9001,4.9001,4.9001,4.9001,4.9001,4.9001,4.9001,4.9052,4.9306,4.9779,5.0338,5.0862,5.1725,5.2655,5.3331,5.3501,5.3501,5.3501,5.3501,5.3501,5.3501,5.3501,5.3501,5.3501,5.3501,5.3501,5.3501,5.3501,5.3501,5.3501,5.3501,5.3501,5.3501,5.3501,5.3501,5.3501,5.3501,5.3501,5.3501,5.3501,5.3501,5.3501,5.3501,5.3501,5.3501,5.3501,5.3501,5.3501,5.3501,5.3501,5.3501,5.3501,5.3501,5.3501,5.3501,5.3501,4.2371,4.2844,0.0,0.0,3.6806,0.0,3.1133,0.0,0.0,0.0,0.0,0.0,0.0,0.0,0.0,2.927,2.8111,0.0,0.0,0.0,0.0,0.0,0.0,0.0,0.0,0.0,3.1674,3.4968,0.0,0.0,0.0,0.0,4.163,4.2594,4.3135,4.3643,4.4178,4.4465,4.4615,4.4615,4.4615,4.4615,4.4615,4.4615,4.4855,4.5314,4.5602,4.623,4.716,4.7684,4.8174,4.8631,4.89,4.9001,4.9001,4.9001,4.9001,4.9001,4.9001,4.9001,4.9001,4.9001,4.9001,4.9001,4.9001,4.9323,4.9729,4.9916,5.0947,5.2097,5.257,5.3095,5.3501,5.3501,5.3501,5.3501,5.3501,5.3501,5.3501,5.3501,5.3501,5.3501,5.3501,5.3501,5.3501,5.3501,5.3501,5.3501,5.3501,5.3501,5.3501,5.3501,5.3501,5.3501,5.3501,5.3501,5.3501,5.3501,5.3501,5.3501,5.3501,5.3501,5.3501,5.3501,5.3501,5.3501,5.3501,5.3501,5.3501,5.3501,5.3501,5.3501]}]]